[[{"header":{"parameterUnit":"m.s-1","parameterCategory":1,"la1":30.6,"la2":28.766,"lo1":-90.7593,"lo2":-88.6598,"dy":0.0162,"dx":0.0183,"nx":116,"ny":114,"refTime":"2023-05-24T00:00:00:Z","depth":0,"parameterNumber":2,"parameterNumberName":"U-component_of_WINDS"},"data":[0.0,0.0,0.0,0.0,0.0,0.0,0.0,0.0,0.0,0.0,0.0,0.0,0.0,0.0,0.0,0.0,0.0,0.0,0.0,0.0,0.0,0.0,0.0,0.0,0.0,0.0,0.0,0.0,0.0,0.0,0.0,0.0,0.0,0.0,0.0,0.0,0.0,0.0,0.0,0.0,0.0,0.0,0.0,0.0,0.0,0.0,0.0,0.0,0.0,0.0,0.0,0.0,0.0,0.0,0.0,0.0,0.0,0.0,0.0,0.0,0.0,0.0,0.0,0.0,0.0,0.0,0.0,0.0,0.0,0.0,0.0,0.0,0.0,0.0,0.0,0.0,0.0,0.0,0.0,0.0,0.0,0.0,0.0,0.0,0.0,0.0,0.0,0.0,0.0,0.0,0.0,0.0,0.0,0.0,0.0,0.0,0.0,0.0,0.0,0.0,0.0,0.0,0.0,0.0,0.0,0.0,0.0,0.0,0.0,0.0,0.0,0.0,0.0,0.0,0.0,0.0,0.0,0.0,0.0,0.0,0.0,0.0,0.0,0.0,0.0,0.0,0.0,0.0,0.0,0.0,0.0,0.0,0.0,0.0,0.0,0.0,0.0,0.0,0.0,0.0,0.0,0.0,0.0,0.0,0.0,0.0,0.0,0.0,0.0,0.0,0.0,0.0,0.0,0.0,0.0,0.0,0.0,0.0,0.0,0.0,0.0,0.0,0.0,0.0,0.0,0.0,0.0,0.0,0.0,0.0,0.0,0.0,0.0,0.0,0.0,0.0,0.0,0.0,0.0,0.0,0.0,0.0,0.0,0.0,0.0,0.0,0.0,0.0,0.0,0.0,0.0,0.0,0.0,0.0,0.0,0.0,0.0,0.0,0.0,0.0,0.0,0.0,0.0,0.0,0.0,0.0,0.0,0.0,0.0,0.0,0.0,0.0,0.0,0.0,0.0,0.0,0.0,0.0,0.0,0.0,0.0,0.0,0.0,0.0,0.0,0.0,0.0,0.0,0.0,0.0,0.0,0.0,0.0,0.0,0.0,0.0,0.0,0.0,0.0,0.0,0.0,0.0,0.0,0.0,0.0,0.0,0.0,0.0,0.0,0.0,0.0,0.0,0.0,0.0,0.0,0.0,0.0,0.0,0.0,0.0,0.0,0.0,0.0,0.0,0.0,0.0,0.0,0.0,0.0,0.0,0.0,0.0,0.0,0.0,0.0,0.0,0.0,0.0,0.0,0.0,0.0,0.0,0.0,0.0,0.0,0.0,0.0,0.0,0.0,0.0,0.0,0.0,0.0,0.0,0.0,0.0,0.0,0.0,0.0,0.0,0.0,0.0,0.0,0.0,0.0,0.0,0.0,0.0,0.0,0.0,0.0,0.0,0.0,0.0,0.0,0.0,0.0,0.0,0.0,0.0,0.0,0.0,0.0,0.0,0.0,0.0,0.0,0.0,0.0,0.0,0.0,0.0,0.0,0.0,0.0,0.0,0.0,0.0,0.0,0.0,0.0,0.0,0.0,0.0,0.0,0.0,0.0,0.0,0.0,0.0,0.0,0.0,0.0,0.0,0.0,0.0,0.0,0.0,0.0,0.0,0.0,0.0,0.0,0.0,0.0,0.0,0.0,0.0,0.0,0.0,0.0,0.0,0.0,0.0,0.0,0.0,0.0,0.0,0.0,0.0,0.0,0.0,0.0,0.0,0.0,0.0,0.0,0.0,0.0,0.0,0.0,0.0,0.0,0.0,0.0,0.0,0.0,0.0,0.0,0.0,0.0,0.0,0.0,0.0,0.0,0.0,0.0,0.0,0.0,0.0,0.0,0.0,0.0,0.0,0.0,0.0,0.0,0.0,0.0,0.0,0.0,0.0,0.0,0.0,0.0,0.0,0.0,0.0,0.0,0.0,0.0,0.0,0.0,0.0,0.0,0.0,0.0,0.0,0.0,0.0,0.0,0.0,0.0,0.0,0.0,0.0,0.0,0.0,0.0,0.0,0.0,0.0,0.0,0.0,0.0,0.0,0.0,0.0,0.0,0.0,0.0,0.0,0.0,0.0,0.0,0.0,0.0,0.0,0.0,0.0,0.0,0.0,0.0,0.0,0.0,0.0,0.0,0.0,0.0,0.0,0.0,0.0,0.0,0.0,0.0,0.0,0.0,0.0,0.0,0.0,0.0,0.0,0.0,0.0,0.0,0.0,0.0,0.0,0.0,0.0,0.0,0.0,0.0,0.0,0.0,0.0,0.0,0.0,0.0,0.0,0.0,0.0,0.0,0.0,0.0,0.0,0.0,0.0,0.0,0.0,0.0,0.0,0.0,0.0,0.0,0.0,0.0,0.0,0.0,0.0,0.0,0.0,0.0,0.0,0.0,0.0,0.0,0.0,0.0,0.0,0.0,0.0,0.0,0.0,0.0,0.0,0.0,0.0,0.0,0.0,0.0,0.0,0.0,0.0,0.0,0.0,0.0,0.0,0.0,0.0,0.0,0.0,0.0,0.0,0.0,0.0,0.0,0.0,0.0,0.0,0.0,0.0,0.0,0.0,0.0,0.0,0.0,0.0,0.0,0.0,0.0,0.0,0.0,0.0,0.0,0.0,0.0,0.0,0.0,0.0,0.0,0.0,0.0,0.0,0.0,0.0,0.0,0.0,0.0,0.0,0.0,0.0,0.0,0.0,0.0,0.0,0.0,0.0,0.0,0.0,0.0,0.0,0.0,0.0,0.0,0.0,0.0,0.0,0.0,0.0,0.0,0.0,0.0,0.0,0.0,0.0,0.0,0.0,0.0,0.0,0.0,0.0,0.0,0.0,0.0,0.0,0.0,0.0,0.0,0.0,0.0,0.0,0.0,0.0,0.0,0.0,0.0,0.0,0.0,0.0,0.0,0.0,0.0,0.0,0.0,0.0,0.0,0.0,0.0,0.0,0.0,0.0,0.0,0.0,0.0,0.0,0.0,0.0,0.0,0.0,0.0,0.0,0.0,0.0,0.0,0.0,0.0,0.0,0.0,0.0,0.0,0.0,0.0,0.0,0.0,0.0,0.0,0.0,0.0,0.0,0.0,0.0,0.0,0.0,0.0,0.0,0.0,0.0,0.0,0.0,0.0,0.0,0.0,0.0,0.0,0.0,0.0,0.0,0.0,0.0,0.0,0.0,0.0,0.0,0.0,0.0,0.0,0.0,0.0,0.0,0.0,0.0,0.0,0.0,0.0,0.0,0.0,0.0,0.0,0.0,0.0,0.0,0.0,0.0,0.0,0.0,0.0,0.0,0.0,0.0,0.0,0.0,0.0,0.0,0.0,0.0,0.0,0.0,0.0,0.0,0.0,0.0,0.0,0.0,0.0,0.0,0.0,0.0,0.0,0.0,0.0,0.0,0.0,0.0,0.0,0.0,0.0,0.0,0.0,0.0,0.0,0.0,0.0,0.0,0.0,0.0,0.0,0.0,0.0,0.0,0.0,0.0,0.0,0.0,0.0,0.0,0.0,0.0,0.0,0.0,0.0,0.0,0.0,0.0,0.0,0.0,0.0,0.0,0.0,0.0,0.0,0.0,0.0,0.0,0.0,0.0,0.0,0.0,0.0,0.0,0.0,0.0,0.0,0.0,0.0,0.0,0.0,0.0,0.0,0.0,0.0,0.0,0.0,0.0,0.0,0.0,0.0,0.0,0.0,0.0,0.0,0.0,0.0,0.0,0.0,0.0,0.0,0.0,0.0,0.0,0.0,0.0,0.0,0.0,0.0,0.0,0.0,0.0,0.0,0.0,0.0,0.0,0.0,0.0,0.0,0.0,0.0,0.0,0.0,0.0,0.0,0.0,0.0,0.0,0.0,0.0,0.0,0.0,0.0,0.0,0.0,0.0,0.0,0.0,0.0,0.0,0.0,0.0,0.0,0.0,0.0,0.0,0.0,0.0,0.0,0.0,0.0,0.0,0.0,0.0,0.0,0.0,0.0,0.0,0.0,0.0,0.0,0.0,0.0,0.0,0.0,0.0,0.0,0.0,0.0,0.0,0.0,0.0,0.0,0.0,0.0,0.0,0.0,0.0,0.0,0.0,0.0,0.0,0.0,0.0,0.0,0.0,0.0,0.0,0.0,0.0,0.0,0.0,0.0,0.0,0.0,0.0,0.0,0.0,0.0,0.0,0.0,0.0,0.0,0.0,0.0,0.0,0.0,0.0,0.0,0.0,0.0,0.0,0.0,0.0,0.0,0.0,0.0,0.0,0.0,0.0,0.0,0.0,0.0,0.0,0.0,0.0,0.0,0.0,0.0,0.0,0.0,0.0,0.0,0.0,0.0,0.0,0.0,0.0,0.0,0.0,0.0,0.0,0.0,0.0,0.0,0.0,0.0,0.0,0.0,0.0,0.0,0.0,0.0,0.0,0.0,0.0,0.0,0.0,0.0,0.0,0.0,0.0,0.0,0.0,0.0,0.0,0.0,0.0,0.0,0.0,0.0,0.0,0.0,0.0,0.0,0.0,0.0,0.0,0.0,0.0,0.0,0.0,0.0,0.0,0.0,0.0,0.0,0.0,0.0,0.0,0.0,0.0,0.0,0.0,0.0,0.0,0.0,0.0,0.0,0.0,0.0,0.0,0.0,0.0,0.0,0.0,0.0,0.0,0.0,0.0,0.0,0.0,0.0,0.0,0.0,0.0,0.0,0.0,0.0,0.0,0.0,0.0,0.0,0.0,0.0,0.0,0.0,0.0,0.0,0.0,0.0,0.0,0.0,0.0,0.0,0.0,0.0,0.0,0.0,0.0,0.0,0.0,0.0,0.0,0.0,0.0,0.0,0.0,0.0,0.0,0.0,0.0,0.0,0.0,0.0,0.0,0.0,0.0,0.0,0.0,0.0,0.0,0.0,0.0,0.0,0.0,0.0,0.0,0.0,0.0,0.0,0.0,0.0,0.0,0.0,0.0,0.0,0.0,0.0,0.0,0.0,0.0,0.0,0.0,0.0,0.0,0.0,0.0,0.0,0.0,0.0,0.0,0.0,0.0,0.0,0.0,0.0,0.0,0.0,0.0,0.0,0.0,0.0,0.0,0.0,0.0,0.0,0.0,0.0,0.0,0.0,0.0,0.0,0.0,0.0,0.0,0.0,0.0,0.0,0.0,0.0,0.0,0.0,0.0,0.0,0.0,0.0,0.0,0.0,0.0,0.0,0.0,0.0,0.0,0.0,0.0,0.0,0.0,0.0,0.0,0.0,0.0,0.0,0.0,0.0,0.0,0.0,0.0,0.0,0.0,0.0,0.0,0.0,0.0,0.0,0.0,0.0,0.0,0.0,0.0,0.0,0.0,0.0,0.0,0.0,0.0,0.0,0.0,0.0,0.0,0.0,0.0,0.0,0.0,0.0,0.0,0.0,0.0,0.0,0.0,0.0,0.0,0.0,0.0,0.0,0.0,0.0,0.0,0.0,0.0,0.0,0.0,0.0,0.0,0.0,0.0,0.0,0.0,0.0,0.0,0.0,0.0,0.0,0.0,0.0,0.0,0.0,0.0,0.0,0.0,0.0,0.0,0.0,0.0,0.0,0.0,0.0,0.0,0.0,0.0,0.0,0.0,0.0,0.0,0.0,0.0,0.0,0.0,0.0,0.0,0.0,0.0,0.0,0.0,0.0,0.0,0.0,0.0,0.0,0.0,0.0,0.0,0.0,0.0,0.0,0.0,0.0,0.0,0.0,0.0,0.0,0.0,0.0,0.0,0.0,0.0,0.0,0.0,0.0,0.0,0.0,0.0,0.0,0.0,0.0,0.0,0.0,0.0,0.0,0.0,0.0,0.0,0.0,0.0,0.0,0.0,0.0,0.0,0.0,0.0,0.0,0.0,0.0,0.0,0.0,0.0,0.0,0.0,0.0,0.0,0.0,0.0,0.0,0.0,0.0,0.0,0.0,0.0,0.0,0.0,0.0,0.0,0.0,0.0,0.0,0.0,0.0,0.0,0.0,0.0,0.0,0.0,0.0,0.0,0.0,0.0,0.0,0.0,0.0,0.0,0.0,0.0,0.0,0.0,0.0,0.0,0.0,0.0,0.0,0.0,0.0,0.0,0.0,0.0,0.0,0.0,0.0,0.0,0.0,0.0,0.0,0.0,0.0,0.0,3.2259,0.0,0.0,0.0,0.0,0.0,0.0,0.0,0.0,0.0,0.0,0.0,0.0,0.0,0.0,0.0,0.0,0.0,0.0,0.0,0.0,0.0,0.0,0.0,0.0,0.0,0.0,0.0,0.0,0.0,0.0,0.0,0.0,0.0,0.0,0.0,0.0,0.0,0.0,0.0,3.2104,3.2473,3.2584,3.5019,3.5845,3.5388,0.0,0.0,0.0,0.0,0.0,0.0,0.0,0.0,0.0,0.0,0.0,0.0,0.0,0.0,0.0,0.0,0.0,0.0,0.0,0.0,0.0,0.0,0.0,0.0,0.0,0.0,0.0,0.0,0.0,0.0,0.0,0.0,0.0,0.0,0.0,0.0,0.0,0.0,0.0,0.0,0.0,0.0,0.0,0.0,0.0,0.0,0.0,0.0,0.0,0.0,0.0,0.0,0.0,0.0,0.0,0.0,0.0,0.0,0.0,0.0,0.0,0.0,0.0,0.0,0.0,0.0,0.0,0.0,0.0,0.0,0.0,3.4185,0.0,0.0,0.0,0.0,0.0,0.0,0.0,0.0,0.0,0.0,0.0,0.0,0.0,0.0,0.0,0.0,0.0,0.0,0.0,0.0,0.0,0.0,0.0,0.0,2.7021,2.7648,2.7121,2.7063,0.0,0.0,0.0,0.0,0.0,0.0,0.0,3.0485,3.1671,3.1981,3.2266,3.3229,3.4863,3.6072,3.5522,3.3502,3.5096,0.0,0.0,0.0,0.0,0.0,0.0,0.0,0.0,0.0,0.0,0.0,0.0,0.0,0.0,0.0,0.0,0.0,0.0,0.0,0.0,0.0,0.0,0.0,0.0,0.0,0.0,0.0,0.0,0.0,0.0,0.0,0.0,0.0,0.0,0.0,0.0,0.0,0.0,0.0,0.0,0.0,0.0,0.0,0.0,0.0,0.0,0.0,0.0,0.0,0.0,0.0,0.0,0.0,0.0,0.0,0.0,0.0,0.0,0.0,0.0,0.0,0.0,0.0,4.175,4.2325,4.273,4.21,4.1548,4.0966,3.8686,3.6428,3.4442,3.5264,0.0,0.0,0.0,0.0,0.0,0.0,0.0,0.0,0.0,0.0,0.0,0.0,0.0,0.0,0.0,0.0,0.0,0.0,0.0,0.0,0.0,2.7026,2.7173,2.727,2.7205,2.7173,0.0,0.0,0.0,0.0,0.0,0.0,2.934,3.0769,3.0997,2.9981,3.1102,3.2929,3.5404,3.6174,3.6622,3.6753,3.6689,3.7178,3.7932,0.0,0.0,0.0,0.0,0.0,0.0,0.0,0.0,0.0,0.0,0.0,0.0,0.0,0.0,0.0,0.0,0.0,0.0,0.0,0.0,0.0,0.0,0.0,0.0,0.0,0.0,0.0,0.0,0.0,0.0,0.0,0.0,0.0,0.0,0.0,0.0,0.0,0.0,0.0,0.0,0.0,3.4071,3.546,0.0,0.0,0.0,0.0,0.0,0.0,0.0,0.0,0.0,0.0,0.0,0.0,0.0,4.0912,4.277,4.3426,4.3512,4.3141,4.3692,4.3705,4.3303,4.3143,4.3335,4.3726,4.2823,0.0,3.8552,3.6984,0.0,0.0,0.0,0.0,0.0,0.0,0.0,0.0,0.0,0.0,0.0,0.0,0.0,0.0,0.0,0.0,0.0,0.0,0.0,0.0,0.0,2.7987,2.8599,2.9373,3.0105,3.022,2.9489,3.0125,0.0,0.0,0.0,2.9381,2.9017,2.9511,2.9726,2.9651,3.2556,3.4349,3.5133,3.6486,3.7271,3.75,3.7293,3.7276,3.7291,3.5385,0.0,0.0,0.0,0.0,0.0,0.0,0.0,0.0,0.0,0.0,0.0,0.0,0.0,0.0,0.0,0.0,0.0,0.0,0.0,0.0,0.0,0.0,0.0,0.0,0.0,0.0,0.0,0.0,0.0,0.0,0.0,0.0,0.0,0.0,0.0,0.0,0.0,0.0,0.0,3.5888,3.7082,3.5728,3.7535,3.859,0.0,0.0,0.0,0.0,0.0,0.0,0.0,0.0,0.0,4.2216,4.2579,4.334,4.4592,4.5575,4.6283,4.6768,4.7332,4.7676,4.7788,4.7736,4.7706,4.7616,4.7317,4.5926,4.3631,4.052,3.8808,3.8043,0.0,0.0,0.0,0.0,3.7823,3.7444,0.0,0.0,0.0,0.0,0.0,0.0,0.0,0.0,0.0,0.0,0.0,0.0,2.8271,2.8912,2.985,3.1391,3.2391,3.2533,3.1579,3.1595,3.0819,2.9031,2.9505,2.9559,2.9,2.9217,2.999,3.1274,3.4698,3.6231,3.6041,3.7781,3.8611,3.8577,3.8361,3.7911,3.7185,3.5644,3.4817,3.4472,0.0,0.0,0.0,0.0,0.0,0.0,0.0,0.0,0.0,0.0,0.0,0.0,0.0,0.0,0.0,0.0,0.0,0.0,0.0,0.0,0.0,0.0,0.0,0.0,0.0,0.0,0.0,0.0,0.0,0.0,0.0,0.0,0.0,0.0,0.0,0.0,0.0,3.7491,3.8529,3.551,3.8419,3.9817,0.0,0.0,0.0,0.0,0.0,0.0,4.1334,4.2569,4.3746,4.4939,4.5134,4.5707,4.6704,4.7466,4.836,4.932,4.994,5.0432,5.0779,5.0779,5.0427,4.9836,5.0047,4.9235,4.7429,4.3667,4.1199,3.9671,3.8863,3.8324,3.8178,3.9437,3.9562,3.9388,0.0,0.0,0.0,0.0,0.0,0.0,0.0,0.0,0.0,0.0,0.0,2.6443,2.8953,2.944,3.0366,3.2257,3.2481,3.2511,3.2421,3.0742,2.9948,3.0384,3.0446,3.0305,3.0021,3.1265,3.3119,3.5601,3.688,3.8109,3.9295,4.0656,4.1301,4.1273,4.0618,3.9976,3.9224,3.7251,3.6716,3.7088,3.5878,0.0,0.0,0.0,0.0,0.0,0.0,0.0,0.0,0.0,0.0,0.0,0.0,0.0,0.0,0.0,0.0,0.0,0.0,0.0,0.0,0.0,0.0,0.0,0.0,0.0,0.0,0.0,0.0,0.0,0.0,0.0,0.0,0.0,0.0,0.0,0.0,0.0,0.0,3.4718,3.8004,0.0,0.0,0.0,0.0,4.0453,4.2208,4.3252,4.3267,4.4478,4.6346,4.8925,4.8173,4.8616,5.0503,4.9699,4.9336,4.9391,5.0078,5.0161,4.9691,4.9691,4.9387,4.8912,4.9674,4.9569,4.8692,4.5492,4.3718,4.2938,4.185,4.171,4.2293,4.3143,4.3434,4.3402,0.0,0.0,0.0,0.0,0.0,0.0,0.0,0.0,2.5194,2.511,2.5799,2.7129,2.9312,3.0624,3.2388,3.4975,3.5601,3.5632,3.5128,3.4023,3.2916,3.1824,3.1205,3.0829,3.0692,3.2193,3.3691,3.5124,3.6965,3.8308,3.9132,4.0297,4.0867,4.0866,4.1026,4.07,3.9925,3.7527,3.6373,3.606,3.4734,3.4592,0.0,0.0,0.0,0.0,0.0,0.0,0.0,0.0,0.0,0.0,0.0,0.0,0.0,0.0,0.0,0.0,0.0,0.0,0.0,0.0,0.0,0.0,0.0,0.0,0.0,0.0,0.0,0.0,0.0,0.0,0.0,0.0,0.0,0.0,0.0,0.0,0.0,4.0816,4.318,0.0,4.1768,4.2077,4.2762,4.3559,4.4116,4.5113,4.672,4.7482,4.8849,5.1042,5.1177,5.1766,5.2853,5.2175,5.1835,5.1835,5.1756,5.1592,5.1399,5.1399,5.1069,5.0464,5.043,5.0533,5.0647,4.875,4.7139,4.5714,4.3996,4.3207,4.3045,4.332,4.3434,4.3556,0.0,0.0,0.0,0.0,0.0,0.0,0.0,0.0,2.4599,2.4509,2.5656,2.7468,3.0036,3.1838,3.4015,3.6784,3.7396,3.7321,3.661,3.5178,3.3849,3.277,3.185,3.1508,3.1827,3.3586,3.5025,3.6132,3.7965,3.9145,3.9722,4.045,4.0775,4.0803,4.1183,4.113,4.0585,3.8651,3.7318,3.6415,3.5035,3.5442,3.652,0.0,0.0,0.0,0.0,0.0,0.0,0.0,0.0,0.0,0.0,0.0,0.0,0.0,0.0,0.0,0.0,0.0,0.0,0.0,0.0,0.0,0.0,0.0,0.0,0.0,0.0,0.0,0.0,0.0,0.0,0.0,0.0,0.0,0.0,0.0,4.3356,4.3719,4.5705,4.632,4.4493,4.4551,4.5129,4.6171,4.6712,4.7828,4.9732,5.0519,5.1555,5.3039,5.3193,5.344,5.3846,5.3006,5.2574,5.2574,5.2204,5.191,5.1727,5.154,5.1082,5.0522,5.0486,5.0654,5.09,5.0398,4.9384,4.7981,4.6769,4.6031,4.5592,4.5403,4.5313,4.5424,0.0,0.0,0.0,0.0,0.0,0.0,0.0,2.4895,2.5064,2.4558,2.5361,2.7392,3.1098,3.3024,3.5048,3.7521,3.7545,3.7196,3.6728,3.379,3.236,3.3016,3.2336,3.247,3.3599,3.5477,3.7286,3.8994,4.0049,4.0826,4.1352,4.1378,4.1378,4.1378,4.1378,4.1352,4.1306,4.0691,3.9731,3.848,3.7063,3.7648,3.9068,0.0,0.0,0.0,0.0,0.0,0.0,0.0,0.0,0.0,0.0,0.0,0.0,0.0,0.0,0.0,0.0,0.0,0.0,0.0,0.0,0.0,0.0,0.0,0.0,0.0,0.0,0.0,0.0,0.0,0.0,0.0,0.0,0.0,3.9458,4.1579,4.3121,4.3009,4.5198,4.6124,4.47,4.6318,4.7702,4.8246,5.0044,5.1439,5.2154,5.3305,5.4238,5.4932,5.4042,5.3565,5.3565,5.2075,5.1297,5.1297,5.1331,5.0996,5.0386,4.9891,4.9339,4.8913,4.9771,4.9834,4.9314,5.0229,5.0243,4.9718,5.0019,5.0163,5.012,4.9463,4.9246,4.9172,0.0,0.0,0.0,0.0,0.0,0.0,0.0,2.4118,2.4005,2.4246,2.6175,2.8507,3.1132,3.3615,3.6025,3.836,3.6582,3.5627,3.6275,3.3086,3.1488,3.2206,3.286,3.4137,3.6149,3.7104,3.8793,4.1281,4.1582,4.2009,4.2534,4.2936,4.3112,4.3112,4.271,4.2534,4.2462,4.1473,4.0893,4.038,3.7709,3.7188,3.78,0.0,0.0,0.0,0.0,0.0,0.0,0.0,0.0,0.0,0.0,0.0,0.0,0.0,0.0,0.0,0.0,0.0,0.0,0.0,0.0,0.0,0.0,0.0,0.0,0.0,0.0,0.0,0.0,0.0,0.0,0.0,0.0,4.2004,4.3675,4.5607,4.7535,4.931,5.0569,5.1117,5.0732,5.1171,5.1747,5.2349,5.2265,5.2673,5.3777,5.3055,5.2869,5.3469,5.3239,5.308,5.308,5.2287,5.1875,5.1875,5.1473,5.1197,5.1046,5.0896,5.0494,4.9974,4.9818,5.0049,5.0469,5.0366,5.081,5.1401,4.9302,4.912,4.9856,4.813,4.7865,4.8333,0.0,0.0,0.0,0.0,0.0,0.0,0.0,2.3506,2.3572,2.4122,2.6667,2.9277,3.1486,3.4223,3.6413,3.7751,3.6009,3.4827,3.4797,3.2795,3.1862,3.2389,3.4199,3.6123,3.819,3.9446,4.1103,4.3215,4.3467,4.3869,4.4367,4.4468,4.4618,4.4819,4.4016,4.379,4.3994,4.2836,4.2238,4.1854,3.9571,3.9006,3.9339,3.6844,3.6873,3.8016,3.6827,3.6796,3.7271,3.6699,0.0,0.0,0.0,0.0,0.0,0.0,0.0,0.0,0.0,0.0,0.0,0.0,0.0,0.0,0.0,0.0,0.0,0.0,0.0,0.0,0.0,0.0,0.0,0.0,4.269,4.5047,4.8028,4.8498,4.9238,5.1148,5.2161,5.2663,5.2663,5.2875,5.3165,5.3509,5.3043,5.3148,5.4118,5.3072,5.2804,5.3582,5.3381,5.3256,5.3256,5.2929,5.2678,5.2452,5.2126,5.1975,5.1975,5.1724,5.1448,5.1096,5.0544,5.0643,5.1065,5.0529,5.0772,0.0,0.0,0.0,0.0,0.0,4.8128,4.8286,0.0,0.0,0.0,0.0,0.0,0.0,0.0,2.311,2.36,2.4218,2.6987,2.971,3.1792,3.4547,3.623,3.6281,3.5528,3.4429,3.2921,3.2817,3.309,3.3636,3.618,3.8391,4.0124,4.221,4.384,4.4966,4.5447,4.5974,4.6577,4.6024,4.6024,4.6451,4.5342,4.5196,4.5598,4.4468,4.3664,4.309,4.2005,4.1904,4.2027,3.8989,3.8918,4.021,3.8437,3.7235,3.6563,3.6747,0.0,0.0,0.0,0.0,0.0,0.0,0.0,0.0,0.0,0.0,0.0,0.0,0.0,0.0,0.0,0.0,0.0,0.0,0.0,0.0,0.0,0.0,0.0,0.0,4.5943,4.8532,5.2062,5.0818,4.9866,5.077,5.1825,5.2452,5.2377,5.2929,5.3246,5.3171,5.3171,5.3432,5.3959,0.0,0.0,0.0,0.0,5.3884,5.3884,5.3833,5.3557,5.3071,5.302,5.297,5.297,5.2418,5.2176,5.2076,5.1599,5.1381,5.128,5.072,5.0519,5.0587,5.1118,5.1221,5.0887,4.9993,4.931,4.8762,0.0,0.0,0.0,0.0,0.0,0.0,0.0,2.311,2.3751,2.4709,2.7204,2.9408,3.0763,3.3373,3.5205,3.5656,3.435,3.3368,3.306,3.3035,3.4243,3.6935,3.8868,4.0852,4.2961,4.4317,4.5748,4.728,4.6948,4.733,4.8316,4.7707,4.7506,4.7581,4.6898,4.6672,4.6722,4.5623,4.4819,4.4242,4.3589,4.2618,4.1372,3.9746,3.9593,4.0118,3.9212,3.9513,4.0177,3.9188,3.9775,4.0564,3.8409,3.7421,0.0,0.0,0.0,0.0,0.0,0.0,0.0,0.0,0.0,0.0,0.0,0.0,0.0,0.0,0.0,0.0,0.0,0.0,0.0,4.6428,4.8517,5.0771,5.3746,5.4134,5.4034,5.3818,5.4361,5.4587,5.417,5.4988,5.539,5.4938,5.4913,5.5164,5.5691,5.5214,5.5214,5.5867,5.534,5.5064,5.5064,5.4647,5.4371,5.427,0.0,0.0,5.3532,5.297,5.2528,5.2101,5.2,5.1699,5.1306,5.1147,5.1122,5.1119,5.1109,5.0058,4.8702,4.9706,4.9669,4.9107,0.0,0.0,0.0,0.0,0.0,0.0,0.0,2.2591,2.3411,2.4831,2.7039,2.8932,3.008,3.2144,3.3348,3.3072,3.2064,3.1808,3.2591,3.3972,3.6232,3.9496,4.1806,4.389,4.5824,4.723,4.836,4.9163,4.9188,4.949,5.0049,4.9439,4.9314,4.9565,4.8736,4.8479,4.8705,4.7883,4.7054,4.625,4.5974,4.5041,4.3616,4.1899,4.1415,4.156,4.1223,4.1061,4.0865,4.0402,4.0356,4.0316,3.9252,3.865,3.8216,0.0,0.0,0.0,0.0,0.0,0.0,0.0,0.0,0.0,0.0,0.0,0.0,0.0,0.0,4.3798,0.0,0.0,4.7318,4.9535,5.1579,5.3582,5.5541,5.6294,5.6344,5.5491,5.5867,5.6118,5.5817,5.657,5.6947,5.6671,5.6369,5.657,5.7399,5.6394,5.6319,5.7424,5.6646,5.6219,5.6219,5.5666,5.5275,5.4999,5.4411,5.4135,5.411,5.3557,5.3155,5.2879,5.2628,5.2352,5.2101,5.2101,5.195,5.1699,5.1604,5.0576,4.9209,4.9726,4.9544,4.8942,0.0,0.0,0.0,0.0,0.0,0.0,0.0,2.2215,2.3206,2.4833,2.6765,2.8359,2.927,3.0682,3.124,3.0507,3.0331,3.1085,3.3043,3.5604,3.8592,4.213,4.4769,4.6828,4.836,4.9841,5.0645,5.0745,5.1096,5.1348,5.1423,5.0845,5.082,5.128,5.0318,5.0167,5.0544,4.9992,4.9238,4.8385,4.8284,4.7707,4.6753,4.4848,4.3869,4.3492,4.3338,4.2108,4.0555,4.1004,4.0213,3.9081,3.9409,3.9785,3.99,3.9017,3.9151,0.0,0.0,0.0,0.0,0.0,0.0,0.0,0.0,0.0,4.3387,4.4784,4.6015,4.697,4.7357,4.9489,5.1678,5.3026,5.4813,5.642,5.7487,5.8077,5.8077,5.7273,5.7437,5.7587,5.7487,5.8127,5.8478,5.8378,5.7926,5.8102,5.9145,5.7801,5.7675,5.9156,5.8064,5.7487,5.7487,5.6872,5.6319,5.5867,5.5351,5.5024,5.4898,5.4285,5.3909,5.3683,5.3121,5.2895,5.2895,5.2895,5.2678,5.2277,5.2277,5.1699,5.0787,5.0167,4.9565,4.9044,0.0,0.0,0.0,0.0,0.0,0.0,0.0,0.0,2.3839,2.5097,2.6646,2.7689,2.7846,2.8693,2.9434,2.9854,3.1135,3.3269,3.6433,3.8316,4.1254,4.5543,4.7456,4.8937,5.0117,5.082,5.1423,5.1925,5.1498,5.1523,5.2,5.1448,5.1255,5.1306,5.118,5.1122,5.1147,5.0569,5.0243,5.0092,4.9615,4.9339,4.9138,4.8441,4.6934,4.5146,4.4618,4.2733,4.0576,4.1109,4.0978,4.0533,4.0343,4.1457,4.2496,4.0638,4.0178,4.0127,3.9361,3.9302,3.981,4.1523,4.2402,4.3712,0.0,0.0,4.8158,4.9031,4.9744,5.0586,5.1966,5.3247,5.4814,5.6908,5.7876,5.873,5.9809,6.001,6.0186,6.0588,6.0236,5.9759,5.9257,6.0186,6.0613,6.0085,5.9946,6.0236,6.0864,6.0236,6.0186,6.0889,5.9809,5.9232,5.9232,5.8227,5.7675,5.76,5.7022,5.6458,5.6018,5.544,5.4662,5.3683,5.3121,5.2895,5.2895,5.2895,5.2845,5.2795,5.2795,5.2719,5.2494,5.1473,5.072,5.0218,0.0,0.0,0.0,0.0,0.0,0.0,0.0,0.0,0.0,2.5083,2.6351,2.6947,2.6638,2.6815,2.7218,2.7832,2.9955,3.267,3.5983,3.8969,4.2607,4.7054,4.8837,5.0243,5.1373,5.195,5.2352,5.2578,5.2352,5.2352,5.2544,5.2352,5.2226,5.2226,5.2226,5.2226,5.2226,5.1941,5.1665,5.1373,5.1147,5.087,5.0469,4.959,4.7883,4.5849,4.4916,4.3034,0.0,4.0876,4.0513,4.0282,4.0903,4.1405,4.17,4.1547,4.1612,4.1762,4.2167,4.2831,0.0,0.0,4.6086,4.7594,5.022,5.058,5.0929,5.2828,5.3722,5.4556,5.6075,5.6937,5.7851,0.0,5.9784,6.0311,6.0763,6.109,6.1014,6.0286,6.0839,6.1215,6.0989,6.1391,6.1692,6.1728,6.1492,6.1542,6.2119,6.1291,6.109,6.1642,6.0889,6.0487,6.0487,5.9382,5.883,5.8805,5.7951,5.7424,5.7173,5.6269,5.5064,5.3683,5.3457,5.3206,5.2895,5.2895,5.2895,5.2895,5.2895,5.2895,5.2795,5.2051,5.1599,5.1297,0.0,0.0,0.0,0.0,0.0,0.0,0.0,0.0,0.0,0.0,2.6423,2.6981,2.6527,2.6155,2.6103,2.6519,2.8754,3.1617,3.5031,3.9044,4.3285,4.7707,4.9665,5.1247,5.2528,5.277,5.297,5.3096,5.297,5.2895,5.2895,5.2895,5.2895,5.2895,5.2895,5.2895,5.2895,5.2895,5.2669,5.2327,5.2327,5.19,5.1155,4.9665,4.7682,4.5497,4.4518,4.2431,4.0098,3.9722,3.922,3.9045,4.0412,4.0945,4.1322,4.2351,4.2852,4.3328,4.451,0.0,0.0,4.8138,4.9865,5.1653,5.2909,5.3345,5.4044,5.6055,5.6974,5.7785,5.9147,5.9834,6.0362,6.0874,6.1366,6.1642,6.1642,6.1592,6.109,5.9859,6.0412,6.0989,6.1291,6.1743,6.2245,6.2756,6.2446,6.2395,6.2756,6.2069,6.1818,6.222,6.1692,6.1416,6.1416,6.0437,5.9885,5.9709,5.893,5.8403,5.8077,5.6796,5.5541,5.4361,5.3909,5.3482,5.3096,5.2945,5.2895,5.2895,5.2895,5.2895,5.2845,5.2477,5.2226,5.1975,0.0,0.0,0.0,0.0,0.0,0.0,0.0,0.0,0.0,0.0,0.0,0.0,0.0,2.7283,2.6817,2.6705,2.8074,3.0593,3.4477,3.8868,4.3285,4.7707,5.0067,5.2,5.3607,5.3146,5.3146,5.3683,5.3146,5.2895,5.2895,5.2895,5.2895,5.2895,5.2895,5.2895,5.2895,5.2895,5.2895,5.287,5.287,5.2251,5.1046,4.8812,4.625,4.379,4.3266,4.0602,3.7336,3.7311,3.6934,3.677,3.8387,4.0502,4.2551,4.3111,4.3746,4.4525,4.5882,4.7219,4.872,5.0708,5.3572,5.583,5.5558,5.691,5.8261,5.8554,5.9057,5.9786,6.0889,6.1567,6.2119,6.2631,6.2731,6.2731,6.2731,6.1351,6.0322,6.0272,5.8956,5.8428,0.0,6.104,6.2245,6.2756,6.2781,6.2781,6.2781,6.2756,6.2756,6.2756,6.227,6.1994,6.1994,6.1416,6.0839,6.0286,6.0261,5.967,5.8591,5.6972,5.6194,5.6043,5.4411,5.3683,5.3632,5.3096,5.2895,5.2895,5.2895,5.2895,5.2895,5.287,5.2578,5.2101,0.0,0.0,0.0,0.0,0.0,0.0,0.0,0.0,0.0,0.0,0.0,0.0,0.0,0.0,0.0,0.0,2.7709,2.988,3.3395,3.7789,4.1882,4.5543,4.8937,5.1147,5.2076,5.2653,5.297,5.3181,5.297,5.2895,5.2895,5.2895,5.2895,5.2895,5.2895,5.2895,5.2895,5.2895,5.2895,5.282,5.2126,5.1599,5.0946,4.7983,4.4865,4.1879,0.0,3.7814,3.6125,3.6476,3.6489,3.659,3.8233,3.931,4.0365,4.2267,4.448,4.6602,4.8003,5.0865,5.378,5.491,5.6714,5.8535,5.9639,5.9787,5.9769,6.0278,5.9885,5.9608,5.9985,6.0211,6.0512,6.1025,6.2054,6.2781,6.2781,6.2672,6.1126,5.7179,5.8334,0.0,0.0,0.0,0.0,6.2048,6.0892,6.0874,6.2716,6.2781,6.2781,6.2781,6.2606,6.2546,6.2546,6.1994,6.1642,6.1441,6.0688,5.9759,5.8641,5.775,5.6922,5.6168,5.5214,5.4386,5.3683,5.3507,5.3231,5.2895,5.2895,5.2895,5.2895,5.2895,5.277,5.2569,0.0,0.0,0.0,0.0,0.0,0.0,0.0,0.0,0.0,0.0,0.0,0.0,0.0,0.0,0.0,0.0,0.0,2.9103,3.1754,3.5504,3.9094,4.2434,4.5347,4.7431,4.8586,4.8736,4.9131,4.9934,4.9934,5.0235,5.0837,5.1214,5.1548,5.1749,5.1916,5.2151,5.2327,5.2092,5.18,5.1322,5.0017,4.8912,4.7713,4.4543,4.1693,0.0,3.6794,3.5737,3.5436,3.5404,3.5764,3.6515,3.82,3.9654,4.1169,4.3571,4.6057,4.8646,5.1418,5.4262,5.6832,5.8217,5.9757,6.1115,6.212,6.1894,6.1391,6.0964,5.9985,5.8956,5.8177,5.7549,5.76,5.8892,5.9846,6.0889,6.2069,6.1371,5.9761,5.714,5.674,5.6203,0.0,0.0,0.0,6.1642,6.0662,6.039,6.1466,6.1556,6.1159,6.0344,6.1118,6.1556,6.1556,6.2039,6.2094,6.1692,6.0763,5.9859,5.8981,5.8428,5.77,5.6771,5.6018,5.5039,5.3984,5.3783,5.3381,5.2895,5.2895,5.2895,5.2826,5.2119,5.1851,5.1906,0.0,0.0,0.0,0.0,0.0,0.0,0.0,0.0,0.0,0.0,0.0,0.0,0.0,0.0,0.0,0.0,0.0,0.0,2.9611,3.229,3.5253,3.8492,3.9798,4.1455,4.3539,4.208,4.2331,4.4414,4.4414,4.5242,4.6823,4.7908,4.8686,4.9238,4.9741,5.0268,5.077,5.0193,4.9339,4.8291,4.6627,4.4392,4.1758,3.8969,3.7147,3.5848,3.4249,3.4391,3.5157,3.4272,3.5095,3.6781,3.8531,4.1507,4.4732,4.6851,4.8481,5.0719,5.5764,5.7324,5.8124,6.0612,6.2469,6.3558,6.2962,6.3199,6.2847,6.0563,5.9131,5.7662,0.0,0.0,5.3748,5.6483,5.6659,5.765,6.0889,5.81,5.6772,0.0,0.0,0.0,0.0,0.0,0.0,6.1222,0.0,6.0883,5.9222,5.9161,5.8119,5.5966,5.8119,5.9307,5.9307,6.1639,6.2295,6.1215,6.0638,6.006,5.9508,5.8981,5.8428,5.7851,5.6721,5.5616,5.4597,5.3984,5.3432,5.292,5.2895,5.2861,5.2525,5.0681,4.9926,5.0127,0.0,0.0,0.0,0.0,0.0,0.0,0.0,0.0,0.0,0.0,0.0,0.0,0.0,0.0,0.0,0.0,0.0,0.0,2.8479,3.111,3.3395,3.5102,3.8216,4.0174,4.0727,4.1102,4.1578,4.2155,4.2155,4.2381,4.2808,4.3084,4.3539,4.407,4.3765,4.3966,4.4472,4.389,4.346,4.3109,4.1882,4.0953,4.01,3.7713,3.6274,3.5367,3.4138,3.4271,3.5242,3.6391,3.8879,4.1626,4.2583,4.373,4.5399,4.859,5.0995,5.3364,5.6908,5.9908,6.2194,6.2871,6.3387,6.3671,6.3523,6.1969,5.9935,5.7725,5.5064,5.2512,0.0,0.0,0.0,5.544,5.8453,0.0,6.3366,6.154,0.0,5.6433,0.0,5.348,5.1846,5.2737,0.0,0.0,5.6871,5.6567,5.718,5.6928,5.6486,5.5922,5.8119,5.9307,5.9307,6.1639,6.243,6.1793,6.124,6.0663,6.0085,5.9156,5.8428,5.7851,5.7148,5.6194,5.5139,5.4622,5.4009,5.3457,5.3046,5.199,5.0681,5.0198,4.9045,4.7854,0.0,0.0,0.0,0.0,0.0,0.0,0.0,0.0,0.0,0.0,0.0,0.0,0.0,0.0,0.0,0.0,0.0,0.0,0.0,2.9428,3.0989,3.239,3.4324,3.5454,3.5705,3.6081,3.6485,3.6961,3.7438,3.8065,3.8793,3.927,3.9798,4.0351,4.0275,4.0551,4.108,4.0475,3.9973,0.0,0.0,3.7325,3.6859,3.5139,3.46,3.4656,3.4049,3.5553,3.8161,4.0343,4.287,4.5248,4.6211,4.747,4.9206,5.2408,5.4439,5.6405,5.9938,6.2444,6.4119,6.4327,6.4379,6.3877,6.1943,6.0111,5.76,5.3432,5.0921,0.0,4.5904,4.7682,5.0444,0.0,0.0,0.0,6.1924,6.0429,5.8289,0.0,5.4034,0.0,5.1773,5.2748,5.3593,0.0,5.4566,5.5067,5.5237,5.5018,5.4824,5.4628,5.602,5.7681,5.9578,6.1721,6.2546,6.1994,6.1692,6.1115,6.0272,5.9709,5.8855,5.7876,0.0,5.6646,5.5365,5.5099,5.4063,5.2626,5.2147,5.077,4.8842,4.7813,4.6698,4.5611,0.0,0.0,0.0,0.0,0.0,0.0,0.0,0.0,0.0,0.0,0.0,0.0,0.0,0.0,0.0,0.0,0.0,0.0,0.0,0.0,2.8725,3.0086,2.9854,2.9905,3.0362,2.993,3.0181,3.1205,3.2185,3.337,3.4756,3.5755,3.6483,3.7036,3.7512,3.7989,3.8442,3.7914,3.7135,3.6105,3.476,3.3896,3.3278,0.0,3.2882,3.4041,3.4334,3.7322,4.1575,4.451,4.6537,4.8138,4.9771,5.1829,5.4171,5.6891,5.8088,5.9388,6.3493,6.4715,6.4949,6.5308,6.5183,6.3827,5.9483,5.7625,5.4988,4.8586,0.0,4.5192,4.2185,4.4066,4.728,5.0896,0.0,5.6838,5.9361,5.7439,5.6066,5.6818,5.274,5.0741,5.3065,5.281,5.2055,5.0964,5.3443,5.453,5.3285,5.3172,5.3149,5.3051,5.3303,5.5369,5.9492,6.1095,6.1647,6.1218,6.1103,6.0509,5.9519,5.9445,5.8578,5.7118,5.7118,0.0,5.4743,5.4693,5.3254,5.1077,5.0631,4.9213,4.7125,4.5056,4.4095,4.3639,0.0,0.0,0.0,0.0,0.0,0.0,0.0,0.0,0.0,0.0,2.4933,2.4903,0.0,0.0,0.0,0.0,0.0,0.0,0.0,0.0,0.0,2.7889,2.8631,2.9107,2.9208,2.9107,2.9383,3.008,3.0276,3.0527,3.0783,3.0984,3.1361,3.1867,3.1537,3.1687,3.2144,3.1612,3.126,3.1115,3.161,3.1734,3.1709,3.2282,0.0,0.0,3.6119,3.8072,4.0431,4.4949,4.8329,5.1121,5.3998,5.5119,5.6014,5.9298,6.0458,6.1334,6.4332,6.584,6.6481,6.6061,6.4605,6.2179,5.819,5.4059,0.0,0.0,4.2308,4.0526,3.8994,4.2108,4.6572,5.1766,5.3815,5.651,6.1692,5.8294,5.543,0.0,5.3443,5.1669,0.0,0.0,0.0,0.0,5.1527,5.1534,5.1313,5.0996,5.1611,5.342,5.2908,5.4069,5.708,5.7083,5.7045,5.6954,5.6433,5.5931,5.5401,5.4989,5.4148,5.3119,5.3119,0.0,5.1412,5.0939,5.0291,4.9426,4.893,4.7525,4.5743,4.5331,4.4103,4.2605,0.0,0.0,0.0,0.0,0.0,0.0,0.0,0.0,2.4256,2.6729,2.6525,2.6153,2.6123,2.6363,0.0,0.0,0.0,0.0,0.0,0.0,0.0,0.0,2.8204,2.848,2.848,2.8756,2.9057,2.9333,0.0,2.9804,2.9804,2.9804,2.993,3.0181,2.9905,2.993,3.0181,2.9905,3.0062,3.0564,3.1026,3.1792,3.27,0.0,0.0,0.0,3.6535,3.8257,4.048,4.3596,4.7281,5.1356,5.5551,5.7672,5.9078,6.1608,6.2824,6.3852,6.6338,6.7643,6.807,6.7216,6.468,6.0939,5.5315,0.0,0.0,0.0,3.8944,3.804,3.6911,4.08,4.5051,4.7685,5.0124,5.287,5.6471,5.4512,5.3049,5.3798,5.3034,5.2324,0.0,5.1719,5.1562,5.1758,5.1367,5.1133,5.1133,5.1903,5.2303,5.2162,5.3705,5.4602,5.4685,5.5512,5.5879,5.5879,5.5567,5.5165,5.4673,5.4449,5.3625,5.2399,5.2399,0.0,5.0925,5.0679,4.9782,4.8525,4.805,4.6484,4.4482,4.428,4.344,4.2362,0.0,0.0,0.0,0.0,0.0,0.0,0.0,2.4764,2.5398,2.8271,2.8175,2.7602,2.7093,2.6422,2.6179,0.0,0.0,0.0,0.0,0.0,0.0,0.0,0.0,0.0,0.0,0.0,0.0,0.0,2.9503,0.0,0.0,0.0,0.0,0.0,2.9804,2.9914,3.0101,3.0101,3.0639,0.0,0.0,3.2664,0.0,0.0,0.0,0.0,0.0,3.7934,4.0248,4.1696,4.4914,4.9153,5.4006,5.7969,6.1111,6.2522,6.4254,6.6086,6.8095,6.91,6.93,6.797,6.4429,5.9433,5.2352,4.7456,0.0,3.706,3.6205,3.6282,3.5608,3.937,4.2964,4.4225,4.635,4.8789,5.1615,5.1152,5.0993,0.0,5.2734,0.0,5.2851,5.2461,0.0,5.2226,5.1816,5.1523,5.1397,5.2755,5.2701,5.0849,5.3541,5.4122,5.2259,5.3673,5.4389,5.4389,5.4345,5.404,5.3517,5.3517,5.2843,5.1606,5.1497,0.0,0.0,5.0126,4.9057,4.7402,4.7093,4.5673,4.3808,4.3476,4.3086,4.2695,0.0,0.0,0.0,0.0,0.0,0.0,0.0,2.4348,2.5763,2.9059,2.8916,2.8487,2.8427,2.7812,2.744,0.0,0.0,0.0,0.0,0.0,0.0,0.0,0.0,0.0,0.0,0.0,0.0,0.0,0.0,0.0,0.0,0.0,0.0,0.0,0.0,3.0266,3.1082,3.1082,0.0,0.0,0.0,0.0,0.0,0.0,0.0,0.0,0.0,3.6872,3.8318,4.003,4.1599,4.3517,4.7551,5.38,5.979,6.0426,6.3576,0.0,6.8296,6.9376,6.9722,6.7568,6.3014,5.726,5.0552,0.0,3.9672,3.5077,3.4173,3.4474,3.5332,3.7162,4.0348,4.5885,4.5061,4.6175,5.3196,5.1887,5.099,5.3019,0.0,0.0,5.339,5.291,0.0,5.2656,5.2266,5.1855,5.1397,5.1208,5.1021,5.0801,5.0385,5.0052,4.9839,4.9664,4.9518,4.9518,4.9518,4.9281,4.8819,4.8819,4.8542,4.8048,4.7632,0.0,0.0,4.6346,4.5822,4.5255,4.5258,4.4876,4.4336,4.4297,4.3984,4.3535,0.0,0.0,0.0,0.0,0.0,0.0,2.4189,2.4888,2.6261,2.9219,2.9684,2.9594,2.9249,2.859,2.7709,0.0,0.0,0.0,0.0,0.0,0.0,0.0,0.0,0.0,0.0,0.0,0.0,2.9918,0.0,0.0,0.0,0.0,0.0,0.0,0.0,0.0,3.2037,3.2037,0.0,0.0,0.0,0.0,0.0,0.0,0.0,0.0,0.0,0.0,3.7326,3.7063,3.84,4.0262,4.0808,4.6075,5.2995,5.7926,6.1542,6.4655,6.7769,6.9175,6.9325,6.7442,6.2044,5.5717,5.01,0.0,3.8442,3.4675,3.3897,3.4148,3.4879,3.6108,3.7715,3.9778,3.9091,3.9877,4.4315,4.438,4.5644,5.0164,5.1719,0.0,0.0,0.0,5.3183,5.2383,5.2187,5.1894,5.1416,5.1269,5.1074,5.082,5.0234,4.9785,4.9484,4.9082,4.8913,4.8913,4.8913,4.8815,4.8594,4.8594,4.8359,4.793,4.75,0.0,0.0,4.623,4.5957,4.5801,4.5801,4.5371,4.4766,4.4766,4.4316,4.3691,0.0,0.0,0.0,0.0,0.0,2.2345,2.4315,2.5164,2.6482,2.8979,2.9847,2.9983,2.9368,2.8338,2.7128,2.5722,0.0,0.0,0.0,0.0,0.0,0.0,0.0,0.0,0.0,0.0,0.0,3.0063,2.9838,0.0,0.0,0.0,0.0,0.0,0.0,0.0,0.0,0.0,0.0,0.0,0.0,0.0,0.0,0.0,0.0,0.0,0.0,0.0,0.0,0.0,0.0,3.7286,3.6408,3.9721,4.5497,5.3457,5.8378,6.2119,6.6086,6.8001,6.8528,6.689,6.1065,5.4461,0.0,0.0,3.7537,3.4525,3.3771,3.3872,3.4577,3.5481,3.6113,3.6118,3.5983,3.6786,3.9372,4.0359,4.2695,4.7695,0.0,5.1289,0.0,5.3828,5.3535,5.2363,5.2266,5.2031,5.1416,5.1377,5.123,5.082,5.0391,4.9961,4.9484,4.9082,4.8913,4.8913,4.8913,4.8913,4.8913,4.8913,4.8737,4.8379,4.7949,0.0,0.0,4.666,4.6426,4.6308,4.6308,4.5859,4.5215,4.5215,4.4746,4.4082,0.0,0.0,0.0,0.0,0.0,0.0,0.0,2.4857,2.6321,2.8338,2.9175,2.9338,2.8697,2.6841,2.5633,2.5603,0.0,0.0,0.0,0.0,0.0,0.0,0.0,0.0,0.0,0.0,2.9659,2.8832,3.0663,3.1098,3.0222,3.0885,0.0,0.0,0.0,0.0,0.0,0.0,0.0,0.0,0.0,0.0,0.0,0.0,0.0,0.0,0.0,0.0,0.0,0.0,0.0,0.0,0.0,3.5981,3.814,4.6456,5.3934,6.0136,6.2973,6.5735,6.7417,6.5735,5.9949,5.3441,0.0,4.2359,3.6607,3.4349,3.3492,3.342,3.4502,3.5132,3.5933,3.7259,3.7582,3.8789,4.1916,4.2776,4.4023,0.0,0.0,4.8926,5.0683,5.2773,5.3672,5.2773,5.2695,0.0,5.1436,5.1377,5.123,5.082,5.0391,4.9961,4.9484,4.9082,4.8913,4.8913,4.8913,4.8913,4.8913,4.8913,4.8913,0.0,0.0,0.0,0.0,4.7109,4.668,4.6308,4.6308,4.6035,4.5664,4.5664,4.5391,4.4961,0.0,0.0,0.0,0.0,0.0,0.0,0.0,2.4193,2.5322,2.6422,2.7542,2.7974,2.7303,2.6273,2.5423,2.4963,0.0,0.0,0.0,0.0,0.0,0.0,0.0,0.0,0.0,0.0,2.9463,3.0644,3.0937,3.1431,3.2212,3.2835,3.2891,3.2543,0.0,0.0,0.0,0.0,0.0,0.0,0.0,0.0,0.0,0.0,0.0,0.0,0.0,0.0,0.0,0.0,0.0,0.0,0.0,0.0,0.0,3.9747,4.5949,5.2201,5.5013,5.7499,5.883,5.6796,5.2854,4.851,4.4848,4.0477,3.6482,3.3894,3.3215,3.3316,3.4022,3.4577,3.5281,3.6296,3.682,3.7422,3.8375,4.0653,0.0,4.6152,5.0391,5.3164,0.0,0.0,5.3672,5.2773,5.2715,5.2344,5.1436,5.1377,5.123,5.082,5.0391,4.9961,4.9484,4.9082,4.8913,4.8913,4.8913,4.8913,4.8913,4.8913,4.8913,0.0,0.0,0.0,0.0,4.7109,4.6635,4.6308,4.6308,4.6055,4.5727,4.5727,4.5391,4.4918,0.0,0.0,0.0,0.0,0.0,0.0,0.0,2.3344,2.4107,2.4765,2.5794,2.6405,2.6243,2.5405,2.4795,2.4593,0.0,0.0,0.0,0.0,0.0,0.0,0.0,0.0,0.0,2.7818,2.8813,3.0587,3.132,3.1993,3.2568,3.3813,3.4024,3.3494,3.4497,0.0,0.0,0.0,0.0,0.0,0.0,0.0,3.5639,0.0,0.0,0.0,0.0,0.0,0.0,0.0,0.0,0.0,0.0,0.0,0.0,0.0,3.9722,4.4543,4.8981,5.2,5.3457,5.1875,4.878,0.0,4.2509,3.8944,3.5705,3.3818,3.3241,3.3266,3.3796,3.4327,3.4698,3.4781,3.5508,3.6153,3.6403,0.0,0.0,4.6094,0.0,0.0,0.0,5.3555,5.3476,5.2754,5.2558,5.209,5.123,5.1191,5.0937,5.0332,5.0391,5.0137,4.9484,4.9258,4.907,4.8913,4.8913,4.8913,4.8913,4.8913,4.8913,0.0,0.0,0.0,0.0,4.7109,4.6635,4.6308,4.6308,4.6152,4.5918,4.5918,4.5644,4.5215,0.0,0.0,0.0,0.0,0.0,0.0,0.0,0.0,2.2954,2.3531,2.4186,2.4814,2.5393,2.4358,2.3838,2.4474,0.0,0.0,0.0,0.0,0.0,0.0,0.0,0.0,0.0,2.7493,2.8066,2.9258,3.1977,3.2808,3.1931,3.4122,3.475,3.4023,3.4097,0.0,0.0,0.0,0.0,0.0,0.0,0.0,0.0,0.0,0.0,0.0,0.0,0.0,0.0,0.0,0.0,0.0,0.0,0.0,0.0,0.0,0.0,0.0,0.0,4.8209,5.0167,4.9464,4.6622,4.3435,4.1277,3.7639,0.0,3.3847,3.3366,3.3215,3.3847,3.4327,3.4351,3.3401,3.4279,3.5378,0.0,3.8706,0.0,0.0,4.9512,0.0,5.0898,5.2383,5.3164,5.2695,5.2305,5.1719,5.0859,5.0801,5.041,4.9504,5.0332,5.0351,4.9492,4.9473,4.9277,4.8913,4.8913,4.8913,4.8913,4.8913,4.8894,0.0,0.0,0.0,0.0,4.709,4.6635,4.6308,4.6308,4.6308,4.6289,4.6269,4.6016,4.5605,0.0,0.0,0.0,0.0,0.0,0.0,0.0,0.0,0.0,0.0,2.4186,2.4455,2.4118,2.3789,2.367,0.0,0.0,0.0,0.0,0.0,0.0,0.0,0.0,0.0,0.0,2.8568,2.9678,3.0938,3.3118,3.4327,3.4629,3.6132,3.5967,3.4394,3.4912,3.4996,0.0,0.0,0.0,0.0,0.0,0.0,0.0,0.0,0.0,0.0,3.648,3.5712,0.0,0.0,0.0,0.0,0.0,0.0,0.0,0.0,3.3294,3.4346,3.6433,0.0,4.0701,3.8843,3.8366,3.7864,0.0,3.5155,3.4176,3.2365,0.0,3.2842,3.4251,3.4299,3.4879,0.0,0.0,3.7413,3.8911,0.0,0.0,4.9953,5.2383,5.3242,5.1914,5.2784,5.3097,5.2285,5.2129,5.1719,5.0859,5.0801,5.041,4.9504,5.0039,4.9902,4.907,4.907,4.9011,4.8913,4.8913,4.8913,4.8913,4.8913,4.8718,0.0,0.0,0.0,4.707,4.6973,4.6635,4.6308,4.6308,4.6308,4.6269,4.5937,4.5762,4.5609,0.0,0.0,0.0,0.0,0.0,0.0,0.0,0.0,0.0,0.0,0.0,0.0,0.0,0.0,0.0,0.0,0.0,0.0,0.0,0.0,0.0,0.0,0.0,0.0,2.8051,2.8366,2.9471,3.1321,3.306,3.4371,3.528,3.6441,3.6267,3.4951,3.5027,3.4847,0.0,0.0,0.0,0.0,3.5519,0.0,0.0,0.0,0.0,0.0,3.6119,3.5305,0.0,3.3325,3.2495,3.1788,0.0,0.0,0.0,0.0,3.224,3.2641,3.2441,3.4776,3.6985,3.578,3.573,3.568,3.455,3.3721,3.2842,3.1637,0.0,3.2641,3.4051,3.3758,0.0,0.0,3.6648,0.0,0.0,0.0,4.7812,5.0781,5.2539,5.3203,0.0,5.2793,5.2715,5.1855,5.1601,5.1133,5.0273,5.0215,4.9922,4.9238,4.9453,4.9382,4.8913,4.9062,4.9062,4.8913,4.8913,4.8913,4.8894,4.8698,4.8437,0.0,0.0,0.0,4.687,4.6719,4.6504,4.6308,4.6308,4.6191,4.5996,4.5762,4.5472,4.5019,0.0,0.0,0.0,0.0,0.0,0.0,0.0,0.0,0.0,0.0,0.0,0.0,0.0,0.0,0.0,0.0,0.0,0.0,0.0,0.0,0.0,0.0,0.0,2.7583,2.8727,2.8115,2.8987,3.1473,3.3048,3.4416,3.5543,3.6704,3.6626,3.5459,3.4787,3.4444,0.0,0.0,0.0,0.0,3.5519,0.0,0.0,0.0,0.0,0.0,0.0,0.0,0.0,3.2826,3.1943,3.126,3.126,0.0,0.0,0.0,0.0,0.0,3.1165,3.3646,3.6257,3.5653,3.5328,3.4979,3.4352,3.2817,3.1486,3.1432,0.0,3.2678,3.3756,3.3424,0.0,0.0,0.0,0.0,4.2857,4.5101,4.7369,5.043,5.1621,0.0,5.2402,5.2539,5.2266,5.1358,5.0996,5.043,4.9523,4.9484,4.9316,4.8913,4.8913,4.8913,4.8913,4.9238,4.9238,4.8913,4.8913,4.8913,4.8894,4.8398,4.8164,4.8066,0.0,0.0,4.6753,4.6445,4.6308,4.6308,4.6308,4.6094,4.5805,4.5625,4.5117,4.4473,0.0,0.0,0.0,0.0,0.0,0.0,0.0,0.0,0.0,0.0,0.0,0.0,0.0,0.0,0.0,0.0,0.0,0.0,0.0,0.0,0.0,0.0,2.8989,2.9187,2.9442,2.9814,3.1024,3.3136,3.5578,3.7126,3.793,3.9792,3.8829,3.5459,3.4787,3.4188,3.3724,0.0,0.0,0.0,0.0,0.0,0.0,0.0,0.0,0.0,0.0,0.0,0.0,3.0625,3.0469,3.0713,3.0713,0.0,0.0,0.0,0.0,0.0,3.2512,3.4522,3.5602,3.2315,3.2491,3.3194,3.2139,3.1989,3.1964,3.1486,3.2236,3.3217,3.403,3.4821,3.5979,0.0,0.0,4.2482,0.0,0.0,4.9011,5.0605,0.0,5.2207,5.1191,5.1758,5.1816,5.0957,5.084,5.043,4.9523,4.9484,4.9316,4.8913,4.8913,4.8913,4.8913,4.8972,4.8972,4.8913,4.8913,4.8913,4.8894,4.8398,4.8008,4.7656,0.0,4.6738,4.6387,4.6328,4.6308,4.6308,4.6308,4.6269,4.6113,4.5391,4.4996,4.4824,0.0,0.0,0.0,0.0,0.0,0.0,0.0,0.0,0.0,0.0,0.0,0.0,0.0,0.0,0.0,0.0,0.0,0.0,0.0,0.0,0.0,3.0474,3.0879,3.112,3.1216,3.1454,3.2916,3.5609,3.7165,3.8631,4.0026,3.9469,3.7704,3.4937,3.4248,3.3979,3.4069,3.4697,0.0,0.0,0.0,0.0,0.0,0.0,0.0,0.0,0.0,0.0,0.0,0.0,2.9955,3.0181,3.0181,0.0,0.0,0.0,0.0,0.0,3.1256,3.2692,3.3771,3.2315,3.412,3.5854,3.4421,3.3822,3.3549,3.3599,0.0,0.0,0.0,0.0,3.7262,4.0221,0.0,4.4037,4.6318,4.7324,4.8476,0.0,0.0,5.1445,5.0859,5.1367,5.1289,5.0195,5.0117,0.0,4.9199,4.916,4.9062,4.8913,4.8913,4.8913,4.8913,4.8913,4.8913,4.8913,4.8913,4.8776,4.8496,4.8066,4.7637,4.7207,0.0,4.6484,4.6308,4.6308,4.6172,4.5996,4.6211,4.5879,4.5195,4.4551,4.416,4.3906,0.0,0.0,0.0,0.0,0.0,0.0,0.0,0.0,0.0,0.0,0.0,0.0,0.0,0.0,0.0,0.0,0.0,0.0,0.0,0.0,3.062,3.1609,3.2131,3.2595,3.3048,3.3306,3.4875,3.7866,3.899,4.0247,4.1583,3.8871,3.6507,3.4474,3.3949,3.3949,3.4248,3.4248,3.4757,0.0,0.0,0.0,0.0,0.0,0.0,0.0,0.0,0.0,0.0,0.0,0.0,0.0,0.0,0.0,0.0,3.0105,3.0281,3.0583,3.0407,3.1562,3.2918,3.3345,3.5527,3.7487,3.7235,3.5827,0.0,0.0,0.0,0.0,0.0,3.7364,0.0,4.2366,4.3926,4.5332,0.0,0.0,0.0,0.0,0.0,5.0918,5.082,5.1094,5.0753,4.9562,0.0,0.0,4.8933,4.8913,4.8913,4.8913,4.8913,4.8855,4.8757,4.8757,4.8757,4.8757,4.8757,4.8476,4.8047,4.7617,4.7246,4.687,4.6484,4.625,4.6152,4.6152,4.5898,4.5566,4.5879,4.5351,4.4336,4.3867,4.3437,4.3066,0.0,0.0,0.0,0.0,0.0,0.0,0.0,0.0,0.0,0.0,0.0,0.0,0.0,0.0,0.0,0.0,0.0,0.0,0.0,0.0,3.0849,3.2282,3.2359,3.3016,3.4312,3.5568,3.7195,3.9272,4.1724,4.2731,4.2261,3.9577,3.6972,3.4503,3.4428,3.4099,3.3574,3.3574,3.4322,3.5459,0.0,0.0,0.0,0.0,0.0,0.0,0.0,0.0,0.0,0.0,0.0,0.0,0.0,0.0,3.0588,3.0538,3.0563,3.0814,3.1788,3.3248,3.4527,3.4577,3.4048,3.4572,3.8542,3.6786,0.0,3.8934,0.0,0.0,0.0,3.8024,4.0799,4.4258,4.623,4.793,4.9687,0.0,0.0,0.0,0.0,5.123,5.084,5.084,5.0488,4.959,0.0,0.0,4.8933,4.8913,4.8913,4.8913,4.8913,4.8718,4.8262,4.8262,4.8262,4.8262,4.8262,4.8027,4.7617,4.7168,4.6909,4.687,4.6484,4.6074,4.5723,4.5723,4.5469,4.5035,4.5055,4.4824,4.4336,4.3867,4.3437,4.3068,0.0,0.0,0.0,0.0,0.0,0.0,0.0,0.0,0.0,0.0,0.0,0.0,0.0,0.0,0.0,0.0,0.0,0.0,0.0,0.0,3.093,3.2289,3.2423,3.2991,3.4155,3.5694,3.787,4.0634,4.1645,4.1793,4.1104,3.8841,3.6836,3.507,3.4248,3.4218,3.4651,3.3425,3.3903,3.5459,3.4757,0.0,0.0,0.0,0.0,0.0,0.0,0.0,0.0,0.0,2.9804,2.9849,3.003,3.0331,3.0538,3.0206,3.0357,3.0633,3.0683,3.2645,3.4778,3.5107,3.5956,3.707,3.8471,3.8929,3.9504,4.0887,4.0584,0.0,0.0,0.0,4.3047,4.543,4.7246,4.8757,4.9648,5.0137,5.0469,5.0644,5.0644,5.0488,5.0058,5.0,4.9766,4.916,0.0,0.0,4.8476,4.8457,4.834,4.8112,4.8112,4.8033,4.7812,4.7812,4.7676,4.7422,4.7695,4.7598,4.7168,4.6967,4.6641,4.6152,4.5976,4.5664,4.5273,4.5273,4.5019,4.4609,4.4316,4.3945,4.3555,4.3379,4.2871,4.2266,0.0,0.0,0.0,0.0,0.0,0.0,0.0,0.0,0.0,0.0,0.0,0.0,0.0,0.0,0.0,0.0,0.0,0.0,3.0784,3.074,3.108,3.1985,3.2307,3.2942,3.3984,3.5494,3.7633,4.0404,4.0694,4.034,3.9287,3.7821,3.6537,3.5459,3.4322,3.4442,3.54,3.3574,3.3724,3.513,3.4667,3.4582,0.0,0.0,0.0,0.0,0.0,0.0,0.0,0.0,2.9804,2.9804,2.9804,3.0055,3.0281,2.9905,3.0055,3.0306,3.0105,3.1943,3.4176,3.5232,3.7463,3.9417,3.9464,4.0707,4.2146,4.321,4.2418,4.1583,4.1778,0.0,0.0,0.0,4.7773,4.9219,4.9668,5.0,5.0176,5.0176,5.0176,5.0,4.957,4.9484,4.9336,4.8933,0.0,0.0,0.0,4.8086,4.7871,4.7598,4.7578,4.7519,4.7383,4.7246,4.6953,4.6543,4.6699,4.6758,4.6674,4.6401,4.6094,4.5664,4.5527,4.5215,4.4824,4.4668,4.4277,4.375,4.3418,4.3125,4.2851,4.2715,4.2305,4.1777,0.0,0.0,0.0,0.0,0.0,0.0,0.0,0.0,0.0,0.0,0.0,0.0,0.0,0.0,0.0,0.0,0.0,0.0,3.0065,3.0858,3.1303,3.1414,3.2052,3.2899,3.3972,3.5159,3.6577,3.8207,3.9126,3.8697,3.6992,3.6682,3.6118,3.5459,3.4817,3.4877,3.5413,3.4053,3.3889,3.4488,3.4503,3.3932,0.0,0.0,0.0,0.0,0.0,0.0,0.0,0.0,2.9804,2.9804,2.9804,2.9804,2.9804,2.9804,2.9804,2.993,3.0437,3.1391,3.2746,3.4956,3.8041,4.0832,4.2059,4.1939,4.2535,4.5983,4.4119,4.209,4.293,0.0,0.0,0.0,4.7832,4.9668,5.0098,5.0176,5.0176,5.0176,5.0176,5.0,4.9523,4.9465,4.9336,0.0,0.0,0.0,0.0,4.7793,4.7558,4.7558,4.7558,4.7344,4.687,4.6504,4.6074,4.5707,4.5234,4.5469,4.6269,4.5367,4.5254,4.5644,4.5215,4.4785,4.4355,4.3887,4.3183,4.2382,4.2382,4.2382,4.2323,4.1953,4.1797,4.1738,0.0,0.0,0.0,0.0,0.0,0.0,0.0,0.0,0.0,0.0,0.0,0.0,0.0,0.0,0.0,0.0,0.0,0.0,3.0784,3.07,3.0848,3.1382,3.2052,3.2492,3.2659,3.4019,3.6013,3.8543,3.8738,3.8282,3.7292,3.6747,3.6118,3.5489,3.528,3.531,3.5413,3.4053,3.4143,3.516,3.4697,3.4198,3.3606,0.0,0.0,0.0,0.0,0.0,0.0,0.0,0.0,0.0,2.9804,3.0583,3.126,3.0131,3.0608,3.1286,3.0306,3.2219,3.4979,3.6786,0.0,0.0,0.0,4.4752,0.0,0.0,4.4951,4.4062,4.4004,0.0,0.0,0.0,0.0,0.0,4.9285,4.9531,4.9609,4.9343,4.9304,4.9246,4.9062,4.8789,4.8535,0.0,0.0,0.0,0.0,4.6758,4.6406,4.5801,4.5781,4.5723,4.5543,4.5469,4.5332,4.5215,4.4785,4.4883,4.5391,4.5094,4.4941,4.4766,4.4648,4.416,4.3437,4.2988,4.248,4.2012,4.2265,4.207,4.1562,4.1738,4.1621,4.1387,0.0,0.0,0.0,0.0,0.0,0.0,0.0,0.0,0.0,0.0,0.0,0.0,0.0,0.0,0.0,0.0,0.0,0.0,0.0,3.0867,3.0913,3.1382,3.2052,3.2643,3.3123,3.4338,3.5806,3.7521,3.7441,3.6935,3.6072,3.6607,3.6507,3.5908,3.6148,3.6118,3.5818,3.4741,3.4592,3.507,3.4967,3.4162,3.2953,0.0,0.0,0.0,0.0,0.0,0.0,0.0,0.0,0.0,2.9804,3.0457,3.111,3.0331,3.0658,3.1286,3.1386,3.3423,3.626,3.9521,4.1972,4.4117,4.6227,0.0,0.0,0.0,4.6191,4.5508,4.543,4.5898,0.0,0.0,0.0,0.0,4.8913,4.9101,4.916,4.8933,4.8757,4.8594,4.8594,4.8203,4.7891,0.0,0.0,0.0,0.0,4.5898,4.5566,4.4996,4.4977,4.4977,4.4977,4.4668,4.4492,4.4492,4.3906,4.375,4.3962,4.4355,4.4355,4.4101,4.3769,4.3223,4.2539,4.2285,4.1933,4.1582,4.1836,4.1621,4.125,4.1465,4.1387,4.1211,0.0,0.0,0.0,0.0,0.0,0.0,0.0,0.0,0.0,0.0,0.0,0.0,0.0,0.0,0.0,0.0,0.0,0.0,0.0,0.0,3.1282,3.1382,3.2111,3.3201,3.4749,3.5559,3.5876,3.568,3.5795,3.5262,3.4189,3.6386,3.7045,3.6434,3.7105,3.7015,3.6374,3.5759,3.513,3.4637,3.525,3.3976,3.1695,3.1761,0.0,0.0,0.0,0.0,0.0,0.0,0.0,0.0,2.9804,2.9854,3.0005,3.0407,3.0281,3.0583,3.3194,3.4803,3.7038,4.2635,4.5036,0.0,4.6978,4.7377,4.7793,4.8581,0.0,4.6641,4.6948,4.6758,4.6641,4.6992,0.0,0.0,0.0,4.8913,4.8894,4.8855,4.8457,4.8183,4.8164,4.7734,4.7305,0.0,0.0,0.0,4.5586,4.5176,4.4899,4.4844,4.4844,4.4824,4.4743,4.3984,4.3594,4.3574,4.2793,4.2382,4.2421,4.3242,4.3594,4.3535,4.2734,4.2148,4.1797,4.1758,4.1523,4.1211,4.1211,4.1211,4.1211,4.1211,4.1211,4.1211,0.0,0.0,0.0,0.0,0.0,0.0,0.0,0.0,0.0,0.0,0.0,0.0,0.0,0.0,0.0,0.0,0.0,0.0,0.0,0.0,3.0783,3.1382,3.2604,3.392,3.5294,3.5522,3.5581,3.5531,3.6539,3.6378,3.5212,3.6705,3.6806,3.5759,3.6896,3.6776,3.5699,3.5579,3.5429,3.531,3.5459,3.4237,3.2327,3.1944,3.0983,0.0,0.0,0.0,0.0,0.0,0.0,0.0,2.9804,3.0382,3.0909,3.0181,3.0783,3.2014,3.3495,3.5655,3.8793,4.4392,4.783,4.9214,4.6646,4.6874,4.7539,4.7383,4.7851,4.8223,4.7969,4.8144,4.8223,4.7969,4.8457,4.8913,0.0,4.8913,4.8776,4.8379,4.8262,4.8086,4.7754,4.7031,4.6543,0.0,0.0,0.0,4.4687,4.459,4.4219,4.3516,4.3496,4.334,4.2948,4.2752,4.2695,0.0,4.2479,4.2382,4.2401,4.2577,4.2695,4.2635,4.2168,4.1894,4.1777,4.1445,4.1289,4.1211,4.1211,4.1211,4.1211,4.1211,4.1211,4.1211,0.0,0.0,0.0,0.0,0.0,0.0,0.0,0.0,0.0,0.0,0.0,0.0,0.0,0.0,0.0,0.0,0.0,0.0,0.0,0.0,3.0686,3.1411,3.2442,3.3664,3.4997,3.5011,3.519,3.5519,3.6178,3.6148,3.5519,3.6789,3.6699,3.5579,3.6836,3.6686,3.5519,3.5519,3.5519,3.5441,3.5001,3.3905,3.2538,3.2,3.1245,3.0531,3.0931,0.0,0.0,0.0,0.0,0.0,0.0,0.0,3.1157,3.0394,3.0959,3.2143,3.3544,3.6013,3.9362,4.4173,0.0,4.8741,4.6259,4.6504,4.7207,4.6928,4.7637,4.8229,4.7949,4.8262,4.8398,4.7969,4.8262,4.8522,4.8327,4.8288,4.8209,4.793,4.7715,4.7422,4.7012,4.6387,4.5742,0.0,0.0,4.4355,4.3496,4.3652,4.3457,4.2793,4.2754,4.2656,4.2382,4.2226,4.2129,4.2129,4.1933,4.1836,4.1836,4.2031,4.2129,4.2109,4.168,4.1504,4.1484,4.1308,4.1211,4.1211,4.1211,4.1211,4.1211,4.1211,4.1211,4.1211,0.0,0.0,0.0,0.0,0.0,0.0,0.0,0.0,0.0,0.0,0.0,0.0,0.0,0.0,0.0,0.0,0.0,0.0,0.0,0.0,0.0,3.1299,3.2093,3.3066,3.4308,3.4444,3.4757,3.534,3.5459,3.5669,3.6028,3.6866,3.6626,3.5549,3.6716,3.658,3.5503,3.5326,3.5231,3.5166,3.4329,3.3446,3.2556,3.2284,3.1879,3.1492,3.2006,3.2371,3.2611,3.2788,0.0,0.0,0.0,0.0,3.0887,3.0542,3.0834,3.1622,3.3243,3.6285,3.9795,4.3245,4.5705,0.0,4.5549,4.582,4.6343,4.6421,4.7012,4.75,4.7578,4.7734,4.7812,4.7617,4.7754,4.7812,4.7617,4.7519,4.7461,4.7461,4.7148,4.6694,4.623,4.5742,4.4961,0.0,0.0,4.3574,4.244,4.2773,4.2773,4.2284,4.2324,4.2245,4.2207,4.1875,4.1699,4.168,4.1387,4.1211,4.123,4.1523,4.1699,4.168,4.1328,4.1211,4.1211,4.1211,4.1211,4.1211,4.1211,4.1211,4.1211,4.1211,4.1211,4.1211,0.0,0.0,0.0,0.0,0.0,0.0,0.0,0.0,0.0,0.0,0.0,0.0,0.0,0.0,0.0,0.0,0.0,0.0,2.8398,0.0,0.0,3.064,3.1824,3.2856,3.362,3.4188,3.4548,3.4637,3.522,3.6357,3.7973,3.7062,3.6207,3.5533,3.6297,3.6207,3.5441,3.456,3.4211,3.4194,3.403,3.3446,3.2682,3.3402,3.317,0.0,0.0,3.3223,3.2717,3.355,3.2717,0.0,0.0,0.0,2.9972,2.9918,3.0281,3.0966,3.2125,3.6742,4.1556,4.272,4.4722,4.5867,0.0,0.0,4.4258,0.0,4.5957,4.7129,4.7519,4.7031,4.6777,4.7461,4.7012,4.6797,4.748,4.7246,4.6967,4.6967,4.6928,4.6621,4.584,4.5039,4.4336,0.0,4.3086,4.2577,4.2401,4.244,4.2324,4.1894,4.1894,4.1699,4.1348,4.1328,4.1289,4.1289,4.125,4.1211,4.1211,4.1269,4.1289,4.1289,4.123,4.1211,4.1211,4.1211,4.1211,4.1211,4.1211,4.1211,4.1211,4.1211,4.1211,4.1211,0.0,0.0,0.0,0.0,0.0,0.0,0.0,0.0,0.0,0.0,0.0,0.0,0.0,0.0,0.0,2.6801,2.8121,2.8791,2.8248,2.9945,3.0688,3.0038,3.1226,3.2243,3.2946,3.3604,3.4128,3.4503,3.516,3.6477,0.0,3.7099,3.7105,3.8195,3.6844,3.606,3.5668,3.3967,3.3209,3.3157,3.2629,3.2486,3.2646,3.3052,0.0,0.0,0.0,0.0,0.0,0.0,3.3922,3.2664,3.2146,0.0,0.0,0.0,2.9985,3.062,3.274,3.4977,3.7469,4.0703,4.2079,4.2693,4.2681,4.3047,4.3418,4.3613,4.4258,4.5058,4.5976,4.6035,4.5996,4.6133,4.6035,4.5996,4.6133,4.5976,4.5816,4.5816,4.5816,4.5625,4.5019,4.4375,4.373,4.3006,4.2596,4.2187,4.1758,4.1953,4.1894,4.1465,4.1445,4.1367,4.1211,4.1211,4.1211,4.1211,4.1211,4.1211,4.1211,4.1211,4.1211,4.1211,4.1211,4.1211,4.1211,4.1211,4.1211,4.1211,4.1211,4.1211,4.1211,4.1211,4.1211,4.1211,0.0,0.0,0.0,0.0,0.0,0.0,0.0,0.0,0.0,0.0,0.0,0.0,0.0,0.0,0.0,0.0,2.829,2.9153,2.8863,3.0303,3.0784,2.9872,3.1076,3.1899,3.2243,3.3245,3.3919,3.4248,3.51,3.6594,3.8659,3.7523,3.84,0.0,3.7605,3.5962,0.0,0.0,0.0,3.2945,3.1955,3.211,0.0,0.0,0.0,0.0,0.0,0.0,0.0,0.0,0.0,0.0,0.0,0.0,0.0,0.0,0.0,2.9498,3.1838,3.2217,3.3027,3.7461,3.8906,3.9648,0.0,0.0,4.2363,0.0,4.2754,4.3086,4.416,4.4629,4.4824,4.4707,4.4883,4.5019,4.4977,4.4899,4.4941,4.5156,4.5,4.4687,4.4258,4.3711,4.3066,4.2284,4.2168,4.1836,4.125,4.1465,4.1504,4.123,4.1211,4.1152,4.1016,4.0937,4.0937,4.1016,4.1016,4.1016,4.1016,4.1016,4.1016,4.1016,4.1016,4.1016,4.0996,4.0898,4.1015,4.1211,4.1093,4.1074,4.1211,4.1211,4.1211,4.1211,0.0,0.0,0.0,0.0,0.0,0.0,0.0,0.0,0.0,0.0,0.0,0.0,0.0,2.901,2.8367,2.6835,2.8755,3.0122,3.0293,3.046,3.0523,3.046,3.1734,0.0,3.157,3.3455,3.4158,3.3544,3.4861,3.6851,3.9423,3.8723,3.9828,4.2219,3.837,3.5821,3.4331,0.0,0.0,0.0,0.0,0.0,0.0,0.0,0.0,0.0,0.0,0.0,0.0,0.0,0.0,0.0,0.0,0.0,0.0,0.0,0.0,0.0,2.7556,2.8747,3.0322,3.2617,3.5332,3.7773,0.0,0.0,4.041,4.1621,4.1875,4.2012,4.244,4.2538,4.2811,4.3652,4.3457,4.3633,4.4801,4.4687,4.4726,4.5547,4.4922,4.4258,4.3789,4.2988,4.2305,4.1875,4.1465,4.125,4.1211,4.123,4.123,4.1211,4.1211,4.0976,4.0566,4.0156,4.0156,4.0566,4.0566,4.0566,4.0566,4.0566,4.0566,4.0566,4.0566,4.0566,4.0527,4.0117,4.0449,4.1172,4.0723,4.0801,4.1211,4.1211,4.1211,4.1211,0.0,0.0,0.0,0.0,0.0,0.0,0.0,0.0,0.0,0.0,0.0,0.0,0.0,2.9871,2.9296,2.8265,2.9364,2.9979,2.9703,3.0568,3.113,3.1202,3.1633,3.2162,3.2772,3.3502,3.3949,3.4128,3.4414,3.5712,3.7863,3.6547,3.6739,3.8157,3.7069,3.602,3.5022,3.3105,0.0,0.0,0.0,0.0,0.0,0.0,0.0,0.0,0.0,0.0,0.0,0.0,0.0,0.0,0.0,0.0,0.0,0.0,0.0,2.5615,2.6502,2.6928,2.7949,3.1504,3.3418,3.4883,3.6738,3.8144,3.9258,3.998,4.0586,4.1113,4.1543,4.207,4.2479,4.2791,4.2754,4.2832,4.326,4.3223,4.3242,4.3555,4.332,4.3066,4.287,4.2363,4.1953,4.1816,4.1406,4.1211,4.1211,4.1211,4.1211,4.1211,4.0898,4.0547,4.0117,3.9961,3.9961,4.0117,4.0117,4.0117,4.0117,4.0117,3.9961,3.9668,3.9668,3.9844,4.0098,3.9961,4.0234,4.0742,4.0586,4.0781,4.1211,4.1211,4.1211,4.1211,0.0,0.0,0.0,0.0,0.0,0.0,0.0,0.0,0.0,0.0,0.0,0.0,0.0,0.0,3.0108,3.0093,3.0128,3.0185,3.0352,3.1466,3.2076,3.1942,3.2529,3.3066,3.3475,3.3728,3.4039,3.4503,3.3955,3.4598,3.6335,3.4901,3.4664,3.5452,3.5705,3.543,0.0,0.0,0.0,3.1725,0.0,0.0,3.4306,0.0,0.0,0.0,0.0,0.0,0.0,0.0,0.0,0.0,0.0,0.0,0.0,0.0,0.0,0.0,2.5188,0.0,2.6367,3.0009,3.1191,3.2207,3.4961,3.6348,3.7418,3.8535,3.9355,4.0059,4.0644,4.1308,4.1796,4.1973,4.2129,4.2266,4.2362,4.2382,4.244,4.2637,4.2383,4.2207,4.2207,4.1836,4.1523,4.1387,4.1113,0.0,4.0781,4.0742,4.0742,4.0742,4.0312,4.0019,3.9902,3.9609,3.9531,3.9668,3.9668,3.9668,3.9668,3.9668,3.9492,3.9199,3.9062,3.9238,3.9648,3.9512,3.9883,4.0469,4.0371,4.0566,4.0976,4.1152,4.1113,4.0976,0.0,0.0,0.0,0.0,0.0,0.0,0.0,0.0,0.0,0.0,0.0,0.0,0.0,0.0,0.0,3.2226,3.1112,3.0923,3.2453,3.3208,3.3306,3.2674,3.4538,3.4942,3.3582,3.4213,3.4503,3.4486,3.3556,3.3744,3.4963,3.4027,3.3995,3.4642,3.4545,3.399,3.3125,0.0,3.3049,3.2855,0.0,3.3097,3.5311,0.0,0.0,0.0,3.8118,3.755,0.0,0.0,0.0,0.0,0.0,0.0,0.0,0.0,0.0,0.0,0.0,0.0,0.0,0.0,0.0,0.0,3.3665,0.0,3.4701,3.7266,3.8144,3.8787,3.9743,4.0252,4.0682,4.1229,4.1563,4.1914,4.2265,4.2323,4.2539,4.3009,4.2266,4.1758,4.1758,4.1387,4.0957,4.0527,4.0469,4.0332,3.9922,3.9883,3.9883,3.9883,3.9434,3.9394,3.9824,3.9041,3.8769,3.916,3.918,3.918,3.918,3.918,3.918,3.916,3.875,3.8809,3.9141,3.875,3.9336,4.0411,4.0039,4.0137,4.0586,4.0996,4.0898,4.0605,0.0,0.0,0.0,0.0,0.0,0.0,0.0,0.0,0.0,0.0,0.0,0.0,0.0,0.0,3.2882,3.3806,3.3051,3.2953,3.3937,3.3653,3.3612,3.3968,3.46,3.4957,3.4947,3.5183,3.4936,3.4135,3.3208,3.2579,3.2284,3.172,3.2131,0.0,3.3727,3.3946,3.3995,3.4291,0.0,0.0,3.4783,3.6227,0.0,0.0,0.0,0.0,0.0,3.6831,0.0,0.0,3.3774,3.2095,0.0,0.0,0.0,0.0,0.0,0.0,2.321,0.0,0.0,0.0,0.0,0.0,0.0,0.0,3.1573,3.4141,3.5254,3.6719,3.9779,4.071,4.1576,4.3356,4.2374,4.1269,4.1074,4.1055,4.1211,4.166,4.0937,4.0547,4.084,4.0488,4.0195,0.0,4.0078,4.0019,3.9902,3.957,3.9394,3.9394,3.8984,3.8652,3.8476,3.8535,3.8476,3.8245,3.8594,3.8787,3.8787,3.8787,3.8787,3.8787,3.8669,3.8633,3.8787,3.865,3.8965,3.9551,3.9434,3.9863,4.0527,4.0664,4.082,4.1016,0.0,0.0,0.0,0.0,0.0,0.0,0.0,0.0,0.0,0.0,0.0,0.0,0.0,0.0,3.366,3.4388,3.3809,3.373,3.4518,3.4416,3.4374,3.4482,3.5143,3.55,3.5519,3.4896,3.4378,3.3996,3.238,3.1477,3.1193,3.0566,3.0931,0.0,0.0,0.0,0.0,0.0,0.0,0.0,3.5664,0.0,0.0,3.9056,3.9398,0.0,0.0,0.0,3.7706,3.5196,3.27,0.0,0.0,0.0,0.0,0.0,0.0,0.0,0.0,0.0,0.0,0.0,0.0,0.0,2.9597,2.9817,3.0415,0.0,3.4145,3.5624,3.8985,4.0165,4.1136,4.2747,4.1802,4.095,4.1326,4.0727,4.0293,4.0351,4.0078,3.9922,3.9961,3.9922,3.9824,3.9609,3.9609,3.9453,3.9082,3.8652,3.8398,3.8398,3.8164,3.793,3.7676,3.8086,3.8086,3.7676,3.8105,3.8203,3.8047,3.8223,3.8203,3.8066,3.8454,3.8476,3.832,3.8532,3.8865,3.9199,3.9199,3.9629,4.0273,4.043,4.0684,4.0937,0.0,0.0,0.0,0.0,0.0,0.0,0.0,0.0,0.0,0.0,3.2531,0.0,0.0,0.0,0.0,0.0,3.4032,3.3946,3.4682,3.5256,3.5304,3.4643,3.5873,3.6199,3.5355,3.401,3.3449,3.3688,3.1415,3.0611,3.1167,3.0343,3.0514,0.0,0.0,0.0,0.0,0.0,0.0,3.3999,3.5539,3.7447,0.0,0.0,4.231,0.0,4.1867,4.0591,3.8179,3.4537,3.0882,0.0,0.0,0.0,0.0,0.0,2.4009,0.0,0.0,0.0,0.0,0.0,0.0,0.0,3.0249,3.0157,3.0352,0.0,3.3807,3.4917,3.7673,3.9028,3.9976,4.0824,4.0536,4.0745,4.2162,4.0801,3.9551,3.918,3.9414,3.9453,3.9101,3.9394,3.9434,3.9023,3.8984,3.8652,3.7855,3.7461,3.7246,3.7305,3.7246,3.7226,3.7226,3.7637,3.7637,3.7226,3.7656,3.7676,3.7383,3.7715,3.7676,3.7402,3.8125,3.8242,3.7913,3.834,3.875,3.9141,3.9141,3.9453,3.9941,4.0312,4.0469,4.0644,0.0,0.0,0.0,0.0,0.0,0.0,0.0,0.0,0.0,0.0,0.0,0.0,0.0,0.0,0.0,0.0,3.5541,3.5411,3.6135,3.578,3.5461,3.5324,3.6137,3.5886,3.4343,3.4617,3.3799,3.1756,3.1246,3.1061,3.1185,3.1007,3.1829,0.0,0.0,0.0,0.0,0.0,0.0,3.555,3.6719,0.0,4.1642,4.0646,4.0773,4.1306,3.9982,3.9531,3.8947,0.0,3.1284,2.8338,0.0,0.0,0.0,0.0,0.0,0.0,0.0,0.0,0.0,0.0,0.0,0.0,2.9303,2.9141,2.9463,0.0,3.1238,3.2549,3.6723,3.8311,3.9632,4.1631,4.0652,3.9975,4.0773,3.9412,3.8418,3.8672,3.8164,3.791,3.8108,3.7949,3.7773,3.7676,3.7676,3.7598,3.7422,3.7031,3.6988,3.7285,3.7007,3.6832,3.6832,3.7207,3.7207,3.6832,3.7226,3.7559,3.7757,3.7539,3.7559,3.7757,3.7617,3.7695,3.7894,3.7991,3.8301,3.8728,3.8728,3.918,3.9902,3.998,4.0449,4.1055,0.0,0.0,0.0,0.0,0.0,0.0,0.0,0.0,0.0,0.0,0.0,0.0,0.0,0.0,0.0,0.0,0.0,0.0,0.0,0.0,3.5519,3.5519,3.5353,3.4886,3.4013,3.3482,3.2546,3.1185,3.1185,3.1185,3.1204,3.1683,3.249,0.0,0.0,0.0,0.0,0.0,3.5655,3.6061,3.7777,0.0,4.118,4.1412,4.1509,4.1409,4.0521,3.9376,3.7792,3.4437,3.1524,0.0,0.0,2.5932,2.5054,0.0,2.4766,2.4572,0.0,0.0,0.0,2.7525,0.0,0.0,0.0,2.9231,2.9817,3.1469,3.1354,3.208,3.5721,3.6816,3.7901,4.017,3.8727,3.7701,3.888,3.7827,3.6973,3.6992,3.6797,3.666,3.666,3.666,3.6758,3.6973,3.6992,3.6992,3.6992,3.6421,3.623,3.6641,3.625,3.6133,3.6348,3.6777,3.6777,3.6348,3.6777,3.6973,3.6938,3.6973,3.6973,3.6992,3.7207,3.7422,3.7637,3.7796,3.8184,3.8611,3.8611,3.8984,3.957,3.9805,4.0293,4.0879,2.9714,0.0,0.0,0.0,0.0,0.0,0.0,0.0,0.0,0.0,0.0,0.0,0.0,0.0,0.0,0.0,0.0,0.0,0.0,0.0,0.0,3.531,3.4485,3.3836,3.3551,3.2001,3.1185,3.1185,3.1185,3.137,3.1774,3.2504,3.3122,0.0,0.0,0.0,0.0,0.0,0.0,3.6238,0.0,3.8978,3.9432,4.163,4.1809,4.0931,4.1166,3.9398,3.6608,3.4414,0.0,3.0273,2.798,2.6856,0.0,0.0,0.0,0.0,0.0,0.0,0.0,0.0,0.0,2.9115,0.0,0.0,0.0,3.2269,3.1909,3.1989,3.4405,3.4956,3.5562,0.0,0.0,0.0,0.0,3.5283,0.0,3.4883,3.5195,3.5293,3.5039,3.5254,3.5644,3.6284,3.6167,3.6147,3.6323,3.5644,3.541,3.5762,3.543,3.5469,3.5898,3.625,3.6289,3.5982,3.6367,3.6406,3.6152,3.6426,3.6406,3.6191,3.6875,3.7226,3.7324,3.7718,3.8184,3.8611,3.8611,3.8887,3.9375,3.9766,4.0156,4.0586,3.0383,3.1505,0.0,0.0,0.0,0.0,0.0,0.0,0.0,0.0,0.0,0.0,0.0,0.0,0.0,0.0,0.0,0.0,3.796,0.0,0.0,0.0,3.4222,3.3346,3.1906,3.1432,3.1185,3.1185,3.1185,3.2037,3.3688,3.3791,3.4334,0.0,3.4673,0.0,0.0,0.0,3.4671,0.0,3.6561,3.658,0.0,3.8154,3.8512,3.854,3.955,3.8847,3.7244,0.0,3.4657,3.2878,0.0,2.9015,0.0,0.0,0.0,0.0,0.0,0.0,0.0,0.0,2.8625,0.0,0.0,0.0,3.0586,3.0832,0.0,3.1085,3.2344,0.0,0.0,0.0,0.0,0.0,3.1253,3.0315,3.0566,3.2832,3.3144,3.3281,3.3613,3.3359,3.3652,3.4824,3.4219,3.4121,3.4883,3.4824,3.4805,3.4844,3.4805,3.5,3.5469,3.5508,3.5703,3.5982,3.604,3.6269,3.6616,3.625,3.6289,3.6636,3.6734,3.6953,3.7324,3.7718,3.8184,3.8611,3.8611,3.9082,3.9824,3.9883,4.0156,4.0586,3.0706,3.1622,0.0,0.0,0.0,0.0,0.0,0.0,0.0,0.0,0.0,0.0,0.0,0.0,0.0,0.0,0.0,3.7139,0.0,0.0,0.0,0.0,0.0,0.0,0.0,3.0716,3.0381,3.0381,3.1462,3.2415,3.3192,3.4358,3.4892,0.0,3.4607,0.0,3.5829,0.0,3.45,0.0,0.0,0.0,0.0,3.8061,3.8994,3.9044,3.9521,3.931,3.8544,0.0,3.5973,0.0,0.0,0.0,0.0,0.0,0.0,0.0,0.0,0.0,0.0,0.0,0.0,0.0,0.0,0.0,2.9824,0.0,0.0,0.0,0.0,0.0,0.0,0.0,3.0468,0.0,0.0,0.0,2.8196,0.0,0.0,0.0,3.1484,3.1641,3.2012,3.2793,3.2754,3.3066,3.3906,3.3965,3.418,3.4687,3.4453,3.4668,3.5391,3.5391,3.5605,3.5982,3.5982,3.6113,3.6289,3.6094,3.6113,3.6289,3.6289,3.6543,3.6953,3.7129,3.7598,3.8203,3.8203,3.8574,3.916,3.9414,3.9609,3.9824,3.2139,0.0,0.0,0.0,0.0,0.0,3.5639,0.0,0.0,0.0,0.0,0.0,4.302,4.1822,0.0,0.0,0.0,3.8166,0.0,0.0,3.3705,0.0,0.0,0.0,0.0,0.0,2.9934,3.0177,3.1536,3.2468,3.2999,3.4426,3.4993,3.4787,0.0,3.5506,3.6214,0.0,0.0,3.666,3.6064,3.5938,3.6284,3.8442,3.9421,3.9697,3.9697,3.9697,3.942,3.7643,3.6671,0.0,3.2769,0.0,0.0,0.0,0.0,0.0,2.7344,0.0,0.0,0.0,0.0,0.0,0.0,0.0,0.0,0.0,0.0,0.0,0.0,0.0,3.0069,0.0,0.0,2.7799,0.0,0.0,0.0,0.0,0.0,0.0,0.0,3.0176,3.0449,3.1113,3.1162,3.1582,3.2676,3.2801,3.3301,3.4141,3.3984,3.4258,3.5019,3.5137,3.543,3.5859,3.5957,3.5982,3.6016,3.5898,3.5918,3.5982,3.5982,3.6269,3.6714,3.6832,3.7207,3.7773,3.7835,3.8125,3.8457,3.9004,3.9199,3.9277,3.5419,3.4412,0.0,0.0,0.0,0.0,0.0,0.0,0.0,0.0,0.0,0.0,0.0,0.0,0.0,0.0,0.0,3.9278,3.9556,0.0,3.4027,0.0,0.0,0.0,0.0,0.0,3.0254,3.1175,3.1204,3.2164,3.3945,3.4013,3.4576,3.5489,3.6164,3.7122,3.8209,3.6673,3.7703,4.0153,3.8011,3.8114,3.9421,0.0,3.8743,3.9697,3.9697,0.0,0.0,3.7406,3.6697,0.0,0.0,0.0,0.0,0.0,0.0,0.0,0.0,0.0,0.0,2.6959,0.0,0.0,0.0,0.0,2.9914,0.0,0.0,0.0,0.0,2.9653,2.8746,0.0,0.0,0.0,0.0,0.0,0.0,0.0,0.0,0.0,0.0,2.9101,2.8887,0.0,2.9101,2.916,3.0879,3.1367,3.1973,3.2832,3.3242,3.3652,3.4153,3.4512,3.4961,3.541,3.582,3.5982,3.5982,3.5605,3.5625,3.5982,3.5982,3.6269,3.6734,3.7109,3.7285,3.7363,3.7773,3.7894,3.8047,3.8887,3.9199,3.9277,0.0,0.0,0.0,0.0,0.0,0.0,0.0,3.7853,0.0,0.0,0.0,0.0,0.0,0.0,4.6839,0.0,0.0,4.2123,4.0398,3.783,0.0,0.0,0.0,3.2015,0.0,0.0,3.066,3.0266,3.0895,3.1847,3.3087,3.3705,3.4543,3.5519,0.0,3.6537,0.0,0.0,0.0,0.0,0.0,3.8417,4.0149,0.0,0.0,3.9697,3.9697,3.9697,0.0,3.8931,3.7785,3.6308,3.4066,3.2475,3.1075,2.9421,2.9149,0.0,0.0,0.0,2.9813,2.9143,0.0,0.0,0.0,0.0,0.0,0.0,0.0,0.0,0.0,0.0,2.7695,0.0,0.0,0.0,0.0,0.0,0.0,0.0,0.0,0.0,0.0,0.0,0.0,0.0,2.7285,0.0,2.9492,3.0254,3.1035,3.1914,3.2637,3.3223,3.3633,3.4062,3.4544,3.4941,3.5078,3.5156,3.5137,3.5,3.5019,3.5156,3.5469,3.5684,3.5859,3.6269,3.6621,3.6934,3.7344,3.6852,3.596,3.6534,3.6738,3.6831,3.7723,0.0,0.0,0.0,0.0,0.0,0.0,0.0,0.0,0.0,4.5161,0.0,4.9666,0.0,4.8911,0.0,4.7075,4.394,4.0767,3.9117,0.0,3.4019,3.3746,0.0,0.0,0.0,0.0,2.9804,0.0,3.1713,3.2611,3.3209,3.4211,3.5519,0.0,3.6985,3.7744,0.0,3.7867,0.0,0.0,3.8517,0.0,0.0,3.9471,3.9923,0.0,3.9521,3.9543,3.8477,3.7606,3.6614,3.4486,3.3274,3.2431,3.1275,3.1148,3.1306,3.1003,3.1326,0.0,3.141,3.1318,0.0,3.1715,0.0,0.0,0.0,0.0,0.0,0.0,0.0,0.0,0.0,0.0,0.0,0.0,2.3357,0.0,0.0,0.0,0.0,0.0,0.0,0.0,0.0,0.0,0.0,0.0,2.9121,3.0215,3.1269,3.2266,3.2988,3.3386,3.3848,3.4251,3.4473,3.4629,3.4707,3.4687,3.4551,3.4551,3.4726,3.5019,3.5234,3.543,3.5806,3.6269,3.6753,3.7129,3.6384,3.5098,3.5512,3.5137,3.4561,0.0,0.0,0.0,0.0,3.8229,0.0,0.0,0.0,4.2697,0.0,4.6374,4.8355,5.0886,4.9937,4.9614,5.0896,4.8216,0.0,4.1026,4.0725,0.0,0.0,3.4703,3.4151,3.247,0.0,0.0,0.0,0.0,3.1805,3.2648,3.2621,3.3647,3.5579,3.7494,0.0,3.8287,3.9224,3.987,4.0246,3.9254,3.8542,3.804,3.7965,3.8969,4.03,3.9271,3.9245,3.9258,3.6402,3.6298,3.6825,3.3583,3.348,3.4365,3.3611,3.3937,3.4343,3.3588,3.3907,3.4267,3.3621,0.0,0.0,0.0,0.0,3.2936,0.0,0.0,0.0,0.0,0.0,0.0,0.0,0.0,0.0,0.0,0.0,0.0,0.0,0.0,0.0,0.0,0.0,0.0,0.0,0.0,0.0,0.0,2.8009,2.9509,3.0762,3.207,3.2969,3.3347,3.3828,3.4075,3.4075,3.4453,3.4629,3.4629,3.4219,3.431,3.4668,3.4687,3.4961,3.543,3.5806,3.6269,3.6753,3.7129,3.6518,3.5381,3.5624,3.4288,3.2674,3.942,3.9974,3.9957,0.0,3.8122,3.8487,0.0,0.0,0.0,0.0,4.7989,4.968,5.164,5.1168,5.0847,5.1191,4.9343,0.0,0.0,0.0,0.0,3.9521,3.8768,3.7638,3.5931,3.4851,0.0,3.2261,0.0,0.0,3.3183,3.2796,3.3647,3.5579,0.0,0.0,3.5973,3.763,3.8233,3.8049,3.8185,3.8391,0.0,0.0,3.7838,3.9271,3.8994,3.9245,3.9413,3.7557,3.646,3.5704,3.483,3.4062,3.3658,3.4551,3.417,3.3664,3.4529,3.3362,3.2502,3.5152,3.3824,3.2326,0.0,0.0,0.0,0.0,0.0,0.0,0.0,0.0,0.0,0.0,0.0,0.0,0.0,0.0,0.0,0.0,0.0,0.0,0.0,0.0,0.0,0.0,0.0,0.0,0.0,0.0,2.9259,2.9422,3.1338,3.257,3.2949,3.3379,3.3594,3.3594,3.3691,3.3718,3.3718,3.3633,3.3828,3.429,3.457,3.4961,3.543,3.5806,3.6269,3.6753,3.7129,3.6895,3.5884,3.2634,3.1082,3.0817,3.938,0.0,0.0,3.9237,0.0,0.0,4.2228,0.0,0.0,4.6812,4.8391,0.0,5.0861,5.1172,5.1306,5.1306,4.9773,0.0,0.0,0.0,0.0,4.1806,4.113,3.9798,3.7588,3.6157,0.0,3.2713,0.0,0.0,3.3386,3.2833,3.3647,3.5533,0.0,3.6544,3.5837,3.7318,3.7644,3.7235,3.7513,0.0,0.0,3.6757,3.711,3.8091,3.7493,3.7758,3.8212,3.6955,3.5999,3.5178,3.4542,3.4208,3.4348,3.5836,3.5649,3.5371,3.6834,3.5535,3.431,3.649,3.5065,3.3312,3.4188,3.3227,3.2074,0.0,0.0,0.0,0.0,0.0,0.0,0.0,0.0,0.0,0.0,0.0,0.0,0.0,0.0,0.0,0.0,0.0,0.0,0.0,0.0,0.0,0.0,0.0,2.9402,2.866,3.1289,3.2734,3.2793,3.3789,3.4004,3.3386,3.3386,3.3386,3.3386,3.3386,3.3523,3.3809,3.4238,3.4687,3.5117,3.5566,3.6211,3.6961,3.6979,3.6811,3.6204,3.2979,3.159,3.1581,0.0,0.0,0.0,0.0,0.0,0.0,0.0,4.3652,0.0,4.7231,0.0,4.949,4.9967,5.0845,5.1373,5.1331,0.0,4.814,4.608,4.6301,4.5372,4.2838,4.2539,4.1205,3.8617,3.7135,0.0,0.0,0.0,0.0,3.3229,3.278,3.3567,3.534,0.0,0.0,0.0,3.7187,3.7271,3.6808,3.7085,3.6884,3.6405,3.6405,3.6683,3.6916,3.5645,3.5839,3.6504,3.5314,3.4924,3.4703,3.3459,3.3942,3.5226,3.6691,3.7032,3.7266,3.8874,3.801,3.6784,3.7346,3.6108,3.4516,3.3709,3.2164,3.1085,3.1727,3.0909,3.0549,0.0,0.0,0.0,0.0,0.0,0.0,0.0,0.0,0.0,0.0,0.0,0.0,0.0,0.0,0.0,0.0,0.0,0.0,0.0,0.0,2.9539,2.8256,3.1387,3.3047,3.2969,3.4414,3.4609,3.3562,3.3445,3.3386,3.3386,3.3386,3.3425,3.3535,3.3965,3.4394,3.4824,3.5293,3.6191,3.7264,3.6979,3.694,3.6836,3.5482,3.4547,3.4218,0.0,0.0,0.0,0.0,0.0,4.4013,4.627,4.7531,4.8618,4.9746,5.1219,5.2192,5.2293,5.2126,5.1774,5.1356,5.0569,0.0,0.0,0.0,0.0,4.5648,4.4242,4.2889,4.1482,3.814,3.5907,0.0,0.0,0.0,3.2239,3.25,3.3174,3.4291,3.4963,0.0,3.3724,3.4804,0.0,3.4625,3.6482,3.6884,3.6405,3.6405,3.6455,3.6416,3.5524,3.5839,3.6326,3.377,3.2906,3.2914,3.3064,3.3001,3.321,3.4661,3.4515,3.435,3.6693,3.4756,3.2928,3.6595,3.457,3.1957,3.2952,3.1448,2.9885,3.0026,3.0316,3.0555,3.0409,0.0,0.0,0.0,0.0,0.0,0.0,0.0,0.0,0.0,0.0,0.0,0.0,0.0,0.0,0.0,0.0,0.0,0.0,0.0,2.8764,0.0,3.0078,0.0,0.0,0.0,3.3972,3.4473,3.3718,3.3386,3.3386,3.3386,3.3613,3.4016,3.4414,3.4844,3.5312,3.5742,3.6465,3.7367,3.7999,3.8699,3.9316,3.9032,3.8804,3.8463,0.0,0.0,0.0,0.0,0.0,0.0,0.0,4.9893,0.0,5.0154,5.0702,5.1197,5.1197,5.1749,5.1875,5.1356,5.0218,4.9213,4.8385,4.7531,4.6853,4.6326,4.497,0.0,4.2238,3.8668,3.6384,3.5508,0.0,0.0,3.2402,3.2545,3.2823,3.3266,0.0,3.2841,0.0,0.0,0.0,3.4073,3.6018,3.6632,3.6405,3.6405,3.6405,3.6169,3.4352,3.4296,3.4781,3.2771,3.1891,3.1584,3.1369,3.1288,3.1508,3.2775,3.3497,3.4295,3.6268,3.5043,3.3698,3.5836,3.3614,3.1083,3.1796,3.1499,3.0959,3.0681,3.1919,3.2832,3.2108,3.1204,0.0,0.0,0.0,0.0,0.0,0.0,0.0,0.0,0.0,0.0,0.0,0.0,0.0,0.0,0.0,0.0,0.0,0.0,2.7989,0.0,0.0,0.0,0.0,0.0,0.0,3.4375,3.373,3.3535,3.375,3.3516,3.3652,3.4114,3.4297,3.4766,3.5449,3.6094,3.6601,3.7105,3.818,3.8865,3.9258,3.9726,3.9746,3.938,0.0,4.2458,0.0,0.0,4.6076,0.0,4.885,5.1222,5.2268,5.0544,5.0293,5.0293,5.0293,5.1473,5.2026,5.1381,5.01,4.9044,4.8309,4.7255,4.6652,4.6652,4.5317,4.3915,4.2386,3.9095,3.6709,0.0,0.0,0.0,0.0,3.226,0.0,0.0,0.0,0.0,0.0,0.0,3.3143,3.3693,3.5607,3.6405,3.6381,3.6097,3.5953,3.5595,3.2858,3.2377,3.2862,3.1599,3.0994,3.0625,2.995,2.9891,3.0235,3.0977,3.2485,3.4312,3.5797,3.5665,3.5209,3.5677,3.3782,3.1825,3.1825,3.2376,3.2754,3.2311,3.3744,3.48,3.405,3.1983,0.0,0.0,0.0,0.0,0.0,0.0,0.0,0.0,0.0,0.0,0.0,0.0,0.0,0.0,0.0,0.0,2.4914,0.0,0.0,0.0,0.0,3.1387,3.2316,0.0,3.4629,3.4231,3.3769,3.375,3.4095,3.3809,3.3887,3.4251,3.4349,3.4805,3.5586,3.625,3.6616,3.6812,3.7907,3.8454,3.8689,3.9355,3.9512,3.9336,0.0,0.0,0.0,0.0,0.0,0.0,0.0,5.1473,5.282,5.2619,5.2594,5.2594,5.2594,5.2719,5.2427,5.1406,5.118,5.0594,4.9515,4.8385,4.7757,4.7757,4.5719,4.4091,4.2964,3.9647,3.6886,0.0,0.0,0.0,0.0,0.0,0.0,0.0,0.0,0.0,0.0,3.0932,3.2286,3.2523,3.5285,3.6405,3.6263,3.5042,3.4581,3.4239,3.1491,3.08,3.103,2.9646,2.9662,3.0254,3.0156,2.9931,2.9607,2.9266,3.0445,3.2222,3.3828,3.4373,3.4949,3.6828,3.6081,3.4875,3.4875,3.4635,3.4365,3.432,3.439,3.4366,3.3975,3.3092,3.1761,0.0,0.0,0.0,0.0,0.0,0.0,0.0,0.0,0.0,0.0,2.3404,0.0,0.0,0.0,0.0,0.0,0.0,0.0,2.6456,2.8203,3.0312,3.2715,3.293,3.3574,3.4629,3.4251,3.4055,3.4114,3.4414,3.4609,3.4668,3.5078,3.5527,3.5942,3.6021,3.6309,3.6753,3.7226,3.7891,3.863,3.8708,3.918,3.9766,0.0,0.0,0.0,0.0,0.0,0.0,0.0,5.2318,5.2895,5.2895,5.2895,5.2895,5.2895,5.2895,5.2477,5.1373,5.0971,5.0293,4.9163,4.8058,4.74,4.74,4.5593,4.4116,4.3039,4.0375,3.7939,0.0,0.0,0.0,0.0,0.0,0.0,0.0,0.0,2.8135,2.7847,3.0147,3.1738,3.2856,3.4533,3.5186,3.5042,3.365,3.313,3.2905,3.0979,3.0596,3.0781,2.9369,2.9492,3.0156,2.9931,2.9735,2.9667,3.0039,3.1306,3.2888,3.4342,3.4969,3.546,3.627,3.5607,3.4759,3.4759,3.5584,3.6254,3.5925,3.5996,3.5838,3.5013,3.312,3.1474,0.0,0.0,0.0,0.0,0.0,0.0,0.0,0.0,0.0,0.0,0.0,0.0,0.0,0.0,0.0,0.0,0.0,0.0,2.6353,0.0,2.9367,3.2012,3.2539,3.3437,3.4687,3.431,3.4388,3.4896,3.4746,3.4844,3.5137,3.5586,3.5859,3.5982,3.5982,3.6113,3.6348,3.7031,3.75,3.7871,3.8415,3.8845,3.916,4.4624,0.0,4.5071,0.0,4.797,4.9364,5.1293,5.2061,5.2503,5.2619,5.2644,5.2719,5.287,5.2895,5.2477,5.1373,5.0921,5.0193,4.912,4.7983,4.7324,4.7324,4.5568,0.0,4.3266,4.1053,3.8843,3.6634,3.4951,0.0,0.0,0.0,0.0,0.0,2.8652,2.8375,2.8879,3.0514,3.1926,3.3121,3.403,3.429,3.3953,3.2336,3.1636,3.1374,3.0015,2.9749,2.9899,2.9023,2.9219,2.9785,2.9657,2.9984,3.05,3.0888,3.2028,3.3401,3.4346,3.5107,3.5666,3.5833,3.5653,3.5511,3.5677,3.6872,3.775,3.7194,3.727,3.6965,3.5464,3.3123,3.1294,3.1001,0.0,0.0,0.0,0.0,0.0,0.0,0.0,2.3743,2.3604,0.0,0.0,0.0,0.0,0.0,0.0,0.0,0.0,0.0,0.0,0.0,3.1474,3.2246,3.3184,3.4316,3.4277,3.4622,3.5176,3.5117,3.5273,3.5586,3.5898,3.5982,3.5982,3.5982,3.6094,3.6289,3.7012,3.7363,3.7578,3.8301,3.8652,3.8848,4.3385,4.2609,4.2513,4.4578,4.6912,4.8529,4.8553,5.0149,5.1498,5.2051,5.2126,5.2327,5.2845,5.2895,5.2477,5.1373,5.1306,5.0795,4.9665,4.8535,4.7908,0.0,0.0,4.4367,4.379,4.1603,3.9421,3.721,0.0,0.0,3.1406,0.0,3.061,3.0589,3.0568,3.0476,3.0487,3.2299,3.3002,3.3005,3.4006,3.4028,3.3265,3.1142,3.0086,2.9555,2.8229,2.7728,2.7787,2.8191,2.8574,2.9004,2.9461,3.0888,3.2196,3.1272,3.2028,3.3196,3.3221,3.4192,3.5317,3.5866,3.6969,3.8116,3.8718,3.8868,3.8718,3.8116,3.799,3.7245,3.487,3.3231,3.1699,2.9999,0.0,0.0,0.0,0.0,0.0,0.0,2.537,2.5225,2.4808,0.0,0.0,0.0,0.0,0.0,0.0,0.0,0.0,2.6348,2.7617,0.0,3.1474,3.1953,3.2598,3.3406,3.4277,3.4707,3.4746,3.5605,3.5982,3.5982,3.5982,3.5982,3.5982,3.5982,3.6269,3.6734,3.7129,3.7559,3.7933,3.8454,3.8828,3.9199,4.2514,4.2891,4.3567,4.4228,4.5606,4.6608,4.6608,4.8185,4.947,4.964,5.0733,5.1749,5.2302,5.2377,5.2076,0.0,5.0921,5.0368,0.0,4.8535,4.7908,4.7908,4.5769,4.4338,4.3815,4.198,4.0148,3.8366,0.0,0.0,0.0,3.2943,3.2235,3.1163,3.1477,3.1843,3.2299,3.3148,3.3672,3.3862,3.3238,3.2291,3.1146,2.953,2.9411,3.0025,2.9199,2.9743,3.0645,2.9497,2.9659,3.018,2.9364,2.953,3.0205,3.1131,3.1312,3.1426,3.2349,3.2906,3.3257,3.3417,3.4118,3.4843,3.5305,3.5954,3.657,3.7015,3.6042,3.5107,3.4979,3.2732,3.0756,3.0195,2.8874,0.0,0.0,0.0,0.0,0.0,0.0,2.6098,0.0,2.6293,0.0,0.0,0.0,0.0,0.0,0.0,0.0,0.0,2.802,0.0,3.1474,3.2226,3.3164,3.4297,3.457,3.5019,3.5605,3.5864,3.5982,3.5982,3.5982,3.5982,3.5982,3.5982,3.6269,3.6753,3.7129,3.7559,3.7969,3.8418,3.8689,3.8809,4.1287,4.146,4.1817,4.201,4.3173,4.4039,4.4039,4.6208,4.7937,4.8185,4.9208,5.0127,5.0669,4.9942,0.0,5.0216,4.9105,4.8088,4.7557,4.652,4.5845,4.5684,4.4365,4.3319,4.261,0.0,0.0,3.9195,3.7437,3.5832,3.4477,3.4098,3.3568,3.2968,3.3264,3.3748,3.4377,3.4625,3.4462,3.3979,3.2764,3.136,2.987,2.8734,2.9037,3.0034,2.9689,3.064,3.1817,3.0125,3.0087,3.0546,2.9508,2.9043,2.9238,3.0872,3.112,3.0958,3.1424,3.1546,3.1546,3.1546,3.2328,3.3298,3.3869,3.4679,3.54,3.5763,3.4888,3.3956,3.3672,3.1949,3.0292,2.9465,2.8249,2.7204,2.6603,0.0,0.0,0.0,0.0,0.0,0.0,2.8579,2.8538,0.0,0.0,0.0,0.0,0.0,0.0,2.8354,2.9581,0.0,3.2864,3.2984,3.3516,3.4473,3.4805,3.5332,3.5982,3.5982,3.5982,3.5982,3.5982,3.5982,3.6001,3.6191,3.6523,3.6988,3.7363,3.7793,3.8203,3.8476,3.8611,3.865,3.9701,3.8804,0.0,0.0,3.9998,0.0,4.1134,4.414,4.6597,4.7136,4.7343,4.76,4.8157,4.6046,4.5538,4.7884,0.0,0.0,0.0,4.3119,4.2391,4.1973,4.1955,4.1514,4.0616,4.0952,4.0644,3.9647,3.7011,3.5683,3.5583,3.46,3.4628,3.5558,3.5558,3.5881,3.6381,3.631,3.5157,3.3336,3.2501,3.1055,2.9332,2.8602,2.8902,2.9749,2.9707,3.0568,3.1535,3.0162,2.9976,3.0214,2.9687,2.9219,2.9152,3.0502,3.1249,3.138,3.0402,3.0193,3.0214,3.0172,3.1473,3.3019,3.3901,3.4575,3.4852,3.4413,3.4198,3.348,3.1486,3.0956,3.0146,2.8029,2.7285,2.6903,2.6685,0.0,0.0,0.0,0.0,0.0,0.0,3.1464,3.1684,0.0,0.0,0.0,0.0,0.0,3.105,3.0987,3.2036,3.347,3.5215,3.4086,3.373,3.4212,3.5039,3.5644,3.5982,3.5982,3.5982,3.5982,3.5982,3.6001,3.6094,3.6504,3.6934,3.7383,3.7738,3.8184,3.8611,3.8611,3.8611,3.8611,0.0,0.0,3.8493,3.8591,3.8955,3.9225,3.9225,4.1149,4.2553,4.2384,4.3576,4.4641,4.5245,4.3143,4.2255,4.357,4.4042,4.4071,4.3612,4.2973,4.2267,4.1499,4.0723,4.0354,4.0587,3.985,3.9331,3.9095,3.8441,3.7638,3.6784,3.6533,3.6356,3.6205,3.6205,3.6256,3.6334,3.5307,3.3997,3.2474,3.1247,2.9901,2.8549,2.8375,2.9058,3.0118,2.9685,3.0684,3.1881,3.0147,2.9878,3.0109,2.8972,2.875,2.9039,2.9711,2.9761,2.949,2.8926,2.8979,2.9158,2.8847,2.9587,3.0537,3.1083,3.1568,3.2215,3.3212,3.2245,3.1376,3.1953,3.0608,2.9011,2.7872,2.7057,2.6467,2.6275,2.7362,0.0,0.0,3.1565,3.2925,3.2925,3.3645,3.3784,0.0,0.0,0.0,0.0,3.5732,3.6374,3.3909,3.4304,3.4921,3.5638,3.4816,3.4629,3.5098,3.5625,3.5918,3.5982,3.5982,3.5982,3.5982,3.5982,3.6211,3.6523,3.6656,3.7109,3.7793,3.7855,3.8184,3.8611,3.8611,3.8611,3.865,3.8089,3.8281,3.8669,3.8828,3.8728,3.8669,3.8828,4.0263,4.1179,4.0752,4.2255,4.3106,4.2435,4.1335,4.0514,4.0249,4.1049,4.1489,4.1214,4.0581,3.9778,3.8894,3.8636,3.8603,3.8787,3.8836,3.9005,3.9271,3.9019,3.8592,3.7964,3.7462,3.706,3.6758,3.6507,3.6073,3.5451,3.4702,3.3229,3.1316,3.0592,2.9513,2.8301,2.8301,2.9138,3.026,2.9957,3.0895,3.2034,3.0423,3.0067,3.0109,2.8926,2.8703,2.9004,2.9461,2.9707,2.9762,2.9318,3.0025,3.0769,3.0282,3.002,3.0009,3.041,3.0703,3.1141,3.194,3.127,3.0917,3.2177,3.1162,2.993,2.9273,2.8394,2.7685,2.737,2.8442,0.0,3.112,3.327,3.4851,3.5353,3.6358,3.6645,3.5842,3.7021,0.0,3.6427,3.9223,3.9554,3.6657,3.7529,3.8261,3.8752,3.7043,3.6398,3.6883,3.6502,3.6309,3.6328,3.6523,3.6601,3.6601,3.6601,3.6738,3.6973,3.7168,3.7519,3.7913,3.8144,3.8359,3.8611,3.8611,3.8611,3.8669,3.8027,3.832,3.8747,3.9121,3.8848,3.8747,3.9141,4.0173,4.0861,4.0717,4.1916,4.2117,4.0404,4.0326,3.976,3.8151,3.8359,3.8591,3.8513,3.7734,3.6894,3.5957,3.6448,3.6621,3.6353,3.7947,3.9077,3.9697,3.9016,3.8766,3.8869,3.7592,3.7067,3.7161,3.6442,3.5475,3.4361,3.3945,3.2429,3.0281,3.0094,2.9303,2.8301,2.8301,2.9006,2.999,2.999,3.0721,3.152,3.0385,2.999,2.9843,2.9043,2.8828,2.8906,2.9383,3.0221,3.0931,3.0622,3.1728,3.2906,3.2568,3.1329,3.0312,3.0781,3.0898,3.0898,3.0898,3.1083,3.1494,3.235,3.2186,3.1762,3.1218,3.0226,2.942,2.9112,0.0,3.1094,3.3211,3.5029,3.6535,3.7588,3.8994,3.9521,3.8818,3.9897,4.0725,4.0976,4.2085,4.1795,3.9791,4.0971,4.1787,4.2127,3.9724,3.8565,3.869,3.767,3.707,3.6812,3.7129,3.7305,3.7305,3.7305,3.7324,3.7422,3.7773,3.7933,3.8066,3.8437,3.8611,3.8611,3.8611,3.8611,3.8689,3.8476,3.8571,3.8747,3.9121,3.8848,3.8747,3.9141,3.9085,3.9425,4.0543,4.0525,4.0467,4.0598,4.0242,3.9589,3.858,3.8571,3.8418,3.8047,3.7559,3.6758,3.5547,3.5244,3.511,3.5251,3.7195,3.8715,3.9697,3.8354,3.8112,3.8843,3.6937,3.6452,3.7137,3.5454,3.4581,3.4263,3.1923,3.0695,3.0198,2.9085,2.8495,2.8301,2.8301,2.8415,2.8628,2.8628,2.8741,2.8873,2.8681,2.8628,2.8575,2.844,2.8398,2.8476,2.8887,2.9951,3.1084,3.1452,3.1788,3.2171,3.2826,3.1572,3.0312,3.0781,3.0898,3.0898,3.0898,3.1883,3.2801,3.2944,3.3247,3.3194,3.2364,3.1016,3.0148,3.0302,0.0,3.3221,3.4917,3.7438,3.9295,3.9948,4.0198,4.0902,4.2135,4.1553,4.1779,4.3212,4.4367,4.4836,4.4457,4.3288,4.2241,4.1402,4.1385,4.0607,3.9118,3.943,3.8751,3.7207,3.7266,3.7305,3.7305,3.7305,3.75,3.7796,3.7855,3.8144,3.8513,3.8591,3.8611,3.8611,3.8611,3.8611,3.8728,4.0069,3.9261,3.8747,3.9121,3.8848,3.8747,3.9141,3.9685,4.0126,4.0243,4.1699,4.2415,4.1491,4.1311,4.0831,3.982,3.9033,3.8496,3.8281,3.7871,3.7168,3.6133,3.543,3.5324,3.5835,3.7321,3.8219,3.853,3.7822,3.7331,3.6935,3.5634,3.5263,3.5652,3.5021,3.392,3.2526,3.1987,3.0895,2.9507,2.8856,2.8633,2.8613,2.8379,2.8301,2.832,2.8555,2.8476,2.832,2.8555,2.8476,2.8301,2.8301,2.8437,2.8711,2.9141,3.0805,3.2611,3.3062,3.322,3.3182,3.3135,3.1815,3.0625,3.084,3.0898,3.0898,3.0898,3.1441,3.2407,3.3985,3.397,3.4097,3.5267,3.3624,0.0,0.0,3.3924,3.4996,3.6663,3.9044,4.0876,4.1756,4.2108,4.261,4.3363,4.2936,4.3109,4.4163,4.5045,4.5748,4.6351,4.5871,4.5351,4.4816,4.4138,4.2869,4.104,4.0622,3.9444,3.7637,3.7871,3.7988,3.7988,3.7988,3.8105,3.8281,3.8281,3.8398,3.8611,3.8611,3.8611,3.8611,3.8611,3.8611,3.8708,4.129,3.9854,3.8747,3.9121,3.8848,3.8747,3.9141,4.0406,4.1179,4.0933,4.3402,4.4634,4.3098,4.2895,4.2438,4.1387,3.9917,3.9089,3.9225,3.8416,3.7539,3.6734,3.5678,3.5414,3.607,3.6844,3.7145,3.6999,3.6649,3.6081,3.5288,3.4338,3.4068,3.4374,3.4256,3.3068,3.1194,3.1911,3.098,2.9062,2.9062,2.9062,2.9023,2.8594,2.8496,2.8613,2.8848,2.8711,2.8496,2.8809,2.8633,2.832,2.8398,2.8652,2.8996,2.9551,3.1588,3.378,3.4432,3.4353,3.3923,3.3254,3.1977,3.0898,3.0898,3.0898,3.0898,3.0898,3.117,3.2092,3.4376,3.4247,3.452,3.6786,0.0,0.0,0.0,3.5448,3.6379,3.8013,3.992,4.1693,4.3234,4.3373,4.3614,4.4163,4.4192,4.4443,4.4966,4.5547,4.612,4.67,4.7464,4.7721,4.7289,4.6126,4.4379,4.2091,4.1249,3.9859,3.8086,3.8418,3.8611,3.8611,3.8611,3.8611,3.8611,3.8611,3.8611,3.8611,3.8611,3.8611,3.8611,3.8611,3.8611,3.8669,4.129,3.9854,3.8747,3.9121,3.8848,3.8747,3.9141,4.0406,4.1904,4.3557,4.4622,4.5337,4.569,4.4845,4.3947,4.3186,4.1438,4.057,4.1057,3.9093,3.7539,3.6734,3.5092,3.4315,3.4572,3.4635,3.492,3.5453,3.4097,3.4069,3.5261,3.3268,3.3087,3.4343,3.2599,3.1737,3.1487,3.0352,2.9734,2.9559,2.9559,2.9559,2.95,2.9043,2.9121,2.9461,2.9062,2.8879,2.8859,2.8879,2.8633,2.8359,2.875,2.8879,2.9082,2.9902,3.1588,3.3451,3.4836,3.4248,3.3177,3.3113,3.1977,3.0898,3.0898,3.0898,3.0898,3.0898,3.1977,3.2992,3.3219,3.3857,3.4428,3.4643,0.0,0.0,3.3488,3.532,3.7156,3.8677,3.9812,4.1538,4.4219,4.3095,4.31,4.5233,4.5372,4.5598,4.615,4.6672,4.652,4.5558,4.7051,4.71,4.5429,4.5776,4.4182,4.0661,4.1053,4.033,3.8571,3.8591,3.8611,3.8611,3.8611,3.8611,3.8611,3.8611,3.8611,3.8611,3.8611,3.8611,3.8611,3.8611,3.8611,3.8669,4.3266,4.1559,3.9966,3.8989,3.8691,3.8747,3.9141,4.1391,4.3266,4.3887,4.5974,4.7354,4.7174,4.583,4.4804,4.4495,4.3096,4.2155,4.199,4.1259,3.9439,3.6411,3.5098,3.468,3.5111,3.4879,3.4627,3.4303,3.3755,3.315,3.255,3.1758,3.1706,3.2233,3.2045,3.1525,3.0738,3.1081,3.0738,2.9961,2.9961,2.9961,2.995,2.952,2.9434,2.9618,2.9668,2.9551,2.9355,2.9629,2.9434,2.9129,2.9305,3.0138,3.1354,3.2922,3.324,3.3282,3.4097,3.3714,3.2879,3.1949,3.1296,3.0898,3.0898,3.0898,3.0957,3.123,3.1721,3.2464,3.3672,3.3854,3.438,3.6019,0.0,3.4136,3.5647,3.6263,3.699,3.8204,4.048,4.2359,4.3451,4.4236,4.5066,4.5914,4.5999,4.61,4.6301,4.5829,4.5007,4.3811,4.4421,4.4389,4.3703,4.4165,4.3118,4.0619,4.0843,4.0105,3.8611,3.8611,3.8611,3.8611,3.8611,3.8611,3.8611,3.8611,3.8611,3.8611,3.8611,3.8611,3.8611,3.8611,3.8611,3.8669,4.5186,4.2988,4.0921,3.9638,3.9442,3.9541,3.9841,4.2751,4.4914,4.4823,4.714,4.8592,4.7983,4.6644,4.582,4.582,4.4473,4.3537,4.3299,4.2182,4.007,3.6764,3.5376,3.4762,3.4912,3.4524,3.3878,3.3015,3.3015,3.2307,3.0898,3.0898,3.0898,3.0937,3.1511,3.1284,3.0468,3.1398,3.1256,3.041,3.041,3.041,3.0371,2.995,2.9891,3.0028,3.0137,3.0,2.9833,3.0098,3.0241,3.0321,3.0441,3.1461,3.2881,3.4233,3.3643,3.2674,3.2933,3.2912,3.2557,3.1564,3.1319,3.1319,3.1319,3.1319,3.1397,3.166,3.1836,3.2324,3.3647,3.3655,3.4036,3.584,3.4859,3.4459,3.6149,3.6392,3.679,3.7842,4.0379,4.238,4.3068,4.4579,4.5702,4.624,4.6301,4.6059,4.5495,4.4736,4.3467,4.1551,4.1606,4.134,4.0676,4.181,4.1486,3.9801,3.9801,3.9394,3.8611,3.8611,3.8611,3.8611,3.8611,3.8611,3.8611,3.8611,3.8611,3.8611,3.8611,3.8611,3.8611,3.8611,3.8611,3.8669,4.6798,4.3865,4.1326,4.1326,4.1326,4.1326,4.1347,4.4448,4.6798,4.6822,4.7978,4.8592,4.7983,4.7425,4.7099,4.7099,4.5452,4.4634,4.5188,4.1474,3.8816,3.7947,3.5854,3.4297,3.3425,3.3008,3.2383,3.1494,3.1523,3.1309,3.0898,3.0898,3.0898,3.0898,3.0898,3.0898,3.0898,3.0898,3.0898,3.0898,3.0898,3.0898,3.084,3.0371,3.0488,3.084,3.0371,3.0195,3.0195,3.0195,3.0893,3.1879,3.2265,3.2728,3.3134,3.3134,3.2339,3.1523,3.1523,3.1866,3.2198,3.2198,3.2198,3.2198,3.2198,3.2198,3.2198,3.2229,3.255,3.2812,3.2843,3.3144,3.3406,3.3406,3.3406,3.3574,3.4055,3.5511,3.6866,3.78,3.9364,4.122,4.3473,4.3731,4.4436,4.618,4.6271,4.5495,4.3762,4.3669,4.2083,3.8696,3.8971,3.8139,3.6016,3.8692,3.9335,3.7874,3.7874,3.8144,3.8611,3.8611,3.8611,3.8611,3.8611,3.8611,3.8611,3.8611,3.8611,3.8611,3.8611,3.8611,3.8611,3.8611,3.8611,3.8669,4.7055,4.5906,4.4755,4.3473,4.3266,4.3507,4.4224,4.5748,4.706,4.7763,4.8731,4.8987,4.8008,4.7782,4.738,4.6597,4.6389,4.6353,4.6501,4.3915,4.1729,4.0274,3.6681,3.457,3.4316,3.3613,3.2969,3.2402,3.2129,3.1758,3.1328,3.1035,3.0898,3.0898,3.0898,3.0898,3.0898,3.0898,3.0898,3.0898,3.0898,3.0898,3.0879,3.0742,3.0762,3.0879,3.0742,3.0684,3.0684,3.0684,3.0903,3.1377,3.2537,3.371,3.4626,3.4626,3.3877,3.3126,3.3455,3.3095,3.2539,3.2276,3.2198,3.2198,3.2198,3.2433,3.3045,3.4564,3.4269,3.4183,3.566,3.5068,3.4316,3.4316,3.4316,3.4789,3.6143,3.7376,3.853,3.9587,4.1842,4.3412,4.3692,4.4829,4.5732,4.624,4.5165,4.3208,4.0278,4.0116,3.907,3.6856,3.6895,3.6644,3.6016,3.7148,3.7644,3.748,3.748,3.7871,3.8611,3.8611,3.8611,3.8611,3.8611,3.8611,3.8611,3.8611,3.8611,3.8611,3.8611,3.8611,3.8611,3.8611,3.8611,3.8669,4.8126,4.732,4.6432,4.5355,4.537,4.5748,4.6346,4.7658,4.8707,4.9077,4.9603,4.949,4.836,4.8033,4.7556,4.6672,4.6722,4.6772,4.6772,4.4845,4.2958,4.1277,3.7851,3.5665,3.5013,3.4277,3.3633,3.3047,3.2617,3.2109,3.1474,3.1094,3.0898,3.0898,3.0898,3.0898,3.0898,3.0898,3.0898,3.0898,3.0898,3.0898,3.0898,3.0898,3.0898,3.0898,3.0898,3.0898,3.0898,3.0898,3.1267,3.2047,3.3685,3.4435,3.4687,3.4687,3.3924,3.3157,3.3452,3.3154,3.2773,3.2695,3.2656,3.2715,3.2922,3.3678,3.4767,3.6206,3.6593,3.6799,3.7422,3.6955,3.6203,3.5334,3.5931,3.6778,3.7682,3.9086,4.0236,4.0714,4.3048,4.4104,4.2816,4.4251,4.4982,4.4312,4.3326,4.1533,3.8729,3.8597,3.7788,3.605,3.5982,3.5982,3.5982,3.6289,3.6621,3.7051,3.7226,3.7656,3.832,3.8532,3.8611,3.8611,3.8611,3.8476,3.834,3.8496,3.8476,3.834,3.8552,3.8611,3.8611,3.8611,3.8611,3.8669,4.959,4.8224,4.7055,4.7055,4.7495,4.7887,4.7935,4.9773,5.0946,5.0469,5.0336,4.9916,4.8843,4.8234,4.7682,4.7074,4.6572,4.6301,4.6301,4.4853,4.3248,4.1569,3.9444,3.7463,3.5789,3.5079,3.4297,3.3445,3.3066,3.2441,3.1621,3.1152,3.0976,3.0996,3.0957,3.0937,3.0937,3.0937,3.0918,3.0898,3.0898,3.0898,3.0898,3.0898,3.0898,3.0898,3.0898,3.0898,3.0898,3.0898,3.1903,3.343,3.5,3.4719,3.3754,3.3609,3.2922,3.2257,3.2257,3.257,3.2949,3.332,3.3386,3.3503,3.3926,3.5459,3.6907,3.7403,3.9153,4.0129,3.8755,3.8868,3.8559,3.6683,3.7949,3.9143,3.8922,4.0815,4.2033,4.1505,4.3298,4.3701,4.1418,4.258,4.2769,4.1085,4.0956,4.0235,3.8528,3.8449,3.7703,3.6108,3.604,3.6021,3.5982,3.5982,3.625,3.6773,3.7109,3.7539,3.7988,3.8398,3.863,3.8669,3.863,3.8379,3.8066,3.8418,3.834,3.8027,3.8418,3.8611,3.8611,3.8611,3.8611,3.8669,4.9515,4.9274,4.899,4.899,4.909,4.9338,4.976,4.9914,5.0067,5.0336,5.0042,4.9339,4.8209,4.7983,4.7531,4.6547,4.6376,4.6301,4.6301,4.6337,4.5617,4.3938,4.2104,4.03,3.8582,3.5997,3.4453,3.3958,3.3496,3.3027,3.25,3.1738,3.1562,3.1905,3.1543,3.1387,3.1387,3.1387,3.1191,3.0898,3.0898,3.0898,3.0898,3.0898,3.0898,3.0898,3.0898,3.0898,3.0898,3.0898,3.2105,3.345,3.2694,3.3282,3.4021,3.2844,3.2579,3.2656,3.2656,3.2969,3.3269,3.3367,3.3386,3.3406,3.3535,3.5428,3.7571,3.9037,4.0271,4.1488,4.2887,4.0979,3.9205,3.9204,3.9187,3.9663,4.0946,4.2793,4.382,4.3216,4.4018,4.3701,4.1418,4.1533,4.102,3.9289,3.9157,3.8566,3.7206,3.7123,3.6917,3.6558,3.6558,3.6367,3.5982,3.5982,3.6406,3.7168,3.7246,3.7695,3.8437,3.8535,3.875,3.9043,3.8747,3.8711,3.8906,3.8708,3.8552,3.8437,3.8571,3.8611,3.8611,3.8611,3.8611,3.8669,4.917,4.9414,4.959,4.959,4.9816,5.0167,5.0745,5.0594,5.0494,5.0795,5.0343,4.9565,4.8435,4.8083,4.7481,4.6401,4.6301,4.6396,4.6647,4.6948,4.6464,4.5032,4.4112,4.2814,4.1042,3.9401,3.7308,3.4707,3.4258,3.3809,3.3379,3.2519,3.2246,3.2472,3.2012,3.1816,3.1816,3.1601,3.1387,3.1172,3.0976,3.1325,3.1969,3.1969,3.2379,3.29,3.2207,3.1618,3.123,3.1426,3.2187,3.2872,3.2293,3.2823,3.3468,3.2706,3.2617,3.2793,3.2793,3.2949,3.3164,3.3347,3.3386,3.3476,3.3691,3.559,3.7604,3.8738,4.077,4.2238,4.1808,4.1709,4.1199,3.9613,4.0671,4.1906,4.2614,4.3811,4.4381,4.3747,4.3489,4.2522,4.0454,3.951,3.877,3.8017,3.7787,3.7513,3.7023,3.7007,3.7007,3.7007,3.6812,3.6597,3.6328,3.6133,3.6445,3.7305,3.7305,3.7637,3.8281,3.8513,3.8691,3.8887,3.8708,3.8574,3.8594,3.8574,3.8493,3.8281,3.8496,3.8611,3.8611,3.8611,3.8611,3.865,4.8642,4.8987,4.9339,4.9439,4.9841,5.0318,5.0896,5.0996,5.0996,5.0996,5.0569,4.9866,4.8736,4.8033,4.728,4.6376,4.6401,4.6622,4.7074,4.7274,4.6991,4.6006,4.5709,4.4854,4.3423,4.3002,4.0692,3.6416,3.6015,3.5411,3.4623,3.3752,3.328,3.3105,3.2628,3.2413,3.2394,3.2274,3.2157,3.2028,3.1945,3.2642,3.3742,3.3742,3.4335,3.5007,3.3792,3.2618,3.168,3.2081,3.2237,3.2374,3.2676,3.2851,3.291,3.291,3.291,3.291,3.291,3.291,3.2988,3.3308,3.3386,3.3516,3.3887,3.5651,3.7308,3.7706,4.0656,4.233,3.9648,4.1564,4.2489,3.9368,4.1469,4.3374,4.2987,4.356,4.3726,4.291,4.1801,4.0472,3.8919,3.7597,3.6949,3.7266,3.6973,3.6988,3.7383,3.7402,3.7402,3.7402,3.707,3.689,3.6812,3.6426,3.6621,3.7402,3.7402,3.7617,3.8047,3.8418,3.865,3.8708,3.865,3.8418,3.8164,3.8457,3.8359,3.8066,3.8437,3.8611,3.8611,3.8611,3.8611,3.8611,4.7933,4.8083,4.8284,4.8818,4.8969,4.922,4.9741,4.9816,4.9816,4.9816,4.9766,4.9264,4.8159,4.7129,4.6476,4.6326,4.6722,4.7023,4.7099,4.8033,4.8522,4.8351,4.69,4.5975,4.5746,4.3811,4.2044,4.0479,4.0445,3.9194,3.6864,3.5977,3.5156,3.4414,3.3613,3.3242,3.3336,3.4626,3.4771,3.4219,3.5562,3.6207,3.6378,3.6378,3.5634,3.4583,3.4399,3.3361,3.212,3.2179,3.2433,3.2715,3.2773,3.3047,3.3308,3.3308,3.3308,3.3308,3.3308,3.3308,3.3328,3.3386,3.3386,3.3406,3.3464,3.5184,3.6886,3.7287,3.926,4.1054,4.1457,4.0638,3.9878,3.9922,3.9905,3.9884,3.982,4.0878,4.1055,3.9485,3.8165,3.7331,3.7055,3.7167,3.7226,3.7285,3.7246,3.7402,3.7812,3.7796,3.7796,3.7796,3.7773,3.7578,3.7226,3.7148,3.7363,3.7796,3.7796,3.8066,3.8532,3.8591,3.8769,3.9101,3.873,3.875,3.9004,3.8728,3.8571,3.8496,3.8591,3.8611,3.8611,3.8611,3.8611,3.8611,4.74,4.7676,4.7983,4.8234,4.8592,4.8994,4.9515,4.959,4.9715,5.0017,4.9791,4.9289,4.8485,4.7431,4.6747,4.6747,4.6973,4.735,4.8008,4.8542,4.8944,4.9213,4.8514,4.8101,4.8101,4.7117,4.6086,4.4974,4.2761,4.043,3.8,3.736,3.6368,3.5059,3.4414,3.4141,3.4218,3.5675,3.5867,3.5357,3.6823,3.7685,3.8134,3.8134,3.7816,3.7186,3.5951,3.437,3.291,3.3176,3.3203,3.3144,3.3144,3.3281,3.3386,3.3386,3.3594,3.373,3.3464,3.3594,3.3789,3.3789,3.3789,3.3789,3.3789,3.4545,3.5359,3.5751,3.7537,3.897,3.8687,3.9555,4.0081,3.9386,3.9849,4.0323,4.0323,3.9986,3.9092,3.7341,3.7065,3.7047,3.7047,3.7402,3.7754,3.7988,3.7793,3.7832,3.8262,3.8281,3.8281,3.8281,3.8047,3.7796,3.7656,3.7422,3.75,3.7894,3.7894,3.8164,3.8611,3.8611,3.8708,3.8848,3.8689,3.8708,3.8828,3.8689,3.8611,3.8611,3.8611,3.8611,3.8611,3.8611,3.8611,3.8611]},{"header":{"parameterUnit":"m.s-1","parameterCategory":1,"la1":30.6,"la2":28.766,"lo1":-90.7593,"lo2":-88.6598,"dy":0.0162,"dx":0.0183,"nx":116,"ny":114,"refTime":"2023-05-24T00:00:00:Z","depth":0,"parameterNumber":3,"parameterNumberName":"V-component_of_WINDS"},"data":[0.0,0.0,0.0,0.0,0.0,0.0,0.0,0.0,0.0,0.0,0.0,0.0,0.0,0.0,0.0,0.0,0.0,0.0,0.0,0.0,0.0,0.0,0.0,0.0,0.0,0.0,0.0,0.0,0.0,0.0,0.0,0.0,0.0,0.0,0.0,0.0,0.0,0.0,0.0,0.0,0.0,0.0,0.0,0.0,0.0,0.0,0.0,0.0,0.0,0.0,0.0,0.0,0.0,0.0,0.0,0.0,0.0,0.0,0.0,0.0,0.0,0.0,0.0,0.0,0.0,0.0,0.0,0.0,0.0,0.0,0.0,0.0,0.0,0.0,0.0,0.0,0.0,0.0,0.0,0.0,0.0,0.0,0.0,0.0,0.0,0.0,0.0,0.0,0.0,0.0,0.0,0.0,0.0,0.0,0.0,0.0,0.0,0.0,0.0,0.0,0.0,0.0,0.0,0.0,0.0,0.0,0.0,0.0,0.0,0.0,0.0,0.0,0.0,0.0,0.0,0.0,0.0,0.0,0.0,0.0,0.0,0.0,0.0,0.0,0.0,0.0,0.0,0.0,0.0,0.0,0.0,0.0,0.0,0.0,0.0,0.0,0.0,0.0,0.0,0.0,0.0,0.0,0.0,0.0,0.0,0.0,0.0,0.0,0.0,0.0,0.0,0.0,0.0,0.0,0.0,0.0,0.0,0.0,0.0,0.0,0.0,0.0,0.0,0.0,0.0,0.0,0.0,0.0,0.0,0.0,0.0,0.0,0.0,0.0,0.0,0.0,0.0,0.0,0.0,0.0,0.0,0.0,0.0,0.0,0.0,0.0,0.0,0.0,0.0,0.0,0.0,0.0,0.0,0.0,0.0,0.0,0.0,0.0,0.0,0.0,0.0,0.0,0.0,0.0,0.0,0.0,0.0,0.0,0.0,0.0,0.0,0.0,0.0,0.0,0.0,0.0,0.0,0.0,0.0,0.0,0.0,0.0,0.0,0.0,0.0,0.0,0.0,0.0,0.0,0.0,0.0,0.0,0.0,0.0,0.0,0.0,0.0,0.0,0.0,0.0,0.0,0.0,0.0,0.0,0.0,0.0,0.0,0.0,0.0,0.0,0.0,0.0,0.0,0.0,0.0,0.0,0.0,0.0,0.0,0.0,0.0,0.0,0.0,0.0,0.0,0.0,0.0,0.0,0.0,0.0,0.0,0.0,0.0,0.0,0.0,0.0,0.0,0.0,0.0,0.0,0.0,0.0,0.0,0.0,0.0,0.0,0.0,0.0,0.0,0.0,0.0,0.0,0.0,0.0,0.0,0.0,0.0,0.0,0.0,0.0,0.0,0.0,0.0,0.0,0.0,0.0,0.0,0.0,0.0,0.0,0.0,0.0,0.0,0.0,0.0,0.0,0.0,0.0,0.0,0.0,0.0,0.0,0.0,0.0,0.0,0.0,0.0,0.0,0.0,0.0,0.0,0.0,0.0,0.0,0.0,0.0,0.0,0.0,0.0,0.0,0.0,0.0,0.0,0.0,0.0,0.0,0.0,0.0,0.0,0.0,0.0,0.0,0.0,0.0,0.0,0.0,0.0,0.0,0.0,0.0,0.0,0.0,0.0,0.0,0.0,0.0,0.0,0.0,0.0,0.0,0.0,0.0,0.0,0.0,0.0,0.0,0.0,0.0,0.0,0.0,0.0,0.0,0.0,0.0,0.0,0.0,0.0,0.0,0.0,0.0,0.0,0.0,0.0,0.0,0.0,0.0,0.0,0.0,0.0,0.0,0.0,0.0,0.0,0.0,0.0,0.0,0.0,0.0,0.0,0.0,0.0,0.0,0.0,0.0,0.0,0.0,0.0,0.0,0.0,0.0,0.0,0.0,0.0,0.0,0.0,0.0,0.0,0.0,0.0,0.0,0.0,0.0,0.0,0.0,0.0,0.0,0.0,0.0,0.0,0.0,0.0,0.0,0.0,0.0,0.0,0.0,0.0,0.0,0.0,0.0,0.0,0.0,0.0,0.0,0.0,0.0,0.0,0.0,0.0,0.0,0.0,0.0,0.0,0.0,0.0,0.0,0.0,0.0,0.0,0.0,0.0,0.0,0.0,0.0,0.0,0.0,0.0,0.0,0.0,0.0,0.0,0.0,0.0,0.0,0.0,0.0,0.0,0.0,0.0,0.0,0.0,0.0,0.0,0.0,0.0,0.0,0.0,0.0,0.0,0.0,0.0,0.0,0.0,0.0,0.0,0.0,0.0,0.0,0.0,0.0,0.0,0.0,0.0,0.0,0.0,0.0,0.0,0.0,0.0,0.0,0.0,0.0,0.0,0.0,0.0,0.0,0.0,0.0,0.0,0.0,0.0,0.0,0.0,0.0,0.0,0.0,0.0,0.0,0.0,0.0,0.0,0.0,0.0,0.0,0.0,0.0,0.0,0.0,0.0,0.0,0.0,0.0,0.0,0.0,0.0,0.0,0.0,0.0,0.0,0.0,0.0,0.0,0.0,0.0,0.0,0.0,0.0,0.0,0.0,0.0,0.0,0.0,0.0,0.0,0.0,0.0,0.0,0.0,0.0,0.0,0.0,0.0,0.0,0.0,0.0,0.0,0.0,0.0,0.0,0.0,0.0,0.0,0.0,0.0,0.0,0.0,0.0,0.0,0.0,0.0,0.0,0.0,0.0,0.0,0.0,0.0,0.0,0.0,0.0,0.0,0.0,0.0,0.0,0.0,0.0,0.0,0.0,0.0,0.0,0.0,0.0,0.0,0.0,0.0,0.0,0.0,0.0,0.0,0.0,0.0,0.0,0.0,0.0,0.0,0.0,0.0,0.0,0.0,0.0,0.0,0.0,0.0,0.0,0.0,0.0,0.0,0.0,0.0,0.0,0.0,0.0,0.0,0.0,0.0,0.0,0.0,0.0,0.0,0.0,0.0,0.0,0.0,0.0,0.0,0.0,0.0,0.0,0.0,0.0,0.0,0.0,0.0,0.0,0.0,0.0,0.0,0.0,0.0,0.0,0.0,0.0,0.0,0.0,0.0,0.0,0.0,0.0,0.0,0.0,0.0,0.0,0.0,0.0,0.0,0.0,0.0,0.0,0.0,0.0,0.0,0.0,0.0,0.0,0.0,0.0,0.0,0.0,0.0,0.0,0.0,0.0,0.0,0.0,0.0,0.0,0.0,0.0,0.0,0.0,0.0,0.0,0.0,0.0,0.0,0.0,0.0,0.0,0.0,0.0,0.0,0.0,0.0,0.0,0.0,0.0,0.0,0.0,0.0,0.0,0.0,0.0,0.0,0.0,0.0,0.0,0.0,0.0,0.0,0.0,0.0,0.0,0.0,0.0,0.0,0.0,0.0,0.0,0.0,0.0,0.0,0.0,0.0,0.0,0.0,0.0,0.0,0.0,0.0,0.0,0.0,0.0,0.0,0.0,0.0,0.0,0.0,0.0,0.0,0.0,0.0,0.0,0.0,0.0,0.0,0.0,0.0,0.0,0.0,0.0,0.0,0.0,0.0,0.0,0.0,0.0,0.0,0.0,0.0,0.0,0.0,0.0,0.0,0.0,0.0,0.0,0.0,0.0,0.0,0.0,0.0,0.0,0.0,0.0,0.0,0.0,0.0,0.0,0.0,0.0,0.0,0.0,0.0,0.0,0.0,0.0,0.0,0.0,0.0,0.0,0.0,0.0,0.0,0.0,0.0,0.0,0.0,0.0,0.0,0.0,0.0,0.0,0.0,0.0,0.0,0.0,0.0,0.0,0.0,0.0,0.0,0.0,0.0,0.0,0.0,0.0,0.0,0.0,0.0,0.0,0.0,0.0,0.0,0.0,0.0,0.0,0.0,0.0,0.0,0.0,0.0,0.0,0.0,0.0,0.0,0.0,0.0,0.0,0.0,0.0,0.0,0.0,0.0,0.0,0.0,0.0,0.0,0.0,0.0,0.0,0.0,0.0,0.0,0.0,0.0,0.0,0.0,0.0,0.0,0.0,0.0,0.0,0.0,0.0,0.0,0.0,0.0,0.0,0.0,0.0,0.0,0.0,0.0,0.0,0.0,0.0,0.0,0.0,0.0,0.0,0.0,0.0,0.0,0.0,0.0,0.0,0.0,0.0,0.0,0.0,0.0,0.0,0.0,0.0,0.0,0.0,0.0,0.0,0.0,0.0,0.0,0.0,0.0,0.0,0.0,0.0,0.0,0.0,0.0,0.0,0.0,0.0,0.0,0.0,0.0,0.0,0.0,0.0,0.0,0.0,0.0,0.0,0.0,0.0,0.0,0.0,0.0,0.0,0.0,0.0,0.0,0.0,0.0,0.0,0.0,0.0,0.0,0.0,0.0,0.0,0.0,0.0,0.0,0.0,0.0,0.0,0.0,0.0,0.0,0.0,0.0,0.0,0.0,0.0,0.0,0.0,0.0,0.0,0.0,0.0,0.0,0.0,0.0,0.0,0.0,0.0,0.0,0.0,0.0,0.0,0.0,0.0,0.0,0.0,0.0,0.0,0.0,0.0,0.0,0.0,0.0,0.0,0.0,0.0,0.0,0.0,0.0,0.0,0.0,0.0,0.0,0.0,0.0,0.0,0.0,0.0,0.0,0.0,0.0,0.0,0.0,0.0,0.0,0.0,0.0,0.0,0.0,0.0,0.0,0.0,0.0,0.0,0.0,0.0,0.0,0.0,0.0,0.0,0.0,0.0,0.0,0.0,0.0,0.0,0.0,0.0,0.0,0.0,0.0,0.0,0.0,0.0,0.0,0.0,0.0,0.0,0.0,0.0,0.0,0.0,0.0,0.0,0.0,0.0,0.0,0.0,0.0,0.0,0.0,0.0,0.0,0.0,0.0,0.0,0.0,0.0,0.0,0.0,0.0,0.0,0.0,0.0,0.0,0.0,0.0,0.0,0.0,0.0,0.0,0.0,0.0,0.0,0.0,0.0,0.0,0.0,0.0,0.0,0.0,0.0,0.0,0.0,0.0,0.0,0.0,0.0,0.0,0.0,0.0,0.0,0.0,0.0,0.0,0.0,0.0,0.0,0.0,0.0,0.0,0.0,0.0,0.0,0.0,0.0,0.0,0.0,0.0,0.0,0.0,0.0,0.0,0.0,0.0,0.0,0.0,0.0,0.0,0.0,0.0,0.0,0.0,0.0,0.0,0.0,0.0,0.0,0.0,0.0,0.0,0.0,0.0,0.0,0.0,0.0,0.0,0.0,0.0,0.0,0.0,0.0,0.0,0.0,0.0,0.0,0.0,0.0,0.0,0.0,0.0,0.0,0.0,0.0,0.0,0.0,0.0,0.0,0.0,0.0,0.0,0.0,0.0,0.0,0.0,0.0,0.0,0.0,0.0,0.0,0.0,0.0,0.0,0.0,0.0,0.0,0.0,0.0,0.0,0.0,0.0,0.0,0.0,0.0,0.0,0.0,0.0,0.0,0.0,0.0,0.0,0.0,0.0,0.0,0.0,0.0,0.0,0.0,0.0,0.0,0.0,0.0,0.0,0.0,0.0,0.0,0.0,0.0,0.0,0.0,0.0,0.0,0.0,0.0,0.0,0.0,0.0,0.0,0.0,0.0,0.0,0.0,0.0,0.0,0.0,0.0,0.0,0.0,0.0,0.0,0.0,0.0,0.0,0.0,0.0,0.0,0.0,0.0,0.0,0.0,0.0,0.0,0.0,0.0,0.0,0.0,0.0,0.0,0.0,0.0,0.0,0.0,0.0,0.0,0.0,0.0,0.0,0.0,0.0,0.0,0.0,0.0,0.0,0.0,0.0,0.0,0.0,0.0,0.0,0.0,0.0,0.0,0.0,0.0,0.0,0.0,0.0,0.0,0.0,0.0,0.0,0.0,0.0,0.0,0.0,0.0,0.0,0.0,0.0,0.0,0.0,0.0,0.0,0.0,0.0,0.0,0.0,0.0,0.0,0.0,0.0,0.0,0.0,0.0,0.0,0.0,0.0,0.0,0.0,0.0,0.0,0.0,0.0,0.0,0.0,0.0,0.0,0.0,0.0,0.0,0.0,0.0,0.0,0.0,0.0,0.0,0.0,0.0,0.0,0.0,0.0,0.0,0.0,0.0,0.0,0.0,0.0,0.0,0.0,0.0,0.0,0.0,0.0,2.0899,0.0,0.0,0.0,0.0,0.0,0.0,0.0,0.0,0.0,0.0,0.0,0.0,0.0,0.0,0.0,0.0,0.0,0.0,0.0,0.0,0.0,0.0,0.0,0.0,0.0,0.0,0.0,0.0,0.0,0.0,0.0,0.0,0.0,0.0,0.0,0.0,0.0,0.0,0.0,2.2662,2.2817,2.2657,2.296,2.3195,2.3395,0.0,0.0,0.0,0.0,0.0,0.0,0.0,0.0,0.0,0.0,0.0,0.0,0.0,0.0,0.0,0.0,0.0,0.0,0.0,0.0,0.0,0.0,0.0,0.0,0.0,0.0,0.0,0.0,0.0,0.0,0.0,0.0,0.0,0.0,0.0,0.0,0.0,0.0,0.0,0.0,0.0,0.0,0.0,0.0,0.0,0.0,0.0,0.0,0.0,0.0,0.0,0.0,0.0,0.0,0.0,0.0,0.0,0.0,0.0,0.0,0.0,0.0,0.0,0.0,0.0,0.0,0.0,0.0,0.0,0.0,0.0,2.2734,0.0,0.0,0.0,0.0,0.0,0.0,0.0,0.0,0.0,0.0,0.0,0.0,0.0,0.0,0.0,0.0,0.0,0.0,0.0,0.0,0.0,0.0,0.0,0.0,1.6236,1.6633,1.6296,1.6241,0.0,0.0,0.0,0.0,0.0,0.0,0.0,2.1972,2.2931,2.3236,2.3309,2.3977,2.5184,2.6178,2.6465,2.6087,2.5528,0.0,0.0,0.0,0.0,0.0,0.0,0.0,0.0,0.0,0.0,0.0,0.0,0.0,0.0,0.0,0.0,0.0,0.0,0.0,0.0,0.0,0.0,0.0,0.0,0.0,0.0,0.0,0.0,0.0,0.0,0.0,0.0,0.0,0.0,0.0,0.0,0.0,0.0,0.0,0.0,0.0,0.0,0.0,0.0,0.0,0.0,0.0,0.0,0.0,0.0,0.0,0.0,0.0,0.0,0.0,0.0,0.0,0.0,0.0,0.0,0.0,0.0,0.0,3.0788,3.139,3.1763,3.1366,3.1061,3.073,2.8691,2.6619,2.4766,2.5562,0.0,0.0,0.0,0.0,0.0,0.0,0.0,0.0,0.0,0.0,0.0,0.0,0.0,0.0,0.0,0.0,0.0,0.0,0.0,0.0,0.0,1.8122,1.8807,1.8874,1.8829,1.8807,0.0,0.0,0.0,0.0,0.0,0.0,2.2336,2.4695,2.5467,2.455,2.5524,2.7054,2.9087,2.9688,3.0189,3.0398,2.7055,2.6244,2.7339,0.0,0.0,0.0,0.0,0.0,0.0,0.0,0.0,0.0,0.0,0.0,0.0,0.0,0.0,0.0,0.0,0.0,0.0,0.0,0.0,0.0,0.0,0.0,0.0,0.0,0.0,0.0,0.0,0.0,0.0,0.0,0.0,0.0,0.0,0.0,0.0,0.0,0.0,0.0,0.0,0.0,2.3253,2.4059,0.0,0.0,0.0,0.0,0.0,0.0,0.0,0.0,0.0,0.0,0.0,0.0,0.0,2.9149,3.0648,3.2724,3.3577,3.329,3.5302,3.6028,3.5656,3.5604,3.5802,3.6125,3.5379,0.0,2.7882,2.7901,0.0,0.0,0.0,0.0,0.0,0.0,0.0,0.0,0.0,0.0,0.0,0.0,0.0,0.0,0.0,0.0,0.0,0.0,0.0,0.0,0.0,1.9688,2.0446,2.0976,2.1698,2.1805,2.1083,2.2266,0.0,0.0,0.0,2.374,2.3445,2.5233,2.6707,2.7771,3.0726,3.2525,3.3231,3.4473,3.5177,3.5276,3.224,3.0253,2.9168,2.8241,0.0,0.0,0.0,0.0,0.0,0.0,0.0,0.0,0.0,0.0,0.0,0.0,0.0,0.0,0.0,0.0,0.0,0.0,0.0,0.0,0.0,0.0,0.0,0.0,0.0,0.0,0.0,0.0,0.0,0.0,0.0,0.0,0.0,0.0,0.0,0.0,0.0,0.0,0.0,2.4954,2.6177,2.525,2.6619,2.7021,0.0,0.0,0.0,0.0,0.0,0.0,0.0,0.0,0.0,3.1668,3.2931,3.4052,3.5114,3.6701,3.7689,3.8083,3.9365,4.0049,4.0099,4.01,4.0075,3.9999,3.9748,3.7817,3.4628,3.2703,3.0525,2.8311,0.0,0.0,0.0,0.0,2.4739,2.4462,0.0,0.0,0.0,0.0,0.0,0.0,0.0,0.0,0.0,0.0,0.0,0.0,2.0634,2.1737,2.2698,2.3575,2.4519,2.4655,2.3715,2.4657,2.4569,2.2989,2.4268,2.4996,2.4988,2.6802,2.9056,3.1756,3.5347,3.7071,3.7038,3.8615,3.9333,3.9257,3.737,3.4891,3.2006,3.0141,2.9183,2.8925,0.0,0.0,0.0,0.0,0.0,0.0,0.0,0.0,0.0,0.0,0.0,0.0,0.0,0.0,0.0,0.0,0.0,0.0,0.0,0.0,0.0,0.0,0.0,0.0,0.0,0.0,0.0,0.0,0.0,0.0,0.0,0.0,0.0,0.0,0.0,0.0,0.0,2.7679,2.8575,2.6547,2.8591,2.9329,0.0,0.0,0.0,0.0,0.0,0.0,3.076,3.3072,3.4798,3.5746,3.7914,3.947,4.0287,4.1673,4.2785,4.3587,4.4183,4.457,4.4827,4.4827,4.4516,4.3946,4.3409,4.2377,4.0823,3.6926,3.3848,3.145,3.0329,2.9043,2.7865,2.8325,2.8284,2.8192,0.0,0.0,0.0,0.0,0.0,0.0,0.0,0.0,0.0,0.0,0.0,2.1533,2.2646,2.4895,2.6514,2.7007,2.7104,2.7129,2.7054,2.5653,2.5018,2.5411,2.5519,2.6228,2.766,3.0993,3.3886,3.6267,3.7693,3.895,4.003,4.1102,4.1618,4.159,4.0974,3.9071,3.606,3.2169,3.0809,3.1155,3.0105,0.0,0.0,0.0,0.0,0.0,0.0,0.0,0.0,0.0,0.0,0.0,0.0,0.0,0.0,0.0,0.0,0.0,0.0,0.0,0.0,0.0,0.0,0.0,0.0,0.0,0.0,0.0,0.0,0.0,0.0,0.0,0.0,0.0,0.0,0.0,0.0,0.0,0.0,2.8875,3.1643,0.0,0.0,0.0,0.0,3.1146,3.2644,3.4289,3.5945,3.7115,3.8717,4.0871,4.2996,4.4891,4.6532,4.8627,4.9714,4.9769,5.0297,5.027,4.9745,4.9745,4.9387,4.8646,4.6678,4.5471,4.452,3.9241,3.6684,3.579,3.3103,3.2331,3.2599,3.1598,3.1196,3.1173,0.0,0.0,0.0,0.0,0.0,0.0,0.0,0.0,1.9906,2.1,2.2775,2.486,2.7275,2.9412,3.0903,3.156,3.1915,3.1351,2.9541,2.8549,2.762,2.6733,2.7276,2.897,3.1887,3.4447,3.705,3.97,4.1827,4.3299,4.4134,4.5398,4.5989,4.5938,4.4528,4.3123,4.1434,3.5418,3.2751,3.2398,2.9764,2.9026,0.0,0.0,0.0,0.0,0.0,0.0,0.0,0.0,0.0,0.0,0.0,0.0,0.0,0.0,0.0,0.0,0.0,0.0,0.0,0.0,0.0,0.0,0.0,0.0,0.0,0.0,0.0,0.0,0.0,0.0,0.0,0.0,0.0,0.0,0.0,0.0,0.0,3.4248,3.6232,0.0,3.4202,3.4379,3.4899,3.559,3.7845,4.0089,4.2159,4.4618,4.6865,4.8755,4.9909,5.0982,5.1938,5.2289,5.2461,5.2461,5.221,5.1987,5.1793,5.1793,5.146,5.085,4.9666,4.827,4.6664,4.3991,4.1158,3.8316,3.6227,3.5341,3.5169,3.4768,3.4626,3.4723,0.0,0.0,0.0,0.0,0.0,0.0,0.0,0.0,2.136,2.2458,2.4829,2.7498,3.0398,3.2789,3.4539,3.5405,3.5102,3.3974,3.1895,3.0445,2.9295,2.8393,2.9994,3.2238,3.5155,3.7879,4.0514,4.306,4.5244,4.6651,4.7339,4.8207,4.8648,4.8574,4.7324,4.6591,4.5873,4.0112,3.6314,3.392,3.1201,3.0438,3.0678,0.0,0.0,0.0,0.0,0.0,0.0,0.0,0.0,0.0,0.0,0.0,0.0,0.0,0.0,0.0,0.0,0.0,0.0,0.0,0.0,0.0,0.0,0.0,0.0,0.0,0.0,0.0,0.0,0.0,0.0,0.0,0.0,0.0,0.0,0.0,3.9123,3.9537,4.1243,4.1844,4.037,4.0423,4.0948,4.1893,4.4183,4.6237,4.7921,5.0464,5.2463,5.3797,5.4903,5.5642,5.6064,5.6163,5.6194,5.6194,5.5738,5.5424,5.5168,5.4968,5.454,5.3941,5.2738,5.1377,4.9801,4.8298,4.5901,4.2918,4.0033,3.8668,3.8341,3.814,3.8065,3.8115,0.0,0.0,0.0,0.0,0.0,0.0,0.0,2.034,2.1836,2.2577,2.6119,2.947,3.1819,3.4952,3.7339,3.8432,3.6416,3.48,3.41,3.1235,2.9848,3.0519,3.3558,3.5943,3.7397,4.131,4.4386,4.642,4.7728,4.8708,4.9337,4.9366,4.9366,4.9366,4.9366,4.9337,4.9172,4.6145,4.1458,3.6001,3.4714,3.3787,3.2928,0.0,0.0,0.0,0.0,0.0,0.0,0.0,0.0,0.0,0.0,0.0,0.0,0.0,0.0,0.0,0.0,0.0,0.0,0.0,0.0,0.0,0.0,0.0,0.0,0.0,0.0,0.0,0.0,0.0,0.0,0.0,0.0,0.0,3.6957,4.1173,4.4265,4.4537,4.655,4.7502,4.6542,4.7912,4.9128,4.9797,5.1427,5.2631,5.3188,5.4303,5.5193,5.5716,5.7763,5.8841,5.8841,6.037,6.1134,6.1134,6.1106,6.0775,6.0114,5.9458,5.88,5.8035,5.5948,5.4683,5.3994,5.1901,5.0684,4.9664,4.4448,4.2372,4.2242,4.1688,4.146,4.1306,0.0,0.0,0.0,0.0,0.0,0.0,0.0,2.1197,2.3333,2.4035,2.8785,3.3084,3.5616,3.8841,4.0989,4.1407,3.8845,3.6732,3.5648,3.2372,3.1488,3.379,3.5587,3.8331,4.2278,4.3926,4.6181,4.9142,4.9501,5.0009,5.069,5.1169,5.1379,5.1379,5.09,5.069,5.0548,4.8774,4.6018,4.2458,3.8248,3.5717,3.426,0.0,0.0,0.0,0.0,0.0,0.0,0.0,0.0,0.0,0.0,0.0,0.0,0.0,0.0,0.0,0.0,0.0,0.0,0.0,0.0,0.0,0.0,0.0,0.0,0.0,0.0,0.0,0.0,0.0,0.0,0.0,0.0,4.3118,4.1537,4.5211,4.869,5.0397,5.1515,5.2017,5.1738,5.2129,5.2658,5.3271,5.5197,5.6795,5.7796,5.9248,6.0352,6.0969,6.1583,6.1875,6.1875,6.1832,6.1822,6.1822,6.1343,6.1014,6.0835,6.0655,6.0176,5.9491,5.8394,5.7007,5.532,5.4247,5.3077,5.1626,4.8027,4.5955,4.5039,4.5525,4.4781,4.352,0.0,0.0,0.0,0.0,0.0,0.0,0.0,2.1586,2.3935,2.46,3.0075,3.4891,3.7524,4.0786,4.2823,4.2905,4.0168,3.7758,3.6231,3.4146,3.4168,3.6852,3.8954,4.1784,4.5463,4.701,4.8985,5.1445,5.1744,5.2223,5.2875,5.2995,5.3174,5.3414,5.2456,5.2187,5.2372,5.105,4.9509,4.7568,4.3899,4.0746,3.7989,3.5736,3.4915,3.4835,3.382,3.368,3.3855,3.2504,0.0,0.0,0.0,0.0,0.0,0.0,0.0,0.0,0.0,0.0,0.0,0.0,0.0,0.0,0.0,0.0,0.0,0.0,0.0,0.0,0.0,0.0,0.0,0.0,4.5381,4.9321,4.9356,5.1555,5.3852,5.5757,5.6737,5.7283,5.7283,5.7513,5.783,5.8203,5.9364,6.0471,6.1439,6.2139,6.2929,6.3857,6.3617,6.3468,6.3468,6.3079,6.278,6.251,6.2121,6.1942,6.1942,6.1642,6.1313,6.0894,6.0236,5.923,5.8037,5.7364,5.6574,0.0,0.0,0.0,0.0,0.0,4.7606,4.6325,0.0,0.0,0.0,0.0,0.0,0.0,0.0,2.1669,2.3963,2.4725,3.047,3.5446,3.793,4.1126,4.313,4.319,4.0646,3.8279,3.6483,3.6367,3.7484,3.9953,4.307,4.5702,4.7818,5.0249,5.2247,5.3648,5.4162,5.479,5.5508,5.485,5.485,5.5359,5.4097,5.3862,5.4341,5.2995,5.2037,5.1295,5.0115,4.7001,4.2767,4.0111,3.9907,4.0829,3.9285,3.8056,3.6964,3.5331,0.0,0.0,0.0,0.0,0.0,0.0,0.0,0.0,0.0,0.0,0.0,0.0,0.0,0.0,0.0,0.0,0.0,0.0,0.0,0.0,0.0,0.0,0.0,0.0,5.0248,5.4855,5.8459,5.8977,5.9428,6.0505,6.1762,6.251,6.2421,6.3079,6.3527,6.3437,6.3437,6.3677,6.4306,0.0,0.0,0.0,0.0,6.4216,6.4216,6.4156,6.3827,6.3317,6.3257,6.3197,6.3197,6.2539,6.2181,6.2061,6.1493,6.1166,6.1046,6.0446,6.0206,5.9689,5.44,5.2408,5.2351,5.1095,5.0233,4.9621,0.0,0.0,0.0,0.0,0.0,0.0,0.0,2.1669,2.4143,2.5337,3.0748,3.5086,3.6703,3.9817,4.2002,4.2541,4.0576,3.9156,3.8751,3.8721,4.036,4.4018,4.6322,4.8686,5.1199,5.2815,5.4521,5.6346,5.6013,5.6406,5.7517,5.6855,5.6615,5.6705,5.5953,5.5683,5.5743,5.4371,5.3414,5.2725,5.1947,4.9027,4.4953,4.3423,4.2181,4.1137,4.0384,4.0473,4.0751,3.9532,3.8494,3.7374,3.5157,3.2925,0.0,0.0,0.0,0.0,0.0,0.0,0.0,0.0,0.0,0.0,0.0,0.0,0.0,0.0,0.0,0.0,0.0,0.0,0.0,5.1338,5.5751,5.984,6.3207,6.4158,6.4395,6.4067,6.4784,6.5054,6.4486,6.5533,6.6011,6.5473,6.5443,6.5742,6.637,6.5802,6.5802,6.658,6.5951,6.5622,6.5622,6.5054,6.4725,6.4605,0.0,0.0,6.3797,6.3197,6.26,6.2091,6.1972,6.1613,6.1076,6.0954,6.0924,6.0518,5.6638,5.5534,5.5901,5.4483,5.3614,5.3124,0.0,0.0,0.0,0.0,0.0,0.0,0.0,2.1251,2.3875,2.549,3.0529,3.4518,3.5848,3.835,3.9787,3.9457,3.8212,3.7866,3.8841,4.0487,4.318,4.7121,4.9823,5.2306,5.461,5.6286,5.7633,5.859,5.862,5.8979,5.958,5.8919,5.877,5.9069,5.8082,5.7839,5.8108,5.7064,5.6077,5.5119,5.479,5.297,5.023,4.8306,4.7017,4.6208,4.5933,4.5553,4.494,4.3563,4.2157,4.0448,3.7289,3.53,3.3736,0.0,0.0,0.0,0.0,0.0,0.0,0.0,0.0,0.0,0.0,0.0,0.0,0.0,0.0,3.9566,0.0,0.0,5.3425,5.7299,6.0794,6.3857,6.6191,6.7089,6.7148,6.6131,6.658,6.6879,6.652,6.7418,6.7867,6.7537,6.7178,6.7418,6.8405,6.7208,6.7119,6.8435,6.7508,6.6999,6.6999,6.634,6.5802,6.5473,6.4844,6.4515,6.4485,6.3827,6.3348,6.3019,6.272,6.2391,6.2091,6.2091,6.1912,6.1408,5.9692,5.8826,5.845,5.7392,5.6618,5.6054,0.0,0.0,0.0,0.0,0.0,0.0,0.0,2.0738,2.3308,2.5051,2.9726,3.3314,3.4385,3.6363,3.7272,3.6357,3.6148,3.7045,3.9379,4.2432,4.6043,5.0265,5.3354,5.5807,5.7633,5.9398,6.0356,6.0475,6.0894,6.1194,6.1283,6.0595,6.0565,6.1046,5.9967,5.9787,6.0236,5.9578,5.868,5.7663,5.7543,5.6855,5.5718,5.3389,5.2223,5.1774,5.1648,5.0182,4.8118,4.6962,4.5055,4.2602,3.9366,3.7919,3.6883,3.4067,3.3254,0.0,0.0,0.0,0.0,0.0,0.0,0.0,0.0,0.0,3.6045,4.0456,4.2583,4.5607,5.2078,5.5938,5.9318,6.2845,6.5323,6.7238,6.8586,6.9213,6.9213,6.8256,6.8526,6.8706,6.8586,6.9273,6.9692,6.9572,6.9034,6.9243,7.0408,6.8884,6.8734,7.05,6.9275,6.8586,6.8586,6.7777,6.7119,6.658,6.5891,6.5503,6.5353,6.4695,6.4246,6.3977,6.3377,6.3108,6.3108,6.3108,6.278,6.2301,6.2301,6.1613,6.0593,5.9787,5.9069,5.8384,0.0,0.0,0.0,0.0,0.0,0.0,0.0,0.0,2.2376,2.3661,2.7865,3.0786,3.096,3.3337,3.5116,3.5579,3.7105,3.9649,4.3419,4.5663,4.9164,5.4336,5.6555,5.8321,5.9727,6.0565,6.1283,6.1882,6.1373,6.1403,6.1972,6.1313,6.1016,6.1076,6.0926,6.0924,6.0954,6.0266,5.9877,5.9697,5.9129,5.88,5.856,5.7666,5.5872,5.3803,5.3174,5.0983,4.8356,4.8776,4.6829,4.4186,4.3883,4.1958,3.9369,3.7524,3.5468,3.3671,3.3065,3.3014,3.3442,3.4803,3.5579,3.7416,0.0,0.0,4.5154,4.9245,5.242,5.5266,5.7968,6.1525,6.4964,6.7746,6.8974,6.9991,7.1278,7.1517,7.1727,7.2206,7.1787,7.1218,7.062,7.1727,7.2235,7.1607,7.152,7.1787,7.2535,7.1787,7.1727,7.2565,7.1278,7.059,7.059,6.9393,6.8734,6.8645,6.7956,6.7359,6.6759,6.6071,6.5144,6.3977,6.3377,6.3108,6.3108,6.3108,6.3048,6.2988,6.2988,6.2898,6.2629,6.1343,6.0446,5.9847,0.0,0.0,0.0,0.0,0.0,0.0,0.0,0.0,0.0,2.339,2.7227,2.9666,2.9262,3.0984,3.2437,3.3095,3.5699,3.8978,4.293,4.6493,5.0833,5.6077,5.8201,5.9877,6.1224,6.1912,6.2391,6.266,6.2391,6.2391,6.2689,6.2391,6.2241,6.2241,6.2241,6.2241,6.2241,6.197,6.1641,6.1224,6.0954,6.0625,6.0146,5.9099,5.7064,5.464,5.3588,5.1342,0.0,4.8768,4.754,4.5984,4.5328,4.4015,4.2157,3.9297,3.7674,3.6625,3.5736,3.5979,0.0,0.0,4.0106,4.3231,4.678,4.8898,5.16,5.6651,5.9014,6.1259,6.4863,6.7108,6.8944,0.0,7.1248,7.1876,7.2415,7.2804,7.2714,7.1846,7.2505,7.2954,7.2684,7.3163,7.3522,7.3646,7.3283,7.3343,7.4031,7.3043,7.2804,7.3462,7.2565,7.2086,7.2086,7.0769,7.0111,7.0081,6.9064,6.8435,6.8136,6.7059,6.5622,6.3977,6.3707,6.3408,6.3108,6.3108,6.3108,6.3108,6.3108,6.3108,6.2988,6.2032,6.1493,6.1134,0.0,0.0,0.0,0.0,0.0,0.0,0.0,0.0,0.0,0.0,2.6222,2.8463,2.8354,2.9433,3.0361,3.0879,3.4003,3.7721,4.1841,4.6634,5.1642,5.6855,5.9189,6.1074,6.26,6.2958,6.3197,6.3347,6.3197,6.3108,6.3108,6.3108,6.3108,6.3108,6.3108,6.3108,6.3108,6.3108,6.2838,6.2361,6.2361,6.1852,6.0896,5.9189,5.6825,5.4221,5.3054,5.0624,4.784,4.7339,4.6741,4.602,4.4981,4.4391,4.3449,4.0322,3.8924,3.8334,3.7805,0.0,0.0,4.1616,4.5146,4.8963,5.1993,5.4701,5.8081,6.322,6.4753,6.6328,7.0099,7.1308,7.1936,7.2628,7.3133,7.3462,7.3462,7.3402,7.2804,7.1338,7.1996,7.2684,7.3043,7.3582,7.418,7.4873,7.442,7.436,7.4873,7.3971,7.3672,7.4151,7.3522,7.3193,7.3193,7.2026,7.1368,7.1158,7.0231,6.9602,6.9213,6.7687,6.6191,6.4784,6.4246,6.3737,6.3347,6.3168,6.3108,6.3108,6.3108,6.3108,6.3048,6.254,6.2241,6.1942,0.0,0.0,0.0,0.0,0.0,0.0,0.0,0.0,0.0,0.0,0.0,0.0,0.0,2.8876,2.9362,2.9464,3.2581,3.654,4.1134,4.6373,5.1642,5.6855,5.9668,6.1972,6.3887,6.3407,6.3407,6.3977,6.3407,6.3108,6.3108,6.3108,6.3108,6.3108,6.3108,6.3108,6.3108,6.3108,6.3108,6.3078,6.3078,6.2271,6.0835,5.8171,5.5119,5.2187,5.1505,4.8334,4.4446,4.4416,4.3967,4.3339,4.2915,4.2773,4.2412,4.0599,3.8746,3.7485,3.8542,3.9622,4.1657,4.6771,5.023,5.4033,6.03,6.3136,6.5492,6.9015,7.0226,7.1093,7.2565,7.3373,7.4031,7.4723,7.4843,7.4843,7.4843,7.3197,7.1969,7.1909,7.026,6.9632,0.0,7.2744,7.418,7.4873,7.4903,7.4903,7.4903,7.4873,7.4873,7.4873,7.421,7.3881,7.3881,7.3193,7.2505,7.1846,7.1816,7.1191,6.9903,6.7897,6.6969,6.6789,6.4844,6.3977,6.3917,6.3347,6.3108,6.3108,6.3108,6.3108,6.3108,6.3078,6.266,6.2091,0.0,0.0,0.0,0.0,0.0,0.0,0.0,0.0,0.0,0.0,0.0,0.0,0.0,0.0,0.0,0.0,3.2122,3.5609,3.9798,4.5035,4.9912,5.4336,5.8321,6.0954,6.2061,6.275,6.3197,6.3378,6.3197,6.3108,6.3108,6.3108,6.3108,6.3108,6.3108,6.3108,6.3108,6.3108,6.3108,6.3018,6.2121,6.1493,6.0715,5.7184,5.3528,4.9965,0.0,4.5065,4.2862,4.1685,4.1153,4.0906,4.051,4.0397,4.0233,3.9501,3.9094,3.9626,4.3127,4.6253,4.9605,5.4136,5.8345,6.2224,6.5514,6.7949,6.9981,7.1598,7.1368,7.1038,7.1487,7.1757,7.2116,7.2807,7.4035,7.4903,7.4903,7.4689,7.3741,7.1563,7.1081,0.0,0.0,0.0,0.0,7.4192,7.5195,7.551,7.4907,7.4903,7.4903,7.4903,7.4693,7.454,7.454,7.3881,7.3462,7.3223,7.2325,7.1218,6.9963,6.8824,6.7837,6.6939,6.5802,6.4814,6.3977,6.3767,6.3438,6.3108,6.3108,6.3108,6.3108,6.3108,6.2958,6.2718,0.0,0.0,0.0,0.0,0.0,0.0,0.0,0.0,0.0,0.0,0.0,0.0,0.0,0.0,0.0,0.0,0.0,3.3963,3.7759,4.2312,4.6591,5.0571,5.4042,5.6526,5.7902,5.8082,5.8617,5.9575,5.9575,5.9934,6.0653,6.1102,6.1433,6.1672,6.194,6.2151,6.2361,6.215,6.1732,6.1164,5.9608,5.8291,5.6799,5.3084,4.9305,0.0,4.2702,4.093,3.9789,3.8977,3.8647,3.8479,3.8034,3.8168,3.8559,3.906,4.0614,4.3228,4.7844,5.1888,5.597,6.0748,6.4716,6.8024,7.0214,7.207,7.3163,7.2654,7.1487,7.026,6.9333,6.8585,6.8645,7.0263,7.14,7.2565,7.3971,7.445,7.3798,7.1595,7.1813,7.1937,0.0,0.0,0.0,7.387,7.4828,7.5498,7.5735,7.5762,7.6033,7.6632,7.6066,7.5762,7.5762,7.4759,7.4001,7.3522,7.2415,7.1338,7.029,6.9632,6.8764,6.7657,6.6759,6.5592,6.4336,6.4096,6.3617,6.3108,6.3108,6.3108,6.3165,6.3649,6.3817,6.3672,0.0,0.0,0.0,0.0,0.0,0.0,0.0,0.0,0.0,0.0,0.0,0.0,0.0,0.0,0.0,0.0,0.0,0.0,3.5172,3.8482,4.2013,4.5822,4.7429,4.9404,5.1887,5.0205,5.0504,5.2989,5.2989,5.3977,5.5863,5.7094,5.8022,5.868,5.9279,5.9907,6.0505,5.9817,5.88,5.7487,5.5568,5.2905,4.971,4.6441,4.3016,3.9682,3.7705,3.624,3.5388,3.6353,3.654,3.6303,3.5774,3.6441,3.7785,3.9574,4.3414,4.8131,5.2745,5.664,6.0784,6.6582,6.9379,7.1446,7.4291,7.5318,7.4899,7.2176,7.047,6.8643,0.0,0.0,6.4126,6.7389,6.7598,6.8704,7.2565,7.2878,7.2583,0.0,0.0,0.0,0.0,0.0,0.0,7.4269,0.0,7.5101,7.7354,7.745,7.8186,7.9742,7.8186,7.729,7.729,7.5695,7.424,7.2954,7.2265,7.1577,7.0919,7.029,6.9632,6.8944,6.7597,6.6281,6.4994,6.4336,6.3677,6.3138,6.3108,6.3137,6.3365,6.4651,6.5138,6.5032,0.0,0.0,0.0,0.0,0.0,0.0,0.0,0.0,0.0,0.0,0.0,0.0,0.0,0.0,0.0,0.0,0.0,0.0,3.3827,3.7075,3.9798,4.1833,4.5544,4.7878,4.8536,4.9037,4.9606,5.0295,5.0295,5.0564,5.1073,5.1402,5.1887,5.2462,5.2157,5.2396,5.294,5.2306,5.1851,5.1432,4.9912,4.8805,4.7736,4.4895,4.1912,3.9064,3.7542,3.5218,3.3116,3.4685,3.5743,3.6425,3.6692,3.8646,4.1464,4.4573,4.903,5.4245,6.0429,6.4737,6.847,7.2724,7.4135,7.4714,7.5453,7.3851,7.1427,6.8794,6.5622,6.2512,0.0,0.0,0.0,6.6071,6.9662,0.0,7.5433,7.7279,0.0,7.6178,0.0,7.7996,7.7593,7.7274,0.0,0.0,7.7651,7.768,7.9887,7.9443,7.9374,7.9773,7.8186,7.729,7.729,7.5695,7.4484,7.3642,7.2984,7.2295,7.1607,7.05,6.9632,6.8944,6.8106,6.6969,6.5712,6.5024,6.4366,6.3707,6.3287,6.3704,6.4651,6.4978,6.5754,6.6627,0.0,0.0,0.0,0.0,0.0,0.0,0.0,0.0,0.0,0.0,0.0,0.0,0.0,0.0,0.0,0.0,0.0,0.0,0.0,3.507,3.6972,3.8601,4.0905,4.2252,4.2551,4.3,4.3529,4.4098,4.4666,4.5415,4.6283,4.6852,4.7429,4.8035,4.7997,4.8327,4.8903,4.8237,4.7638,0.0,0.0,4.3944,4.2542,4.0467,3.7966,3.5497,3.4724,3.3923,3.3503,3.5458,3.6898,3.8263,4.0616,4.3308,4.6491,5.1109,5.5762,6.0686,6.6349,7.0502,7.3761,7.6155,7.6724,7.6125,7.3821,7.1637,6.8645,6.3677,6.0685,0.0,5.4645,5.6825,6.0116,0.0,0.0,0.0,7.647,7.8841,7.9953,0.0,8.1251,0.0,8.1463,8.0742,8.1356,0.0,8.0707,7.9749,8.2279,8.205,8.1663,8.1371,8.0752,7.9574,7.782,7.588,7.454,7.3881,7.3522,7.2834,7.1909,7.1158,7.0141,6.8974,0.0,6.7508,6.5981,6.5592,6.5439,6.5351,6.4684,6.5276,6.6536,6.68,6.7394,6.8181,0.0,0.0,0.0,0.0,0.0,0.0,0.0,0.0,0.0,0.0,0.0,0.0,0.0,0.0,0.0,0.0,0.0,0.0,0.0,0.0,3.4233,3.5895,3.5579,3.5639,3.6224,3.5669,3.5968,3.7148,3.8315,3.9768,4.1512,4.2611,4.3479,4.4137,4.4655,4.5224,4.5813,4.5134,4.4207,4.298,4.1151,3.8907,3.6476,0.0,3.3243,3.1193,3.1221,3.2623,3.4924,3.7805,3.9702,4.1616,4.6058,4.9345,5.2713,5.8336,6.2908,6.7052,7.1138,7.4692,7.7317,7.7831,7.7682,7.6066,7.0889,6.8675,6.5533,5.7902,0.0,5.3917,5.0219,5.2516,5.6346,6.0655,0.0,7.0033,7.71,7.9605,8.1196,8.2575,8.4916,8.6034,8.5128,8.4411,8.5154,8.794,8.3688,8.2094,8.4759,8.4784,8.4337,8.3474,8.387,8.2379,7.8769,7.6635,7.5285,7.4677,7.462,7.3894,7.2686,7.2595,7.1537,6.9754,6.9754,0.0,6.6853,6.6792,6.7099,6.7551,6.681,6.7427,6.8808,6.9297,6.9634,6.9921,0.0,0.0,0.0,0.0,0.0,0.0,0.0,0.0,0.0,0.0,2.0968,2.0943,0.0,0.0,0.0,0.0,0.0,0.0,0.0,0.0,0.0,3.32,3.4158,3.4727,3.4847,3.4727,3.5056,3.5848,3.6041,3.634,3.6686,3.6926,3.7375,3.802,3.7584,3.7764,3.835,3.7674,3.7255,3.6918,3.5768,3.4975,3.4416,3.3392,0.0,0.0,3.1328,3.223,3.4341,4.0739,4.4626,4.736,5.0575,5.5421,6.0729,6.4926,6.8712,7.2291,7.5741,7.7945,7.9141,7.8729,7.6993,7.4184,6.9424,6.4425,0.0,0.0,5.0421,4.8297,4.6471,5.0182,5.5564,6.1761,6.7202,7.3231,8.058,8.3738,8.5661,0.0,8.8288,8.9157,0.0,0.0,0.0,0.0,8.7475,8.6836,8.7329,8.6791,8.5789,8.4258,8.3149,8.1884,8.0486,7.9476,7.8877,7.8751,7.8211,7.7514,7.6692,7.6122,7.5043,7.3618,7.3618,0.0,7.1333,7.0759,7.0262,6.9775,6.9074,6.9717,7.0945,7.107,7.1793,7.2692,0.0,0.0,0.0,0.0,0.0,0.0,0.0,0.0,1.9015,2.1428,2.1865,2.1945,2.192,2.2121,0.0,0.0,0.0,0.0,0.0,0.0,0.0,0.0,3.3649,3.3979,3.3979,3.4308,3.4667,3.4997,0.0,3.5519,3.5519,3.5519,3.5669,3.5968,3.5639,3.5669,3.5968,3.5639,3.5198,3.466,3.4194,3.3429,3.2486,0.0,0.0,0.0,3.0963,3.2856,3.5893,3.9905,4.5959,5.2603,5.7024,6.1374,6.5757,7.0561,7.3639,7.6096,7.9058,8.0614,8.1123,8.0105,7.7083,7.2624,6.5922,0.0,0.0,0.0,4.636,4.5334,4.4038,4.8678,5.4288,5.9149,6.3797,7.0161,7.972,8.1872,8.4077,8.8438,9.0033,9.0628,0.0,8.9579,8.9309,8.9647,8.897,8.8564,8.8564,8.7025,8.6192,8.6278,8.3195,8.1718,8.2132,8.0581,7.9803,7.9803,7.9449,7.8967,7.8263,7.7943,7.6851,7.5182,7.5182,0.0,7.3067,7.2714,7.2859,7.314,7.2424,7.2791,7.3666,7.3241,7.3288,7.3466,0.0,0.0,0.0,0.0,0.0,0.0,0.0,1.8282,2.009,2.2312,2.2994,2.3135,2.2709,2.2171,2.2458,0.0,0.0,0.0,0.0,0.0,0.0,0.0,0.0,0.0,0.0,0.0,0.0,0.0,3.516,0.0,0.0,0.0,0.0,0.0,3.5519,3.5375,3.5166,3.5166,3.4593,0.0,0.0,3.2522,0.0,0.0,0.0,0.0,0.0,3.3524,3.7083,3.931,4.5954,5.4351,6.0442,6.502,6.9073,7.3691,7.6574,7.8759,8.1153,8.235,8.2589,8.1003,7.6784,7.0829,6.2391,5.6555,0.0,4.4117,4.31,4.324,4.253,4.6972,5.2061,5.6162,6.02,6.6769,7.8074,8.0099,8.301,0.0,9.1338,0.0,9.1541,9.0865,0.0,9.0459,8.9748,8.9241,8.9134,8.7152,8.6636,8.7962,8.4042,8.255,8.3835,8.1864,8.0826,8.0826,8.0855,8.0496,7.9811,7.9811,7.8806,7.7142,7.698,0.0,0.0,7.4842,7.5361,7.6229,7.5639,7.5639,7.5879,7.5303,7.4627,7.395,0.0,0.0,0.0,0.0,0.0,0.0,0.0,1.9087,2.1498,2.4195,2.4183,2.3904,2.3853,2.3311,2.3025,0.0,0.0,0.0,0.0,0.0,0.0,0.0,0.0,0.0,0.0,0.0,0.0,0.0,0.0,0.0,0.0,0.0,0.0,0.0,0.0,3.4971,3.4143,3.4143,0.0,0.0,0.0,0.0,0.0,0.0,0.0,0.0,0.0,3.3713,3.5889,4.209,4.5646,4.865,5.5553,6.3622,7.0783,7.1933,7.5766,0.0,8.1392,8.2679,8.3,8.0524,7.5014,6.8165,6.0179,0.0,4.7279,4.1803,4.0726,4.1085,4.2201,4.4337,4.8191,5.517,6.0344,6.7185,7.7764,8.3238,8.7654,9.1715,0.0,0.0,9.2358,9.1643,0.0,9.1203,9.0527,8.9816,8.9134,8.825,8.7817,8.7989,8.6288,8.5397,8.5567,8.4629,8.417,8.417,8.417,8.3766,8.3086,8.3086,8.2614,8.1772,8.1065,0.0,0.0,7.8876,7.8278,7.7794,7.7702,7.7337,7.6792,7.6724,7.6183,7.5405,0.0,0.0,0.0,0.0,0.0,0.0,1.7413,1.9664,2.206,2.449,2.4908,2.4833,2.4515,2.3963,2.3251,0.0,0.0,0.0,0.0,0.0,0.0,0.0,0.0,0.0,0.0,0.0,0.0,3.2401,0.0,0.0,0.0,0.0,0.0,0.0,0.0,0.0,3.314,3.314,0.0,0.0,0.0,0.0,0.0,0.0,0.0,0.0,0.0,0.0,3.664,3.9572,4.3165,4.6726,4.8365,5.491,6.3227,6.9034,7.3343,7.7053,8.0764,8.2439,8.2619,8.0375,7.3941,6.64,5.964,0.0,4.5813,4.1324,4.0397,4.0696,4.1613,4.308,4.6212,5.2489,5.4741,5.9469,7.0235,7.432,7.9058,8.6778,8.9579,0.0,0.0,0.0,9.2116,9.0729,9.0391,8.9884,8.9168,8.8801,8.8463,8.8023,8.7008,8.623,8.5817,8.5012,8.4614,8.4614,8.4614,8.4444,8.4167,8.4167,8.3761,8.3016,8.2272,0.0,0.0,8.0073,7.96,7.9329,7.9329,7.8585,7.7536,7.7536,7.6758,7.5676,0.0,0.0,0.0,0.0,0.0,1.5828,1.7505,1.9882,2.2221,2.429,2.5017,2.5159,2.4616,2.3778,2.2789,2.1608,0.0,0.0,0.0,0.0,0.0,0.0,0.0,0.0,0.0,0.0,0.0,3.0426,3.2634,0.0,0.0,0.0,0.0,0.0,0.0,0.0,0.0,0.0,0.0,0.0,0.0,0.0,0.0,0.0,0.0,0.0,0.0,0.0,0.0,0.0,0.0,4.4386,4.3389,4.7391,5.4221,6.3707,6.9572,7.4031,7.8759,8.113,8.1759,7.9716,7.2774,6.4904,0.0,0.0,4.4685,4.1145,4.0247,4.0367,4.1254,4.2331,4.4795,4.9998,5.1389,5.538,6.5526,6.9118,7.395,8.2611,0.0,8.8835,0.0,9.3233,9.2725,9.0696,9.0527,9.0121,8.9168,8.91,8.8734,8.8023,8.7279,8.6535,8.5817,8.5012,8.4614,8.4614,8.4614,8.4614,8.4614,8.4614,8.4309,8.3795,8.305,0.0,0.0,8.0818,8.0412,8.0209,8.0209,7.9431,7.8314,7.8314,7.7502,7.6352,0.0,0.0,0.0,0.0,0.0,0.0,0.0,1.964,2.211,2.3778,2.4481,2.4591,2.4079,2.2523,2.1532,2.1507,0.0,0.0,0.0,0.0,0.0,0.0,0.0,0.0,0.0,0.0,2.833,2.9117,3.0932,3.2309,3.3235,3.3741,0.0,0.0,0.0,0.0,0.0,0.0,0.0,0.0,0.0,0.0,0.0,0.0,0.0,0.0,0.0,0.0,0.0,0.0,0.0,0.0,0.0,4.288,4.5403,5.5303,6.4276,7.1667,7.5048,7.834,8.0345,7.834,7.1365,6.3618,0.0,5.0481,4.3579,4.0935,3.987,3.9828,4.1164,4.1961,4.3833,4.8121,5.2265,5.7847,6.6113,7.1456,7.6251,0.0,0.0,8.4742,8.7786,9.1406,9.2962,9.1406,9.1271,0.0,8.9201,8.91,8.8734,8.8023,8.7279,8.6535,8.5817,8.5012,8.4614,8.4614,8.4614,8.4614,8.4614,8.4614,8.4614,0.0,0.0,0.0,0.0,8.1596,8.0851,8.0209,8.0209,7.9735,7.9092,7.9092,7.8619,7.7874,0.0,0.0,0.0,0.0,0.0,0.0,0.0,1.9094,2.1295,2.2171,2.3085,2.3421,2.2884,2.2046,2.1356,2.0993,0.0,0.0,0.0,0.0,0.0,0.0,0.0,0.0,0.0,0.0,2.688,2.7321,2.9876,3.1158,3.1311,3.1847,3.1901,3.153,0.0,0.0,0.0,0.0,0.0,0.0,0.0,0.0,0.0,0.0,0.0,0.0,0.0,0.0,0.0,0.0,0.0,0.0,0.0,0.0,0.0,4.7369,5.476,6.2211,6.5562,6.8525,7.0111,6.7687,6.2989,5.7812,5.3389,4.8185,4.3429,4.0348,3.9541,3.966,4.0546,4.1254,4.391,5.0593,5.3138,5.6739,6.371,6.9535,0.0,7.9938,8.7279,9.2083,0.0,0.0,9.2962,9.1406,9.1305,9.0662,8.9201,8.91,8.8734,8.8023,8.7279,8.6535,8.5817,8.5012,8.4614,8.4614,8.4614,8.4614,8.4614,8.4614,8.4614,0.0,0.0,0.0,0.0,8.1596,8.0877,8.0209,8.0209,7.9769,7.9101,7.9101,7.8619,7.7899,0.0,0.0,0.0,0.0,0.0,0.0,0.0,1.8341,2.0251,2.0804,2.1644,2.2132,2.202,2.1317,2.0829,2.0705,0.0,0.0,0.0,0.0,0.0,0.0,0.0,0.0,0.0,2.4856,2.6086,2.6736,2.9303,3.0694,3.094,3.1325,3.1212,3.0692,3.0453,0.0,0.0,0.0,0.0,0.0,0.0,0.0,2.9905,0.0,0.0,0.0,0.0,0.0,0.0,0.0,0.0,0.0,0.0,0.0,0.0,0.0,4.7339,5.3084,5.8437,6.1972,6.3707,6.1822,5.8198,0.0,5.0661,4.6411,4.2551,4.0259,3.9571,3.9601,4.0277,4.0954,4.3476,4.9846,5.1907,5.5142,6.211,0.0,0.0,7.9837,0.0,0.0,0.0,9.2759,9.2624,9.1372,9.1034,9.0222,8.8734,8.8666,8.8226,8.7177,8.7279,8.6839,8.5817,8.5317,8.4884,8.4614,8.4614,8.4614,8.4614,8.4614,8.4614,0.0,0.0,0.0,0.0,8.1596,8.0877,8.0209,8.0209,7.9938,7.9532,7.9532,7.9058,7.8314,0.0,0.0,0.0,0.0,0.0,0.0,0.0,0.0,1.9133,1.9723,2.0339,2.0867,2.1331,2.0439,2.0025,2.0604,0.0,0.0,0.0,0.0,0.0,0.0,0.0,0.0,0.0,2.4457,2.5803,2.7046,2.9109,3.0628,3.1653,3.1854,3.1634,3.104,3.1074,0.0,0.0,0.0,0.0,0.0,0.0,0.0,0.0,0.0,0.0,0.0,0.0,0.0,0.0,0.0,0.0,0.0,0.0,0.0,0.0,0.0,0.0,0.0,0.0,5.7453,5.9787,5.8949,5.5623,5.1821,4.9247,4.4906,0.0,4.0337,3.972,3.9541,4.0337,4.0954,4.2753,4.7044,4.9529,5.3642,0.0,6.6872,0.0,0.0,8.5757,0.0,8.8158,9.0729,9.2083,9.1271,9.0594,8.9579,8.8091,8.7989,8.7313,8.5851,8.7177,8.7211,8.5723,8.5689,8.5351,8.4614,8.4614,8.4614,8.4614,8.4614,8.458,0.0,0.0,0.0,0.0,8.1562,8.0877,8.0209,8.0209,8.0209,8.0175,8.0141,7.9701,7.8991,0.0,0.0,0.0,0.0,0.0,0.0,0.0,0.0,0.0,0.0,2.0339,2.0566,2.0238,1.9962,1.9861,0.0,0.0,0.0,0.0,0.0,0.0,0.0,0.0,0.0,0.0,2.4292,2.5459,2.6629,2.8348,2.9578,3.0302,3.1134,3.0786,2.944,2.9916,2.9758,0.0,0.0,0.0,0.0,0.0,0.0,0.0,0.0,0.0,0.0,3.2632,3.3926,0.0,0.0,0.0,0.0,0.0,0.0,0.0,0.0,3.9679,4.0887,4.3419,0.0,4.8506,4.6343,4.5723,4.5074,0.0,4.1942,4.0775,3.8571,0.0,3.914,4.0864,4.0876,4.2929,0.0,0.0,5.6324,6.2879,0.0,0.0,8.663,9.0729,9.2218,8.9918,9.131,9.1851,9.056,9.029,8.9579,8.8091,8.7989,8.7313,8.5851,8.667,8.6433,8.4884,8.4884,8.4783,8.4614,8.4614,8.4614,8.4614,8.4614,8.4275,0.0,0.0,0.0,8.1528,8.1359,8.0877,8.0209,8.0209,8.0209,8.0141,7.9566,7.9261,7.8898,0.0,0.0,0.0,0.0,0.0,0.0,0.0,0.0,0.0,0.0,0.0,0.0,0.0,0.0,0.0,0.0,0.0,0.0,0.0,0.0,0.0,0.0,0.0,0.0,2.3512,2.4468,2.5817,2.7498,2.8834,2.9945,3.0804,3.0952,3.0432,2.9327,2.9358,2.9208,0.0,0.0,0.0,0.0,2.9804,0.0,0.0,0.0,0.0,0.0,3.2273,3.3503,0.0,3.5581,3.681,3.7883,0.0,0.0,0.0,0.0,3.8422,3.8901,3.8661,4.1444,4.4077,4.2641,4.2581,4.2521,4.1175,4.0187,3.914,3.7704,0.0,3.8901,4.0625,4.1272,0.0,0.0,5.3636,0.0,0.0,0.0,8.2813,8.7955,9.1,9.215,0.0,9.144,9.1305,8.9816,8.9376,8.8564,8.7076,8.6974,8.6467,8.5283,8.5655,8.5425,8.4614,8.4979,8.4979,8.4614,8.4614,8.4614,8.458,8.4242,8.3896,0.0,0.0,0.0,8.1283,8.0919,8.0547,8.0209,8.0209,8.0006,7.9667,7.9261,7.8662,7.7976,0.0,0.0,0.0,0.0,0.0,0.0,0.0,0.0,0.0,0.0,0.0,0.0,0.0,0.0,0.0,0.0,0.0,0.0,0.0,0.0,0.0,0.0,0.0,2.2915,2.4104,2.4874,2.6359,2.8619,2.9789,3.0955,3.2038,3.1487,3.0733,2.9754,2.9157,2.8838,0.0,0.0,0.0,0.0,2.9804,0.0,0.0,0.0,0.0,0.0,0.0,0.0,0.0,3.5511,3.6464,3.7255,3.7255,0.0,0.0,0.0,0.0,0.0,3.7182,4.0098,4.321,4.2442,4.2102,4.1733,4.0984,3.911,3.7524,3.7417,0.0,3.9074,4.0768,4.2542,0.0,0.0,0.0,0.0,7.3766,7.8019,8.1942,8.7347,8.941,0.0,9.0763,9.1,9.0527,8.9066,8.8328,8.7347,8.5885,8.5817,8.5418,8.4614,8.4614,8.4614,8.4614,8.5283,8.5283,8.4614,8.4614,8.4614,8.458,8.3828,8.3422,8.3253,0.0,0.0,8.108,8.0445,8.0209,8.0209,8.0209,7.9837,7.9236,7.9025,7.8145,7.7029,0.0,0.0,0.0,0.0,0.0,0.0,0.0,0.0,0.0,0.0,0.0,0.0,0.0,0.0,0.0,0.0,0.0,0.0,0.0,0.0,0.0,0.0,2.1894,2.3295,2.465,2.5239,2.6409,2.8207,3.0219,3.1534,3.2217,3.3463,3.2545,2.9754,2.9157,2.8656,2.8298,0.0,0.0,0.0,0.0,0.0,0.0,0.0,0.0,0.0,0.0,0.0,0.0,3.523,3.6032,3.6643,3.6643,0.0,0.0,0.0,0.0,0.0,3.8703,4.1096,4.2382,3.8512,3.8721,3.9559,3.8302,3.8123,3.8093,3.7524,3.8374,4.0251,4.3605,4.6052,4.9182,0.0,0.0,6.958,0.0,0.0,8.4783,8.7651,0.0,9.0425,8.8666,8.9647,8.9748,8.826,8.8057,8.7347,8.5885,8.5817,8.5418,8.4614,8.4614,8.4614,8.4614,8.4715,8.4715,8.4614,8.4614,8.4614,8.458,8.3828,8.3152,8.2543,0.0,8.0953,8.0344,8.0242,8.0209,8.0209,8.0209,8.0141,7.987,7.8619,7.8034,7.7638,0.0,0.0,0.0,0.0,0.0,0.0,0.0,0.0,0.0,0.0,0.0,0.0,0.0,0.0,0.0,0.0,0.0,0.0,0.0,0.0,0.0,2.1313,2.3085,2.4314,2.4886,2.5957,2.762,2.988,3.1185,3.2416,3.3549,3.3119,3.1637,2.9283,2.8706,2.848,2.8555,2.9082,0.0,0.0,0.0,0.0,0.0,0.0,0.0,0.0,0.0,0.0,0.0,0.0,3.5699,3.5968,3.5968,0.0,0.0,0.0,0.0,0.0,3.7208,3.896,4.0247,3.8512,4.0618,4.2681,4.0976,4.0307,4.0026,4.0086,0.0,0.0,0.0,0.0,5.6564,6.4134,0.0,7.4388,8.0023,8.1968,8.3964,0.0,0.0,8.9106,8.8091,8.897,8.8835,8.6941,8.6805,0.0,8.5215,8.5148,8.4979,8.4614,8.4614,8.4614,8.4614,8.4614,8.4614,8.4614,8.4614,8.4377,8.3998,8.3253,8.2509,8.1765,0.0,8.0513,8.0209,8.0209,7.9972,7.9667,8.004,7.9464,7.828,7.7164,7.6487,7.6048,0.0,0.0,0.0,0.0,0.0,0.0,0.0,0.0,0.0,0.0,0.0,0.0,0.0,0.0,0.0,0.0,0.0,0.0,0.0,0.0,2.0195,2.1801,2.4021,2.5409,2.5907,2.7333,2.9296,3.1808,3.2717,3.3771,3.4853,3.2616,3.0633,2.8863,2.8455,2.8455,2.8706,2.8706,2.9132,0.0,0.0,0.0,0.0,0.0,0.0,0.0,0.0,0.0,0.0,0.0,0.0,0.0,0.0,0.0,0.0,3.5878,3.6088,3.6447,3.6237,3.7614,3.923,3.9738,4.2293,4.4625,4.4326,4.3365,0.0,0.0,0.0,0.0,0.0,5.7058,0.0,7.3103,7.6082,7.8517,0.0,0.0,0.0,0.0,0.0,8.8192,8.8023,8.8497,8.8017,8.5953,0.0,0.0,8.4647,8.4614,8.4614,8.4614,8.4614,8.4512,8.4343,8.4343,8.4343,8.4343,8.4343,8.3964,8.3219,8.2475,8.1832,8.1283,8.0513,8.0107,7.9938,7.9938,7.9498,7.8923,7.9464,7.8551,7.6792,7.598,7.5236,7.4593,0.0,0.0,0.0,0.0,0.0,0.0,0.0,0.0,0.0,0.0,0.0,0.0,0.0,0.0,0.0,0.0,0.0,0.0,0.0,0.0,1.9914,2.0864,2.3646,2.6262,2.8569,2.9746,3.121,3.2989,3.505,3.5855,3.5382,3.3172,3.0989,2.8888,2.8856,2.858,2.8172,2.8172,2.88,2.9754,0.0,0.0,0.0,0.0,0.0,0.0,0.0,0.0,0.0,0.0,0.0,0.0,0.0,0.0,3.6493,3.6434,3.6464,3.6763,3.7883,3.9667,4.1194,4.1254,4.0576,4.1156,4.5933,4.6507,0.0,5.1609,0.0,0.0,0.0,6.3283,7.0399,7.6657,8.0073,8.3016,8.6061,0.0,0.0,0.0,0.0,8.8734,8.8057,8.8057,8.7448,8.5892,0.0,0.0,8.4647,8.4614,8.4614,8.4614,8.4614,8.4275,8.3592,8.3592,8.3592,8.3592,8.3592,8.3186,8.2475,8.1697,8.1351,8.1283,8.0513,7.9803,7.9194,7.9194,7.8754,7.8102,7.8136,7.7638,7.6792,7.598,7.5236,7.4502,0.0,0.0,0.0,0.0,0.0,0.0,0.0,0.0,0.0,0.0,0.0,0.0,0.0,0.0,0.0,0.0,0.0,0.0,0.0,0.0,2.1134,2.2192,2.4992,2.7713,3.0251,3.1928,3.3949,3.6307,3.717,3.653,3.4452,3.2591,3.0909,2.9428,2.8706,2.8681,2.9076,2.8047,2.8448,2.9754,2.9132,0.0,0.0,0.0,0.0,0.0,0.0,0.0,0.0,0.0,3.5519,3.5533,3.5789,3.6148,3.6434,3.5998,3.6178,3.6507,3.6567,3.8948,4.1493,4.1931,4.2851,4.477,4.8909,5.1368,5.3815,5.7586,6.0594,0.0,0.0,0.0,7.4559,7.8686,8.1832,8.4343,8.5993,8.6839,8.7414,8.7719,8.7719,8.7448,8.6704,8.6602,8.6196,8.5148,0.0,0.0,8.3964,8.393,8.3727,8.3227,8.3227,8.3092,8.2813,8.2813,8.2577,8.2137,8.2611,8.2441,8.1697,8.1452,8.0784,7.9938,7.9634,7.9092,7.8416,7.8416,7.7976,7.7266,7.6758,7.6115,7.5439,7.5134,7.4255,7.3206,0.0,0.0,0.0,0.0,0.0,0.0,0.0,0.0,0.0,0.0,0.0,0.0,0.0,0.0,0.0,0.0,0.0,0.0,1.7773,1.9796,2.1536,2.2762,2.5269,2.8073,3.114,3.3645,3.5987,3.8175,3.7865,3.6402,3.3815,3.1983,3.0658,2.9754,2.88,2.89,2.9704,2.8172,2.8298,2.9478,2.9057,2.934,0.0,0.0,0.0,0.0,0.0,0.0,0.0,0.0,3.5519,3.5519,3.5519,3.5818,3.6088,3.5639,3.5818,3.6118,3.5878,3.811,4.0775,4.2081,4.4696,4.8352,5.3699,5.661,5.9566,6.4289,6.6905,6.912,7.1818,0.0,0.0,0.0,8.2746,8.5249,8.6027,8.6602,8.6907,8.6907,8.6907,8.6602,8.5858,8.5817,8.5452,8.4647,0.0,0.0,0.0,8.3287,8.2915,8.2441,8.2408,8.2306,8.2069,8.1832,8.1325,8.0615,8.0885,8.0987,8.0945,8.0471,7.9837,7.9092,7.8855,7.8314,7.7638,7.7367,7.669,7.5777,7.5202,7.4695,7.4221,7.3984,7.3274,7.236,0.0,0.0,0.0,0.0,0.0,0.0,0.0,0.0,0.0,0.0,0.0,0.0,0.0,0.0,0.0,0.0,0.0,0.0,1.738,1.9096,2.0719,2.215,2.4126,2.709,3.1096,3.4777,3.7059,3.7917,3.6967,3.5537,3.3638,3.1572,3.0306,2.9754,2.9183,2.9233,2.9748,2.8574,2.8405,2.8907,2.8888,2.9497,0.0,0.0,0.0,0.0,0.0,0.0,0.0,0.0,3.5519,3.5519,3.5519,3.5519,3.5519,3.5519,3.5519,3.5669,3.6314,3.7451,3.9068,4.1752,4.5436,5.0875,6.0486,6.2178,6.4035,7.2091,7.3064,7.2902,7.4356,0.0,0.0,0.0,8.2847,8.6027,8.6771,8.6907,8.6907,8.6907,8.6907,8.6602,8.5885,8.5784,8.5452,0.0,0.0,0.0,0.0,8.278,8.2374,8.2374,8.2374,8.2002,8.1283,8.0547,7.9803,7.9067,7.8348,7.8754,8.0141,7.8677,7.8382,7.9058,7.8314,7.757,7.6826,7.6014,7.4796,7.35,7.35,7.35,7.3398,7.2665,7.2394,7.2293,0.0,0.0,0.0,0.0,0.0,0.0,0.0,0.0,0.0,0.0,0.0,0.0,0.0,0.0,0.0,0.0,0.0,0.0,1.7773,1.8906,2.0345,2.2127,2.4126,2.6725,2.9926,3.343,3.6408,3.8796,3.6922,3.4659,3.2062,3.1075,3.0306,2.9779,2.9603,2.9628,2.9748,2.8574,2.8649,2.9503,2.9082,2.9728,3.1031,0.0,0.0,0.0,0.0,0.0,0.0,0.0,0.0,0.0,3.5519,3.6447,3.7255,3.5908,3.6477,3.7285,3.6118,3.8439,4.1733,4.3888,0.0,0.0,0.0,6.5651,0.0,0.0,7.6886,7.6318,7.6217,0.0,0.0,0.0,0.0,0.0,8.5256,8.579,8.5926,8.5358,8.529,8.5189,8.4979,8.4505,8.4065,0.0,0.0,0.0,0.0,8.0987,8.0378,7.9329,7.9295,7.9194,7.8982,7.8754,7.8517,7.8314,7.757,7.7739,7.8619,7.8204,7.7841,7.7536,7.7333,7.6487,7.5236,7.4458,7.3578,7.2766,7.3297,7.2868,7.1988,7.2293,7.209,7.1594,0.0,0.0,0.0,0.0,0.0,0.0,0.0,0.0,0.0,0.0,0.0,0.0,0.0,0.0,0.0,0.0,0.0,0.0,0.0,1.9008,2.0388,2.2127,2.4126,2.6909,3.0518,3.2764,3.4843,3.6832,3.5452,3.3586,3.1322,3.1059,3.0633,3.0131,3.0331,3.0306,3.0055,2.9151,2.9026,2.9428,2.9308,3.0124,3.1442,0.0,0.0,0.0,0.0,0.0,0.0,0.0,0.0,0.0,3.5519,3.6297,3.7075,3.6148,3.6537,3.7285,3.7404,3.9876,4.3309,4.71,5.3063,6.0168,6.8615,0.0,0.0,0.0,8.0006,7.8822,7.8686,7.9498,0.0,0.0,0.0,0.0,8.4614,8.5046,8.5148,8.4647,8.4343,8.4167,8.4167,8.349,8.2949,0.0,0.0,0.0,0.0,7.9498,7.8923,7.8034,7.8,7.8,7.8,7.7367,7.7063,7.7063,7.6048,7.5777,7.6241,7.6826,7.6826,7.6386,7.5811,7.4864,7.368,7.324,7.2631,7.2022,7.2462,7.209,7.1357,7.1819,7.1684,7.1289,0.0,0.0,0.0,0.0,0.0,0.0,0.0,0.0,0.0,0.0,0.0,0.0,0.0,0.0,0.0,0.0,0.0,0.0,0.0,0.0,2.0681,2.2127,2.4307,2.7521,3.1982,3.237,3.2659,3.2874,3.298,3.2347,3.1089,3.1318,3.1085,3.0538,3.1135,3.106,3.0487,3.0005,2.9478,2.9032,2.9578,3.0626,3.1834,3.1657,0.0,0.0,0.0,0.0,0.0,0.0,0.0,0.0,3.5519,3.5579,3.5759,3.6237,3.6088,3.6447,3.9559,4.1523,4.4237,5.081,5.7064,0.0,7.3124,7.8945,8.278,8.4039,0.0,8.0784,8.1418,8.0987,8.0784,8.1393,0.0,0.0,0.0,8.4614,8.458,8.4512,8.393,8.3456,8.3422,8.2678,8.1934,0.0,0.0,0.0,7.8957,7.8247,7.7865,7.7671,7.7671,7.7638,7.7594,7.6183,7.5506,7.5473,7.4119,7.35,7.3567,7.4897,7.5506,7.5405,7.4018,7.3003,7.2394,7.2326,7.1921,7.1289,7.1289,7.1289,7.1289,7.1289,7.1289,7.1289,0.0,0.0,0.0,0.0,0.0,0.0,0.0,0.0,0.0,0.0,0.0,0.0,0.0,0.0,0.0,0.0,0.0,0.0,0.0,0.0,2.0302,2.2127,2.5587,2.8368,3.0311,3.0405,3.0456,3.0514,3.138,3.1207,3.0107,3.1004,3.0884,3.0005,3.0959,3.0859,2.9955,2.9854,2.9729,2.9628,2.9754,3.0861,3.2362,3.1805,3.3225,0.0,0.0,0.0,0.0,0.0,0.0,0.0,3.5519,3.6207,3.6836,3.5968,3.6686,3.8153,3.9918,4.2491,4.6283,5.2905,6.2757,7.2111,7.706,8.0377,8.234,8.2069,8.2881,8.3524,8.3084,8.3389,8.3524,8.3084,8.393,8.4614,0.0,8.4614,8.4377,8.3795,8.3592,8.3287,8.2712,8.146,8.0615,0.0,0.0,0.0,7.7401,7.7232,7.6589,7.5371,7.5337,7.5067,7.4481,7.4143,7.395,0.0,7.3669,7.35,7.3534,7.3838,7.395,7.394,7.3037,7.2563,7.236,7.1785,7.1424,7.1289,7.1289,7.1289,7.1289,7.1289,7.1289,7.1289,0.0,0.0,0.0,0.0,0.0,0.0,0.0,0.0,0.0,0.0,0.0,0.0,0.0,0.0,0.0,0.0,0.0,0.0,0.0,0.0,2.1487,2.413,2.6477,2.8247,2.9333,2.9377,2.9528,2.9804,3.0357,3.0331,2.9804,3.0904,3.0829,2.9854,3.0909,3.0783,2.9804,2.9804,2.9804,2.9837,3.0292,3.1341,3.2538,3.186,3.2925,3.4585,3.2953,0.0,0.0,0.0,0.0,0.0,0.0,0.0,3.5802,3.5942,3.6896,3.8605,4.1748,4.5325,5.0494,6.0176,0.0,7.5054,7.8337,8.0547,8.1765,8.1384,8.2509,8.343,8.305,8.3592,8.3828,8.3084,8.3592,8.3937,8.3599,8.3531,8.3396,8.3016,8.2644,8.2137,8.1426,8.0344,7.9228,0.0,0.0,7.6826,7.5337,7.5608,7.527,7.4119,7.4052,7.3883,7.35,7.3138,7.2969,7.2969,7.2631,7.2462,7.2462,7.28,7.2969,7.2935,7.2191,7.1887,7.1853,7.1458,7.1289,7.1289,7.1289,7.1289,7.1289,7.1289,7.1289,7.1289,0.0,0.0,0.0,0.0,0.0,0.0,0.0,0.0,0.0,0.0,0.0,0.0,0.0,0.0,0.0,0.0,0.0,0.0,0.0,0.0,0.0,2.6205,2.6959,2.7745,2.8756,2.8838,2.9132,2.9654,2.9754,2.993,3.0231,3.0934,3.0733,2.9829,3.0809,3.0728,2.9824,2.9972,3.0024,3.0101,3.0876,3.1774,3.252,3.1795,3.2476,3.3551,3.2076,3.1985,3.2575,3.2397,0.0,0.0,0.0,0.0,3.453,3.5919,3.6746,3.8275,4.3079,4.8372,5.5342,6.7072,7.2175,0.0,7.7713,7.9363,8.0369,8.0505,8.1426,8.2272,8.2408,8.2678,8.2813,8.2475,8.2712,8.2813,8.2475,8.2306,8.2205,8.2205,8.1663,8.0978,8.0073,7.9228,7.7874,0.0,0.0,7.5473,7.3601,7.4086,7.4086,7.3331,7.3308,7.3263,7.3105,7.2529,7.2225,7.2191,7.1594,7.1289,7.1323,7.1921,7.2225,7.2191,7.1582,7.1289,7.1289,7.1289,7.1289,7.1289,7.1289,7.1289,7.1289,7.1289,7.1289,7.1289,0.0,0.0,0.0,0.0,0.0,0.0,0.0,0.0,0.0,0.0,0.0,0.0,0.0,0.0,0.0,0.0,0.0,0.0,1.7874,0.0,0.0,2.5653,2.6733,2.757,2.8179,2.8656,2.8957,2.9032,2.9553,3.0507,3.1863,3.1065,3.0382,2.9849,3.0457,3.0382,2.9837,3.0677,3.1007,3.1026,3.1148,3.1774,3.2504,3.1593,3.1893,0.0,0.0,3.1838,3.2468,3.1664,3.2468,0.0,0.0,0.0,3.5326,3.5576,3.6088,3.7398,4.0979,4.9541,5.9074,6.5783,7.0115,7.3135,0.0,0.0,7.6657,0.0,7.96,8.1629,8.2306,8.146,8.1021,8.2205,8.1426,8.1054,8.2238,8.1832,8.1452,8.1452,8.1384,8.075,7.9397,7.801,7.6792,0.0,7.4627,7.3838,7.3534,7.3601,7.3308,7.2563,7.2563,7.2225,7.1616,7.1492,7.1424,7.1424,7.1357,7.1289,7.1289,7.1391,7.1424,7.1424,7.1323,7.1289,7.1289,7.1289,7.1289,7.1289,7.1289,7.1289,7.1289,7.1289,7.1289,7.1289,0.0,0.0,0.0,0.0,0.0,0.0,0.0,0.0,0.0,0.0,0.0,0.0,0.0,0.0,0.0,1.5454,1.6215,1.7385,1.8964,2.1384,2.3468,2.5094,2.6231,2.7085,2.7645,2.8197,2.8605,2.8888,2.9503,3.0608,0.0,3.2463,3.2397,3.2085,3.1923,3.1693,3.1487,3.1848,3.1965,3.2019,3.2558,3.27,3.254,3.2128,0.0,0.0,0.0,0.0,0.0,0.0,3.1323,3.2522,3.3035,0.0,0.0,0.0,3.6537,3.928,4.6649,5.297,5.9313,6.6912,6.9687,7.1141,7.3462,7.4559,7.5202,7.554,7.6657,7.8044,7.9634,7.9735,7.9667,7.9904,7.9735,7.9667,7.9904,7.9634,7.9456,7.9456,7.9456,7.9025,7.7976,7.686,7.5743,7.4583,7.3872,7.3161,7.2326,7.2665,7.2563,7.1819,7.1785,7.165,7.1289,7.1289,7.1289,7.1289,7.1289,7.1289,7.1289,7.1289,7.1289,7.1289,7.1289,7.1289,7.1289,7.1289,7.1289,7.1289,7.1289,7.1289,7.1289,7.1289,7.1289,7.1289,0.0,0.0,0.0,0.0,0.0,0.0,0.0,0.0,0.0,0.0,0.0,0.0,0.0,0.0,0.0,0.0,1.6313,1.7843,2.014,2.169,2.3277,2.4927,2.6105,2.6826,2.7085,2.7896,2.843,2.8706,2.9453,3.1014,3.3347,3.4158,3.511,0.0,3.4647,3.3719,0.0,0.0,0.0,3.3125,3.349,3.307,0.0,0.0,0.0,0.0,0.0,0.0,0.0,0.0,0.0,0.0,0.0,0.0,0.0,0.0,0.0,4.0323,4.9143,5.342,5.7205,6.4884,6.7387,6.8673,0.0,0.0,7.3375,0.0,7.4052,7.4627,7.6487,7.7299,7.7638,7.7435,7.7739,7.7976,7.8,7.7865,7.7841,7.8213,7.7942,7.7401,7.6657,7.5709,7.4593,7.3331,7.3037,7.2462,7.1357,7.1819,7.1887,7.1323,7.1289,7.1188,7.1041,7.0816,7.0816,7.1041,7.1041,7.1041,7.1041,7.1041,7.1041,7.1041,7.1041,7.1041,7.1007,7.0838,7.0951,7.1289,7.1086,7.1142,7.1289,7.1289,7.1289,7.1289,0.0,0.0,0.0,0.0,0.0,0.0,0.0,0.0,0.0,0.0,0.0,0.0,0.0,1.6707,1.6336,1.5474,1.6602,1.8504,2.1162,2.2668,2.4062,2.5502,2.6658,0.0,2.6549,2.8072,2.8631,2.8147,2.9252,3.2034,3.6363,3.5912,3.8044,4.2081,3.8748,3.6214,3.4556,0.0,0.0,0.0,0.0,0.0,0.0,0.0,0.0,0.0,0.0,0.0,0.0,0.0,0.0,0.0,0.0,0.0,0.0,0.0,0.0,0.0,4.284,4.7666,5.2452,5.6494,6.1197,6.5425,0.0,0.0,6.9992,7.209,7.2529,7.2766,7.3601,7.3771,7.4244,7.5608,7.527,7.5574,7.7696,7.7401,7.7468,7.8889,7.7807,7.6657,7.5845,7.4458,7.3274,7.2529,7.1819,7.1357,7.1289,7.1323,7.1323,7.1289,7.1289,7.0973,7.0263,6.9553,6.9553,7.0263,7.0263,7.0263,7.0263,7.0263,7.0263,7.0263,7.0263,7.0263,7.0195,6.9485,7.006,7.1222,7.0534,7.0669,7.1289,7.1289,7.1289,7.1289,0.0,0.0,0.0,0.0,0.0,0.0,0.0,0.0,0.0,0.0,0.0,0.0,0.0,1.6772,1.6914,1.6278,1.6953,1.8439,2.0847,2.2057,2.3272,2.4653,2.6047,2.6571,2.6068,2.7586,2.8455,2.8605,3.0015,3.2084,3.4771,3.6428,3.8211,3.999,3.9191,3.8248,3.7148,3.5892,0.0,0.0,0.0,0.0,0.0,0.0,0.0,0.0,0.0,0.0,0.0,0.0,0.0,0.0,0.0,0.0,0.0,0.0,0.0,3.9444,4.3728,4.5885,4.8409,5.4566,5.7881,6.0419,6.3632,6.6068,6.7996,6.9248,7.0297,7.121,7.1954,7.2868,7.3669,7.421,7.4052,7.4187,7.5023,7.4864,7.4897,7.5439,7.5033,7.4593,7.4346,7.3375,7.2665,7.2428,7.1718,7.1289,7.1289,7.1289,7.1289,7.1289,7.0838,7.0229,6.9485,6.9214,6.9214,6.9485,6.9485,6.9485,6.9485,6.9485,6.9214,6.8707,6.8707,6.9011,6.9451,6.9214,6.9688,7.0567,7.0297,7.0635,7.1289,7.1289,7.1289,7.1289,0.0,0.0,0.0,0.0,0.0,0.0,0.0,0.0,0.0,0.0,0.0,0.0,0.0,0.0,1.7383,1.733,1.7813,1.9068,2.1351,2.2212,2.3171,2.44,2.5933,2.645,2.5803,2.7496,2.853,2.8888,3.024,3.2087,3.4405,3.6618,3.833,3.946,3.9179,3.9006,0.0,0.0,0.0,3.4508,0.0,0.0,3.1367,0.0,0.0,0.0,0.0,0.0,0.0,0.0,0.0,0.0,0.0,0.0,0.0,0.0,0.0,0.0,4.2921,0.0,4.5669,5.1911,5.4025,5.5784,6.0554,6.2956,6.4728,6.6745,6.8166,6.9383,7.0398,7.1548,7.2485,7.2699,7.2969,7.3206,7.3466,7.35,7.3601,7.3849,7.3409,7.3105,7.3105,7.2462,7.1921,7.1684,7.121,0.0,7.0545,7.0567,7.0567,7.0567,6.9823,6.9316,6.9113,6.8605,6.847,6.8707,6.8707,6.8707,6.8707,6.8707,6.8402,6.7895,6.7658,6.7963,6.8673,6.8436,6.9079,7.0184,6.9925,7.0263,7.0973,7.1188,7.112,7.0973,0.0,0.0,0.0,0.0,0.0,0.0,0.0,0.0,0.0,0.0,0.0,0.0,0.0,0.0,0.0,1.8559,1.9206,2.0516,2.2777,2.3333,2.4004,2.4987,2.6472,2.6843,2.5856,2.7829,2.8888,2.8969,2.9983,3.2197,3.5579,3.6529,3.8509,4.1148,3.8961,3.8461,3.9259,0.0,3.7935,3.5698,0.0,3.1857,3.2004,0.0,0.0,0.0,3.2055,3.1578,0.0,0.0,0.0,0.0,0.0,0.0,0.0,0.0,0.0,0.0,0.0,0.0,0.0,0.0,0.0,0.0,5.8235,0.0,6.0028,6.4546,6.6068,6.7096,6.8663,6.9542,7.0286,7.0963,7.1808,7.2597,7.3297,7.3398,7.368,7.44,7.3206,7.2326,7.2326,7.1684,7.0939,7.0195,7.0184,6.9857,6.9147,6.9079,6.9079,6.9079,6.8301,6.8233,6.8977,6.7535,6.7151,6.7827,6.7861,6.7861,6.7861,6.7861,6.7861,6.7827,6.7117,6.7218,6.7793,6.7117,6.8132,7.0082,6.935,6.9519,7.0297,7.1007,7.0838,7.0331,0.0,0.0,0.0,0.0,0.0,0.0,0.0,0.0,0.0,0.0,0.0,0.0,0.0,0.0,1.8984,1.9493,2.0452,2.1837,2.3791,2.4788,2.5559,2.6123,2.6519,2.6823,2.7028,2.7488,2.8672,3.0567,3.1514,3.2828,3.4469,3.5932,3.6922,0.0,3.7334,3.6763,3.5862,3.4705,0.0,0.0,3.1422,3.1561,0.0,0.0,0.0,0.0,0.0,3.3235,0.0,0.0,3.4557,3.4911,0.0,0.0,0.0,0.0,0.0,0.0,4.0049,0.0,0.0,0.0,0.0,0.0,0.0,0.0,5.4617,5.9133,6.1061,6.2649,6.4914,6.5947,6.6374,6.6208,6.9233,7.1481,7.1142,7.1109,7.1379,7.2157,7.0906,7.0229,7.0737,7.0128,6.962,0.0,6.9417,6.9316,6.9113,6.8538,6.8233,6.8233,6.7523,6.6948,6.6643,6.6745,6.6643,6.6326,6.6846,6.7096,6.7096,6.7096,6.7096,6.7096,6.6893,6.6914,6.7096,6.6859,6.7489,6.8504,6.8301,6.9045,7.0195,7.0432,7.0703,7.1041,0.0,0.0,0.0,0.0,0.0,0.0,0.0,0.0,0.0,0.0,0.0,0.0,0.0,0.0,2.1392,2.1776,2.2805,2.3948,2.5194,2.6052,2.6556,2.6608,2.6966,2.7271,2.7502,2.8227,2.9459,3.1185,3.2309,3.3243,3.4041,3.5435,3.5739,0.0,0.0,0.0,0.0,0.0,0.0,0.0,3.1727,0.0,0.0,3.3063,3.3686,0.0,0.0,0.0,3.6811,3.7414,3.7617,0.0,0.0,0.0,0.0,0.0,0.0,0.0,0.0,0.0,0.0,0.0,0.0,0.0,4.5521,4.7143,4.9211,0.0,5.5447,5.715,6.0104,6.148,6.215,6.2052,6.5538,6.8406,6.8864,6.9401,6.9789,6.9891,6.9417,6.9147,6.9214,6.9147,6.8977,6.8605,6.8605,6.8335,6.7692,6.6948,6.6508,6.6508,6.6102,6.5696,6.5256,6.5967,6.5967,6.5256,6.6,6.617,6.5899,6.6203,6.617,6.5933,6.6521,6.6643,6.6373,6.6656,6.7231,6.7895,6.7895,6.8639,6.9755,7.0116,7.0466,7.0906,0.0,0.0,0.0,0.0,0.0,0.0,0.0,0.0,0.0,0.0,2.0327,0.0,0.0,0.0,0.0,0.0,2.5587,2.6343,2.6733,2.7267,2.7397,2.6975,2.7682,2.8028,2.7903,2.9467,3.0684,3.1518,3.2709,3.3516,3.4013,3.4905,3.4756,0.0,0.0,0.0,0.0,0.0,0.0,3.3338,3.3141,3.4126,0.0,0.0,3.7598,0.0,3.9299,3.9671,3.9969,4.0572,4.0704,0.0,0.0,0.0,0.0,0.0,3.9713,0.0,0.0,0.0,0.0,0.0,0.0,0.0,4.391,4.3878,4.4265,0.0,4.9711,5.1223,5.4686,5.6456,5.7558,5.7965,6.0955,6.4034,6.642,6.7904,6.8504,6.7861,6.8267,6.8335,6.7726,6.8233,6.8301,6.759,6.7523,6.6948,6.5649,6.4884,6.4512,6.4613,6.4512,6.4478,6.4478,6.5189,6.5189,6.4478,6.5222,6.5256,6.4749,6.5324,6.5256,6.4783,6.6034,6.6237,6.5751,6.6406,6.7117,6.7793,6.7793,6.8335,6.918,6.9823,7.0184,7.0398,0.0,0.0,0.0,0.0,0.0,0.0,0.0,0.0,0.0,0.0,0.0,0.0,0.0,0.0,0.0,0.0,2.657,2.7387,2.779,2.8748,2.9264,2.9184,2.8488,2.8866,3.0451,2.996,3.0937,3.3463,3.3727,3.3897,3.3996,3.4211,3.3394,0.0,0.0,0.0,0.0,0.0,0.0,3.3187,3.4166,0.0,3.8451,3.9166,4.0155,4.1171,4.1812,4.2345,4.283,0.0,4.3707,4.4056,0.0,0.0,0.0,0.0,0.0,0.0,0.0,0.0,0.0,0.0,0.0,0.0,3.9691,4.0293,4.2029,0.0,4.5505,4.6593,4.9799,5.1539,5.2355,5.1987,5.5443,5.9686,6.3924,6.5593,6.6542,6.6981,6.6102,6.5662,6.6089,6.573,6.5425,6.5256,6.5256,6.5121,6.4816,6.414,6.3984,6.458,6.4018,6.3714,6.3714,6.4444,6.4444,6.3714,6.4478,6.5053,6.548,6.5019,6.5053,6.548,6.5155,6.529,6.5717,6.5886,6.6339,6.6994,6.6994,6.7861,6.9113,6.9248,7.006,7.1109,0.0,0.0,0.0,0.0,0.0,0.0,0.0,0.0,0.0,0.0,0.0,0.0,0.0,0.0,0.0,0.0,0.0,0.0,0.0,0.0,2.9804,2.9804,2.9698,3.0126,3.1167,3.1566,3.2475,3.3996,3.3996,3.3996,3.3979,3.3533,3.242,0.0,0.0,0.0,0.0,0.0,3.1028,3.3152,3.5036,0.0,3.9681,4.1231,4.2564,4.3636,4.3931,4.4752,4.5389,4.3733,4.44,0.0,0.0,4.2841,4.345,0.0,4.2895,4.224,0.0,0.0,0.0,4.0283,0.0,0.0,0.0,3.8181,3.8815,4.1338,4.1327,4.1854,4.5108,4.6284,4.7066,4.8085,5.1276,5.4856,5.8256,6.1804,6.4038,6.4072,6.3734,6.3497,6.3497,6.3497,6.3666,6.4038,6.4072,6.4072,6.4072,6.3004,6.2753,6.3463,6.2787,6.2584,6.2956,6.37,6.37,6.2956,6.37,6.4038,6.4059,6.4038,6.4038,6.4072,6.4444,6.4816,6.5189,6.5547,6.6136,6.6791,6.6791,6.7523,6.8538,6.8944,6.9789,7.0804,2.1638,0.0,0.0,0.0,0.0,0.0,0.0,0.0,0.0,0.0,0.0,0.0,0.0,0.0,0.0,0.0,0.0,0.0,0.0,0.0,0.0,2.9628,3.0644,3.1243,3.1321,3.3066,3.3996,3.3996,3.3996,3.3825,3.3446,3.2682,3.1604,0.0,0.0,0.0,0.0,0.0,0.0,3.4052,0.0,3.8304,4.017,4.2828,4.4493,4.5408,4.5669,4.6693,4.7439,4.4346,0.0,4.6339,4.3867,4.3879,0.0,0.0,0.0,0.0,0.0,0.0,0.0,0.0,0.0,3.9392,0.0,0.0,0.0,3.8499,3.7985,3.8123,4.1093,4.1752,4.2569,0.0,0.0,0.0,0.0,5.681,0.0,6.0419,6.096,6.1129,6.0689,6.1061,6.1738,6.2767,6.2564,6.253,6.2835,6.1738,6.1332,6.1941,6.1366,6.1434,6.2178,6.2787,6.2854,6.24,6.299,6.3057,6.2618,6.3091,6.3057,6.2685,6.3869,6.4478,6.4647,6.5412,6.6136,6.6791,6.6791,6.7354,6.8199,6.8876,6.9553,7.0297,2.5046,2.4836,0.0,0.0,0.0,0.0,0.0,0.0,0.0,0.0,0.0,0.0,0.0,0.0,0.0,0.0,0.0,0.0,3.1817,0.0,0.0,0.0,3.041,3.1368,3.1733,3.3232,3.3996,3.3996,3.3996,3.314,3.1518,3.1407,3.0813,0.0,2.9353,0.0,0.0,0.0,3.2866,0.0,3.8865,3.9702,0.0,4.3746,4.5191,4.5475,4.6667,4.7758,4.8428,0.0,4.7051,4.7838,0.0,4.5709,0.0,0.0,0.0,0.0,0.0,0.0,0.0,0.0,4.4289,0.0,0.0,0.0,3.8711,3.7154,0.0,3.7045,3.8589,0.0,0.0,0.0,0.0,0.0,4.8125,5.0142,5.2942,5.6867,5.7408,5.7645,5.822,5.778,5.8287,6.0317,5.9268,5.9099,6.0419,6.0317,6.0283,6.0351,6.0283,6.0622,6.1434,6.1501,6.1839,6.24,6.2502,6.2821,6.3342,6.2787,6.2854,6.3376,6.3545,6.4005,6.4647,6.5412,6.6136,6.6791,6.6791,6.7692,6.8977,6.9079,6.9553,7.0297,2.4397,2.5379,0.0,0.0,0.0,0.0,0.0,0.0,0.0,0.0,0.0,0.0,0.0,0.0,0.0,0.0,0.0,3.158,0.0,0.0,0.0,0.0,0.0,0.0,0.0,3.4263,3.4872,3.4872,3.3739,3.277,3.1983,3.0902,2.9999,0.0,2.9007,0.0,3.0164,0.0,3.299,0.0,0.0,0.0,0.0,4.501,4.6471,4.6531,4.71,4.7581,4.7651,0.0,4.6251,0.0,0.0,0.0,0.0,0.0,0.0,0.0,0.0,0.0,0.0,0.0,0.0,0.0,0.0,0.0,3.8216,0.0,0.0,0.0,0.0,0.0,0.0,0.0,4.184,0.0,0.0,0.0,4.8898,0.0,0.0,0.0,5.4532,5.4803,5.5446,5.6799,5.6731,5.7273,5.8727,5.8829,5.9201,6.008,5.9674,6.0047,6.1298,6.1298,6.167,6.24,6.24,6.255,6.2854,6.2516,6.255,6.2854,6.2854,6.3294,6.4005,6.4309,6.5121,6.617,6.617,6.6812,6.7827,6.8267,6.8605,6.8977,2.3351,0.0,0.0,0.0,0.0,0.0,2.9905,0.0,0.0,0.0,0.0,0.0,3.6058,3.572,0.0,0.0,0.0,3.4554,0.0,0.0,3.2407,0.0,0.0,0.0,0.0,0.0,3.5359,3.51,3.3671,3.2717,3.2182,3.0827,2.9821,2.9157,0.0,2.976,3.0556,0.0,0.0,3.7143,3.9486,4.1479,4.3289,4.5813,4.698,4.7309,4.7309,4.7309,4.7083,4.5715,4.605,0.0,4.6963,0.0,0.0,0.0,0.0,0.0,4.7361,0.0,0.0,0.0,0.0,0.0,0.0,0.0,0.0,0.0,0.0,0.0,0.0,0.0,3.7675,0.0,0.0,4.1654,0.0,0.0,0.0,0.0,0.0,0.0,0.0,5.2266,5.2739,5.389,5.3906,5.4702,5.6596,5.6885,5.7679,5.9133,5.8863,5.9336,6.0655,6.0858,6.1366,6.211,6.2279,6.24,6.2381,6.2178,6.2212,6.24,6.24,6.2821,6.3511,6.3714,6.4444,6.5425,6.5615,6.6034,6.6609,6.7557,6.7895,6.803,2.2919,2.4405,0.0,0.0,0.0,0.0,0.0,0.0,0.0,0.0,0.0,0.0,0.0,0.0,0.0,0.0,0.0,4.0101,3.9772,0.0,3.4363,0.0,0.0,0.0,0.0,0.0,3.5034,3.4058,3.3979,3.3017,3.1241,3.1167,3.0658,2.9779,3.0312,3.1115,3.2311,3.5069,3.8034,4.0994,4.3248,4.5323,4.698,0.0,4.6172,4.7309,4.7309,0.0,0.0,4.761,4.7716,0.0,0.0,0.0,0.0,0.0,0.0,0.0,0.0,0.0,0.0,4.6636,0.0,0.0,0.0,0.0,4.0938,0.0,0.0,0.0,0.0,3.8645,3.8937,0.0,0.0,0.0,0.0,0.0,0.0,0.0,0.0,0.0,0.0,5.0405,5.0033,0.0,5.0405,5.0507,5.3484,5.4329,5.5378,5.6867,5.7577,5.8287,5.9081,5.9776,6.0554,6.1332,6.2042,6.24,6.24,6.167,6.1704,6.24,6.24,6.2821,6.3545,6.4275,6.458,6.4715,6.5425,6.5717,6.5899,6.7354,6.7895,6.803,0.0,0.0,0.0,0.0,0.0,0.0,0.0,3.1763,0.0,0.0,0.0,0.0,0.0,0.0,4.6686,0.0,0.0,4.3763,4.3085,4.0567,0.0,0.0,0.0,3.7074,0.0,0.0,3.6177,3.4971,3.4312,3.3377,3.2092,3.1499,3.0696,2.9804,0.0,3.0658,0.0,0.0,0.0,0.0,0.0,4.5783,4.7848,0.0,0.0,4.7309,4.7309,4.7309,0.0,4.7437,4.7609,4.7964,4.8821,4.9239,4.949,4.9947,5.0423,0.0,0.0,0.0,5.1121,4.7791,0.0,0.0,0.0,0.0,0.0,0.0,0.0,0.0,0.0,0.0,3.9691,0.0,0.0,0.0,0.0,0.0,0.0,0.0,0.0,0.0,0.0,0.0,0.0,0.0,4.7259,0.0,5.1082,5.2401,5.3754,5.5277,5.6528,5.7543,5.8254,5.8998,5.9757,6.052,6.0757,6.0892,6.0858,6.0622,6.0655,6.0892,6.1434,6.1806,6.211,6.2821,6.3429,6.3971,6.4681,6.5635,6.675,6.7727,6.8106,6.8189,2.2082,0.0,0.0,0.0,0.0,0.0,0.0,0.0,0.0,0.0,4.3374,0.0,5.0595,0.0,5.1541,0.0,5.0426,4.8269,4.6078,4.4408,0.0,4.0498,4.0217,0.0,0.0,0.0,0.0,3.5519,0.0,3.4307,3.2575,3.1965,3.1007,2.9804,0.0,3.1035,3.1953,0.0,3.8366,0.0,0.0,4.5903,0.0,0.0,4.704,4.7578,0.0,4.71,4.7387,4.8157,4.8296,4.8369,4.948,4.974,4.9642,4.9688,5.009,5.0405,4.9857,5.0438,0.0,4.8023,4.7429,0.0,4.2327,0.0,0.0,0.0,0.0,0.0,0.0,0.0,0.0,0.0,0.0,0.0,0.0,4.0506,0.0,0.0,0.0,0.0,0.0,0.0,0.0,0.0,0.0,0.0,0.0,5.0439,5.2334,5.416,5.5886,5.7137,5.79,5.8626,5.925,5.9708,5.9979,6.0114,6.008,5.9844,5.9844,6.0148,6.0655,6.1028,6.1366,6.2096,6.2821,6.3579,6.4309,6.5807,6.7603,6.8401,6.8682,6.8755,0.0,0.0,0.0,0.0,2.7395,0.0,0.0,0.0,4.0298,0.0,4.6323,4.9964,5.2407,5.3845,5.5041,5.6093,5.565,0.0,4.8947,4.8588,0.0,0.0,4.1403,4.0745,3.8739,0.0,0.0,0.0,0.0,3.5752,3.2648,3.2621,3.1618,2.9854,3.1461,0.0,3.252,3.7714,4.0396,4.1449,4.4859,4.5882,4.5334,4.5244,4.6441,4.8027,4.6749,4.6719,4.7624,4.9647,4.9675,4.909,5.0379,5.0166,4.9136,4.7613,4.8243,4.9104,4.7581,4.8312,4.9109,4.7462,0.0,0.0,0.0,0.0,4.4971,0.0,0.0,0.0,0.0,0.0,0.0,0.0,0.0,0.0,0.0,0.0,0.0,0.0,0.0,0.0,0.0,0.0,0.0,0.0,0.0,0.0,0.0,4.833,5.0982,5.3281,5.5547,5.7103,5.7832,5.8592,5.8945,5.8945,5.9674,5.9979,5.9979,5.9268,5.9351,6.0047,6.008,6.0554,6.1366,6.2096,6.2821,6.3579,6.4309,6.6134,6.8513,6.9354,6.972,6.9672,2.2816,2.4556,2.6541,0.0,2.8792,3.0239,0.0,0.0,0.0,0.0,5.1014,5.5296,5.9144,5.9449,5.9468,5.9739,5.8286,0.0,0.0,0.0,0.0,4.7151,4.6253,4.4855,4.2821,4.1534,0.0,3.8404,0.0,0.0,3.3329,3.2832,3.1618,2.9854,0.0,0.0,3.2319,3.6777,4.051,4.3578,4.5007,4.5753,0.0,0.0,4.5044,4.6749,4.642,4.6719,4.7495,4.8779,4.9556,5.0055,5.0383,5.0858,5.1033,4.9863,5.0362,5.0982,4.9831,5.0947,5.1638,4.8383,4.8418,4.8494,0.0,0.0,0.0,0.0,0.0,0.0,0.0,0.0,0.0,0.0,0.0,0.0,0.0,0.0,0.0,0.0,0.0,0.0,0.0,0.0,0.0,0.0,0.0,0.0,0.0,0.0,4.8635,5.0897,5.4211,5.6341,5.707,5.7814,5.8186,5.8186,5.8355,5.8475,5.8475,5.8254,5.8592,5.9317,5.9877,6.0554,6.1366,6.2096,6.2821,6.3579,6.4309,6.6818,7.0143,7.1197,7.159,7.1407,2.3955,0.0,0.0,3.2237,0.0,0.0,3.7278,0.0,0.0,4.9654,5.4039,0.0,6.048,6.0984,6.1076,6.1076,5.9251,0.0,0.0,0.0,0.0,4.9823,4.8962,4.7377,4.4796,4.309,0.0,3.8943,0.0,0.0,3.3568,3.2905,3.1618,2.9849,0.0,3.1732,3.3164,3.781,4.1534,4.4326,4.4706,0.0,0.0,4.3708,4.4177,4.5495,4.5889,4.668,4.7718,4.9041,4.9891,5.0474,5.0911,5.1136,5.1043,5.0009,5.0094,5.0339,4.9327,5.0223,5.0927,4.8755,4.9216,4.9621,4.749,4.7453,4.744,0.0,0.0,0.0,0.0,0.0,0.0,0.0,0.0,0.0,0.0,0.0,0.0,0.0,0.0,0.0,0.0,0.0,0.0,0.0,0.0,0.0,0.0,0.0,4.7862,4.9578,5.4194,5.6697,5.6799,5.8524,5.8896,5.79,5.79,5.79,5.79,5.79,5.8137,5.8558,5.9302,6.008,6.0825,6.1603,6.2719,6.418,6.637,6.8599,7.0769,7.2157,7.2221,7.1457,0.0,0.0,0.0,0.0,0.0,0.0,0.0,4.5599,0.0,5.2455,0.0,5.8979,5.9548,6.0595,6.1224,6.1106,0.0,5.7307,5.4855,5.5179,5.4072,5.0996,5.0584,4.9052,4.6022,4.4207,0.0,0.0,0.0,0.0,3.3778,3.2959,3.1646,3.0017,0.0,0.0,0.0,3.9617,4.2546,4.3818,4.4147,4.3908,4.329,4.329,4.3668,4.4288,4.5317,4.6601,4.806,4.9853,5.046,5.0612,5.1583,5.122,5.025,4.9191,4.9032,4.8952,4.7686,4.8378,4.9316,4.8891,4.9813,5.0456,4.9162,4.8883,4.8559,4.7203,4.4973,4.3176,0.0,0.0,0.0,0.0,0.0,0.0,0.0,0.0,0.0,0.0,0.0,0.0,0.0,0.0,0.0,0.0,0.0,0.0,0.0,0.0,4.7502,4.8818,5.4363,5.7239,5.7103,5.9607,5.9945,5.8204,5.8001,5.79,5.79,5.79,5.7967,5.8084,5.8829,5.9573,6.0317,6.1129,6.2685,6.4952,6.8641,7.0211,7.0574,7.2049,7.1723,7.045,0.0,0.0,0.0,0.0,0.0,4.7353,5.0054,5.25,5.4412,5.5552,5.9508,6.2269,6.2389,6.2121,6.1702,6.1136,6.0266,0.0,0.0,0.0,0.0,5.4401,5.2725,5.1056,4.9381,4.5454,4.284,0.0,0.0,0.0,3.4724,3.3289,3.2001,3.0977,3.1515,0.0,3.5849,3.9774,0.0,4.1265,4.3429,4.3908,4.329,4.329,4.3349,4.3688,4.5164,4.6601,4.8097,5.0066,5.0731,5.0865,5.1651,5.1367,5.0533,4.9501,5.022,5.0806,4.8309,5.0101,5.2062,4.9456,5.0892,5.2664,5.1538,5.1006,5.0672,5.0406,4.6963,4.384,4.3227,0.0,0.0,0.0,0.0,0.0,0.0,0.0,0.0,0.0,0.0,0.0,0.0,0.0,0.0,0.0,0.0,0.0,0.0,0.0,4.4664,0.0,5.2097,0.0,0.0,0.0,5.8915,5.9708,5.8475,5.79,5.79,5.79,5.822,5.8844,5.9607,6.0351,6.1163,6.1907,6.3159,6.4803,6.6737,6.8226,6.9403,6.9697,6.9646,6.9389,0.0,0.0,0.0,0.0,0.0,0.0,0.0,5.7712,0.0,5.7951,5.9694,6.1014,6.1014,6.1672,6.1822,6.1136,5.9847,5.865,5.7663,5.6645,5.5837,5.5209,5.3593,0.0,5.0226,4.6031,4.3409,4.241,0.0,0.0,3.5477,3.3518,3.2361,3.2019,0.0,3.5605,0.0,0.0,0.0,4.2124,4.3307,4.3609,4.329,4.329,4.329,4.3537,4.5329,4.688,4.8314,4.9746,5.1099,5.2113,5.1695,5.1562,5.129,4.9931,5.0014,5.0134,4.8238,4.9758,5.1521,5.0009,5.1576,5.3365,5.2852,5.1845,5.0894,5.056,4.7545,4.432,4.2128,3.9716,0.0,0.0,0.0,0.0,0.0,0.0,0.0,0.0,0.0,0.0,0.0,0.0,0.0,0.0,0.0,0.0,0.0,0.0,4.4093,0.0,0.0,0.0,0.0,0.0,0.0,5.9539,5.8423,5.8084,5.8457,5.8051,5.8287,5.9013,5.9404,6.0216,6.14,6.2516,6.3396,6.4187,6.6047,6.7231,6.7996,6.8808,6.8842,6.8467,0.0,4.038,0.0,0.0,5.1341,0.0,5.7832,6.1044,6.2359,6.0236,5.9937,5.9937,5.9937,6.1343,6.2002,6.1166,5.964,5.8384,5.7573,5.6316,5.5598,5.5598,5.4067,5.2336,5.0458,4.654,4.3748,0.0,0.0,0.0,0.0,3.3847,0.0,0.0,0.0,0.0,0.0,0.0,4.2613,4.3125,4.3242,4.329,4.3309,4.3547,4.3615,4.3858,4.58,4.7329,4.8605,4.9482,5.1329,5.3044,5.181,5.1708,5.178,5.0241,4.9607,4.9173,4.8102,4.8976,5.0167,5.0075,5.1465,5.2835,5.2835,5.1625,5.0317,4.9814,4.7471,4.4441,4.1032,3.9895,0.0,0.0,0.0,0.0,0.0,0.0,0.0,0.0,0.0,0.0,0.0,0.0,0.0,0.0,0.0,0.0,3.892,0.0,0.0,0.0,0.0,5.4363,5.5902,0.0,5.9979,5.9216,5.849,5.8457,5.8979,5.8558,5.8693,5.925,5.9419,6.0283,6.1637,6.2787,6.3342,6.368,6.5574,6.6521,6.6927,6.8166,6.8436,6.8132,0.0,0.0,0.0,0.0,0.0,0.0,0.0,6.1343,6.3018,6.2778,6.2748,6.2748,6.2748,6.2898,6.248,6.1196,6.0926,6.0296,5.9009,5.7663,5.6915,5.6915,5.4546,5.2546,5.1146,4.7249,4.4008,0.0,0.0,0.0,0.0,0.0,0.0,0.0,0.0,0.0,0.0,4.0863,4.1745,4.1957,4.29,4.329,4.3409,4.4301,4.4662,4.4924,4.6797,4.7999,4.8825,4.9769,5.1119,5.2401,5.2232,5.1776,5.1151,5.031,4.9926,4.9499,4.8368,4.8749,4.9394,4.9039,4.9832,5.0684,5.0684,5.0043,4.9422,4.9358,4.6956,4.3987,4.0942,4.1509,4.2292,0.0,0.0,0.0,0.0,0.0,0.0,0.0,0.0,0.0,0.0,3.9982,0.0,0.0,0.0,0.0,0.0,0.0,0.0,4.5708,4.8849,5.2503,5.6664,5.7036,5.8152,5.9979,5.925,5.8912,5.9013,5.9607,5.9945,6.0047,6.0757,6.1535,6.2333,6.2468,6.2888,6.3579,6.4478,6.5628,6.6825,6.696,6.7861,6.8876,0.0,0.0,0.0,0.0,0.0,0.0,0.0,6.2419,6.3108,6.3108,6.3108,6.3108,6.3108,6.3108,6.254,6.1224,6.0745,5.9937,5.859,5.7274,5.6551,5.6551,5.4396,5.2576,5.1236,4.8117,4.5214,0.0,0.0,0.0,0.0,0.0,0.0,0.0,0.0,3.8416,3.9585,4.1494,4.2261,4.2291,4.3657,4.4186,4.4301,4.5269,4.5652,4.5814,4.7138,4.8083,4.8844,4.9797,5.1082,5.2232,5.1776,5.1438,5.0935,4.9624,4.8788,4.802,4.6943,4.7258,4.7867,4.7698,4.8728,4.9814,4.9814,4.9372,4.8883,4.8494,4.6332,4.3912,4.1959,4.2631,4.3619,0.0,0.0,0.0,0.0,0.0,0.0,0.0,0.0,0.0,0.0,0.0,0.0,0.0,0.0,0.0,0.0,0.0,0.0,4.5587,0.0,5.0929,5.5446,5.6359,5.7915,6.008,5.9351,5.9487,6.0366,6.0182,6.0351,6.0858,6.1637,6.211,6.24,6.24,6.255,6.2956,6.414,6.4952,6.5595,6.6453,6.7197,6.7827,5.1165,0.0,5.4373,0.0,5.937,6.0351,6.271,6.2735,6.257,6.2778,6.2808,6.2898,6.3078,6.3108,6.254,6.1224,6.0685,5.9817,5.8474,5.7184,5.6462,5.6462,5.4366,0.0,5.1505,4.8925,4.6292,4.3658,4.1654,0.0,0.0,0.0,0.0,0.0,3.8326,3.9689,4.0769,4.2144,4.2657,4.268,4.4199,4.4688,4.4651,4.6074,4.6463,4.6405,4.7342,4.8015,4.8611,4.9456,5.0608,5.1589,5.1302,5.1157,5.076,4.9192,4.7989,4.7044,4.631,4.6325,4.6586,4.6803,4.7528,4.8266,4.8435,4.827,4.7886,4.718,4.5768,4.4298,4.3309,4.3956,4.4849,4.5478,0.0,0.0,0.0,0.0,0.0,0.0,0.0,4.0008,3.9773,0.0,0.0,0.0,0.0,0.0,0.0,0.0,0.0,0.0,0.0,0.0,5.4583,5.5852,5.7476,5.9438,5.937,5.9892,6.0926,6.0825,6.1095,6.1637,6.2178,6.24,6.24,6.24,6.2516,6.2854,6.4106,6.4715,6.5087,6.6339,6.6948,6.7286,5.6222,5.8512,6.0645,6.3443,6.3398,6.296,6.299,6.1929,6.1373,6.2032,6.2121,6.2361,6.3048,6.3108,6.254,6.1224,6.1076,6.0535,5.9189,5.7842,5.7094,0.0,0.0,5.2875,5.2187,4.9636,4.698,4.4296,0.0,0.0,3.7387,0.0,3.759,3.9551,3.9568,4.0766,4.2741,4.2572,4.2574,4.2819,4.4217,4.4397,4.4094,4.6608,4.7111,4.6616,4.7567,4.7906,4.8007,4.8766,4.9492,5.0236,5.0964,5.1028,5.0537,4.9088,4.7989,4.7189,4.7171,4.6472,4.587,4.6531,4.6011,4.5525,4.6193,4.6322,4.6142,4.5475,4.5325,4.5182,4.4833,4.553,4.6231,4.6471,0.0,0.0,0.0,0.0,0.0,0.0,4.0111,3.9787,3.8987,0.0,0.0,0.0,0.0,0.0,0.0,0.0,0.0,4.5635,4.7834,0.0,5.4583,5.5344,5.6461,5.7934,5.937,6.0114,6.0182,6.167,6.24,6.24,6.24,6.24,6.24,6.24,6.2821,6.3545,6.4309,6.5053,6.5784,6.6521,6.7252,6.7895,5.8582,6.0618,6.2292,6.3164,6.3864,6.4298,6.4298,6.3223,6.2472,6.2686,6.1956,6.1672,6.2331,6.2421,6.2061,0.0,6.0685,6.0027,0.0,5.7842,5.7094,5.7094,5.4606,5.2899,5.2217,5.0085,4.79,4.5672,0.0,0.0,0.0,3.926,3.9541,4.0293,4.0791,4.1593,4.262,4.3102,4.3636,4.4229,4.5331,4.601,4.6558,4.8013,4.7994,4.7243,4.707,4.6913,4.6796,4.7206,4.8163,4.931,5.0162,5.0382,5.0208,4.9639,4.8506,4.7311,4.6685,4.6293,4.609,4.6312,4.6478,4.6767,4.7495,4.8424,4.8695,4.7271,4.7184,4.6961,4.5637,4.6369,4.719,4.7227,4.7818,0.0,0.0,0.0,0.0,0.0,0.0,3.842,0.0,3.8571,0.0,0.0,0.0,0.0,0.0,0.0,0.0,0.0,4.8594,0.0,5.4583,5.5818,5.7442,5.9404,5.9877,6.0655,6.167,6.2197,6.24,6.24,6.24,6.24,6.24,6.24,6.2821,6.3579,6.4309,6.5053,6.5764,6.6542,6.6927,6.7218,6.078,6.2639,6.4087,6.4381,6.469,6.4908,6.4908,6.3382,6.2331,6.2584,6.1932,6.1695,6.2362,6.2646,0.0,6.1874,6.1665,6.1274,6.0598,5.9276,5.8416,5.8145,5.5402,5.3435,5.2502,0.0,0.0,4.6659,4.4616,4.275,4.1134,4.0636,4.0721,4.1308,4.1772,4.2285,4.2833,4.3335,4.3912,4.4533,4.5723,4.6603,4.7341,4.8539,4.8267,4.7144,4.6715,4.6238,4.5864,4.6389,4.7342,4.853,5.0032,5.0304,5.001,4.9525,4.8907,4.813,4.703,4.6713,4.6713,4.6713,4.6983,4.7499,4.8482,4.9584,5.0032,4.8663,4.8574,4.8326,4.7043,4.7478,4.7952,4.7732,4.76,4.6764,4.4716,0.0,0.0,0.0,0.0,0.0,0.0,3.9156,4.0101,0.0,0.0,0.0,0.0,0.0,0.0,4.69,4.917,0.0,5.4763,5.6417,5.8051,5.9708,6.0283,6.1197,6.24,6.24,6.24,6.24,6.24,6.24,6.2434,6.2685,6.326,6.3984,6.4715,6.5459,6.617,6.6643,6.6791,6.6859,6.2846,6.4501,0.0,0.0,6.5833,0.0,6.5036,6.2892,6.1486,6.2058,6.2048,6.2244,6.2901,6.3596,6.3769,6.3256,0.0,0.0,0.0,6.1652,6.054,5.9736,5.6764,5.4408,5.2931,5.0628,4.8707,4.7249,4.4157,4.262,4.25,4.1235,4.1313,4.247,4.247,4.2761,4.3309,4.3369,4.3609,4.4089,4.567,4.6478,4.6941,4.8435,4.7983,4.6585,4.6519,4.5911,4.5299,4.6225,4.6996,4.8001,5.0335,5.0608,4.9924,4.9111,4.9288,4.9436,4.8068,4.7737,4.777,4.7704,4.7607,4.7931,4.9268,5.0131,5.0415,4.9721,4.9585,4.9461,4.8951,4.8826,4.8597,4.8002,4.7259,4.5673,4.2653,0.0,0.0,0.0,0.0,0.0,0.0,4.0454,4.1714,0.0,0.0,0.0,0.0,0.0,4.4447,4.7319,4.9805,5.2412,5.5144,5.7081,5.8423,5.9182,6.0689,6.1738,6.24,6.24,6.24,6.24,6.24,6.2434,6.2516,6.3226,6.3971,6.4749,6.5446,6.6136,6.6791,6.6791,6.6791,6.6791,0.0,0.0,6.6588,6.6757,6.6546,6.6342,6.6342,6.4981,6.3836,6.3432,6.2523,6.2153,6.2777,6.3438,6.422,6.513,6.4007,6.294,6.2212,6.1372,6.0293,5.8923,5.7223,5.5226,5.2954,5.1351,4.9225,4.654,4.5762,4.4855,4.3838,4.3539,4.328,4.31,4.31,4.316,4.3349,4.4139,4.4911,4.5738,4.682,4.7736,4.8467,4.884,4.83,4.7276,4.6765,4.6303,4.601,4.6422,4.7012,4.7836,4.9124,4.9796,5.0171,5.0502,5.0336,4.9816,4.8924,4.9074,4.9377,4.879,4.9486,5.051,5.1412,5.2215,5.2506,5.151,5.1477,5.1326,5.046,5.0009,4.9373,4.8093,4.6805,4.4933,4.1896,4.1193,0.0,0.0,3.9329,3.9986,3.9986,4.086,4.1906,0.0,0.0,0.0,0.0,4.5993,4.6978,4.8597,5.2198,5.4683,5.594,5.8375,5.9979,6.0791,6.1704,6.2212,6.24,6.24,6.24,6.24,6.24,6.2719,6.326,6.3409,6.4275,6.5459,6.5649,6.6136,6.6791,6.6791,6.6791,6.6859,6.5559,6.6305,6.6893,6.7252,6.6994,6.6893,6.7252,6.5946,6.4638,6.3891,6.2719,6.2137,6.2691,6.3422,6.4366,6.568,6.5137,6.4579,6.4152,6.3166,6.1917,6.0395,5.8512,5.6037,5.2839,5.1537,4.9533,4.6749,4.645,4.5942,4.5194,4.4596,4.4117,4.3758,4.3459,4.3566,4.4024,4.4567,4.5579,4.6867,4.739,4.8161,4.9018,4.9018,4.8434,4.7556,4.7193,4.6678,4.6285,4.6848,4.7309,4.7836,4.9106,4.9778,5.0236,5.0964,5.0369,4.9289,4.8553,4.8579,4.8944,4.9659,5.0773,5.1911,5.2672,5.3179,5.3331,5.2765,5.2757,5.2421,5.1058,5.0357,4.9142,4.6563,4.4947,4.2989,4.0011,3.9737,0.0,3.9035,4.0359,4.1534,4.2132,4.3329,4.4158,4.4311,4.481,0.0,4.6888,4.8006,4.8845,4.9313,5.2736,5.4896,5.5601,5.8426,6.0204,6.1006,6.2278,6.2888,6.2922,6.326,6.3396,6.3396,6.3396,6.3632,6.4038,6.4377,6.4986,6.5751,6.6068,6.644,6.6791,6.6791,6.6791,6.6893,6.5865,6.6373,6.7028,6.776,6.7286,6.7028,6.7793,6.6366,6.4839,6.3913,6.2805,6.2294,6.2815,6.3375,6.4329,6.5748,6.644,6.6757,6.6622,6.5358,6.3903,6.2279,5.9991,5.6934,5.308,5.1517,4.9625,4.7309,4.686,4.656,4.6271,4.5199,4.4569,4.4287,4.3768,4.4004,4.4831,4.5098,4.6152,4.7589,4.7754,4.8289,4.9018,4.9018,4.8513,4.7819,4.7819,4.7306,4.673,4.7523,4.7819,4.8049,4.949,4.9932,5.0067,5.0829,4.9925,4.8611,4.8067,4.7766,4.8103,5.0391,5.1629,5.2503,5.3315,5.3518,5.3518,5.3518,5.3365,5.2806,5.1272,5.0219,4.8446,4.4949,4.3117,4.1198,3.837,0.0,3.9355,3.9799,4.1792,4.3589,4.4796,4.6471,4.71,4.6262,4.76,4.8588,4.8887,5.0099,5.0645,5.0306,5.2855,5.4642,5.5463,5.8205,5.9957,6.0804,6.2539,6.3485,6.368,6.4309,6.4613,6.4613,6.4613,6.4647,6.4816,6.5425,6.5784,6.5933,6.6576,6.6791,6.6791,6.6791,6.6791,6.6927,6.6643,6.6724,6.7028,6.776,6.7286,6.7028,6.7793,6.7103,6.5859,6.4024,6.3155,6.2914,6.3572,6.3243,6.3976,6.6403,6.6724,6.6542,6.5899,6.5053,6.3666,6.1569,6.0435,5.8289,5.4936,5.1726,4.9165,4.7309,4.8055,4.7699,4.6292,4.6437,4.5724,4.4307,4.4472,4.4662,4.4906,4.6503,4.7323,4.7688,4.8466,4.8861,4.9018,4.9018,4.8907,4.8783,4.8783,4.8671,4.8592,4.8751,4.8783,4.8814,4.9073,4.9187,4.9323,5.0033,4.954,4.8791,4.9251,4.9361,4.9718,5.134,5.2029,5.2503,5.3315,5.3518,5.3518,5.3518,5.28,5.205,5.1774,4.9993,4.7905,4.6007,4.409,4.2023,3.9624,0.0,4.1906,4.1937,4.4666,4.683,4.7608,4.7959,4.8745,5.0159,4.9576,4.9845,5.1498,5.2875,5.3552,5.3513,5.4911,5.6503,5.8178,5.9242,6.0344,6.1551,6.2417,6.3391,6.4444,6.4546,6.4613,6.4613,6.4613,6.4952,6.5547,6.5649,6.6068,6.6622,6.6757,6.6791,6.6791,6.6791,6.6791,6.6994,6.5789,6.632,6.7028,6.776,6.7286,6.7028,6.7793,6.6705,6.5159,6.3474,6.1821,6.0999,6.1585,6.1753,6.2725,6.498,6.6183,6.6677,6.6305,6.5595,6.4377,6.2584,6.1366,5.8571,5.3948,5.125,4.9304,4.8115,4.8574,4.8706,4.8517,4.8321,4.7818,4.699,4.5899,4.5945,4.6941,4.7311,4.8031,4.8987,4.9418,4.9593,4.956,4.9154,4.9018,4.9052,4.9458,4.9323,4.9052,4.9458,4.9323,4.9018,4.9018,4.9255,4.9729,5.0473,4.9659,4.8633,4.9365,4.9541,4.9896,5.1514,5.243,5.3044,5.3416,5.3518,5.3518,5.3518,5.311,5.2434,5.1285,4.96,4.7747,4.5908,4.3377,0.0,0.0,4.1893,4.2833,4.3838,4.6582,4.8768,4.9763,5.0182,5.078,5.1678,5.1169,5.1432,5.269,5.3683,5.4521,5.5239,5.6143,5.7014,5.7881,5.884,5.9962,6.1276,6.2627,6.3974,6.5189,6.5595,6.5797,6.5797,6.5797,6.6,6.6305,6.6305,6.6508,6.6791,6.6791,6.6791,6.6791,6.6791,6.6791,6.696,6.4891,6.592,6.7028,6.776,6.7286,6.7028,6.7793,6.6179,6.4406,6.3031,6.0638,5.9298,5.9798,6.0136,6.1174,6.3201,6.5059,6.6195,6.6342,6.5956,6.5019,6.3545,6.1719,5.8288,5.3038,5.1593,5.0313,4.9155,4.9416,4.9832,5.0397,4.9963,4.9627,4.932,4.7585,4.7612,4.8906,4.8442,4.9042,5.0338,5.0338,5.0338,5.027,4.9526,4.9357,4.956,4.9965,4.9729,4.9357,4.9898,4.9593,4.9052,4.9187,4.9627,5.0286,5.1183,5.0367,4.9208,4.9518,4.981,5.0293,5.1576,5.2697,5.3518,5.3518,5.3518,5.3518,5.3518,5.3314,5.2627,5.1024,4.9598,4.8117,4.6507,0.0,0.0,0.0,4.3725,4.4377,4.6371,4.8697,5.0577,5.1582,5.2382,5.2791,5.269,5.2665,5.2965,5.3648,5.4281,5.533,5.6777,5.7006,5.7251,5.7557,5.8642,5.9975,6.1602,6.3291,6.4727,6.5967,6.6542,6.6791,6.6791,6.6791,6.6791,6.6791,6.6791,6.6791,6.6791,6.6791,6.6791,6.6791,6.6791,6.6791,6.6893,6.4891,6.592,6.7028,6.776,6.7286,6.7028,6.7793,6.6179,6.445,6.3155,6.0718,5.9352,6.0017,5.904,5.9323,6.1891,6.3355,6.4377,6.4993,6.5466,6.5019,6.3545,6.0704,5.7536,5.4072,5.3846,5.2633,5.0281,5.1211,5.1229,5.0416,5.0682,5.0286,4.939,4.9485,4.9579,4.9784,5.0576,5.0986,5.1133,5.1133,5.1133,5.1032,5.0304,5.0439,5.0964,5.0338,5.0083,5.0049,5.0083,4.9593,4.912,4.9796,5.0083,5.0371,5.1792,5.1928,5.1448,5.0568,5.1015,5.1765,5.1852,5.2697,5.3518,5.3518,5.3518,5.3518,5.3518,5.2697,5.1975,5.1831,5.0431,4.9283,4.9132,0.0,0.0,4.7938,4.7678,4.8151,5.0234,5.1825,5.2809,5.305,5.4117,5.4611,5.4086,5.4072,5.4341,5.4999,5.5683,5.6874,5.864,5.7651,5.7712,5.8938,5.9656,6.1232,6.3671,6.444,6.5492,6.6724,6.6757,6.6791,6.6791,6.6791,6.6791,6.6791,6.6791,6.6791,6.6791,6.6791,6.6791,6.6791,6.6791,6.6791,6.6893,6.3544,6.4766,6.5943,6.7023,6.7015,6.7028,6.7793,6.5521,6.3544,6.3116,6.039,5.8412,5.8255,5.8527,5.912,6.0132,6.1763,6.2645,6.2473,6.2631,6.2734,6.2829,6.0791,5.8364,5.5581,5.508,5.3898,5.2011,5.2415,5.2476,5.2345,5.2465,5.2314,5.1898,5.0911,5.0821,5.1346,5.1094,5.1346,5.1894,5.1894,5.1894,5.181,5.1066,5.098,5.1235,5.1386,5.1183,5.0845,5.1319,5.098,5.0389,5.0694,5.0658,5.0605,5.1,5.1492,5.1929,5.2006,5.1977,5.2047,5.2715,5.3196,5.3518,5.3518,5.3518,5.3619,5.4093,5.3852,5.3499,5.3302,5.2444,5.182,5.1982,0.0,4.9437,5.1385,5.1192,5.1441,5.3069,5.421,5.4892,5.4932,5.5055,5.5035,5.484,5.482,5.494,5.5179,5.653,5.8128,5.9956,5.9555,5.9579,6.0083,6.0858,6.2081,6.3836,6.4111,6.5126,6.6791,6.6791,6.6791,6.6791,6.6791,6.6791,6.6791,6.6791,6.6791,6.6791,6.6791,6.6791,6.6791,6.6791,6.6791,6.6893,6.2193,6.3732,6.5171,6.605,6.6213,6.6381,6.6884,6.4361,6.239,6.2407,5.9932,5.7846,5.7184,5.773,5.8187,5.8187,5.976,6.0686,6.0424,6.0876,6.1262,6.1488,6.0584,5.9088,5.6901,5.6131,5.5015,5.3482,5.3482,5.3502,5.3518,5.3518,5.3518,5.345,5.2249,5.2066,5.2639,5.1998,5.2083,5.2672,5.2672,5.2672,5.2604,5.181,5.1708,5.1945,5.2198,5.1961,5.1607,5.2131,5.1595,5.0776,5.0977,5.109,5.1119,5.0932,5.1743,5.2866,5.3349,5.3316,5.3259,5.3989,5.4177,5.4177,5.4177,5.4177,5.4312,5.4837,5.5141,5.5219,5.4974,5.4785,5.4734,5.4927,5.3422,5.2936,5.5005,5.4657,5.4672,5.6036,5.6413,5.6496,5.6318,5.5981,5.5626,5.5229,5.5179,5.5381,5.5745,5.7002,5.8609,6.0599,6.0893,6.1074,6.1237,6.1841,6.2902,6.4396,6.4396,6.524,6.6791,6.6791,6.6791,6.6791,6.6791,6.6791,6.6791,6.6791,6.6791,6.6791,6.6791,6.6791,6.6791,6.6791,6.6791,6.6893,6.0989,6.3084,6.4869,6.4869,6.4869,6.4869,6.4901,6.2675,6.0989,6.102,5.9314,5.7846,5.7184,5.6581,5.6192,5.6192,5.7333,5.8366,5.9024,6.0699,6.1002,5.9564,5.9893,5.9404,5.7967,5.7171,5.6089,5.4617,5.46,5.4228,5.3518,5.3518,5.3518,5.3518,5.3518,5.3518,5.3518,5.3518,5.3518,5.3518,5.3518,5.3518,5.3416,5.2604,5.2807,5.3416,5.2604,5.23,5.23,5.23,5.1162,4.9859,5.0586,5.131,5.1885,5.1885,5.3163,5.46,5.46,5.5124,5.5699,5.5699,5.5699,5.5699,5.5699,5.5699,5.5699,5.5681,5.6308,5.6833,5.6815,5.7408,5.7934,5.7934,5.7934,5.8152,5.8912,5.8091,5.7937,5.9334,5.8496,5.7588,5.7041,5.6991,5.6493,5.528,5.5204,5.5745,5.6967,5.7039,5.8122,6.0522,6.132,6.1933,6.2381,6.2602,6.372,6.5683,6.5683,6.6068,6.6791,6.6791,6.6791,6.6791,6.6791,6.6791,6.6791,6.6791,6.6791,6.6791,6.6791,6.6791,6.6791,6.6791,6.6791,6.6893,6.0841,6.1615,6.2456,6.3402,6.3544,6.3899,6.4876,6.275,6.133,6.2317,6.0312,5.8381,5.7214,5.6944,5.6466,5.5593,5.6274,5.6859,5.7041,5.7882,5.8569,5.9012,5.9711,5.9877,5.9438,5.822,5.7103,5.6122,5.5649,5.5006,5.4262,5.3754,5.3518,5.3518,5.3518,5.3518,5.3518,5.3518,5.3518,5.3518,5.3518,5.3518,5.3484,5.3247,5.3281,5.3484,5.3247,5.3145,5.3145,5.3145,5.2792,5.2284,5.1755,5.1233,5.0855,5.0855,5.2103,5.3597,5.4128,5.5353,5.6359,5.5834,5.5699,5.5699,5.5699,5.6105,5.6381,5.606,5.7245,5.825,5.7908,5.8725,5.9438,5.9438,5.9438,5.9208,5.862,5.9094,5.9189,5.8346,5.8055,5.7675,5.707,5.6232,5.5601,5.5229,5.5962,5.7339,5.9434,5.9544,6.0235,6.1797,6.2092,6.2286,6.2381,6.2986,6.3827,6.4918,6.4918,6.5595,6.6791,6.6791,6.6791,6.6791,6.6791,6.6791,6.6791,6.6791,6.6791,6.6791,6.6791,6.6791,6.6791,6.6791,6.6791,6.6893,6.0097,6.0635,6.1269,6.207,6.2446,6.2895,6.3716,6.225,6.1233,6.1837,6.0509,5.8979,5.7633,5.7244,5.6675,5.5683,5.5743,5.5803,5.5803,5.6568,5.7527,5.8745,5.9486,6.0097,6.0569,5.937,5.8254,5.7239,5.6494,5.5615,5.4583,5.3856,5.3518,5.3518,5.3518,5.3518,5.3518,5.3518,5.3518,5.3518,5.3518,5.3518,5.3518,5.3518,5.3518,5.3518,5.3518,5.3518,5.3518,5.3518,5.3213,5.2746,5.1995,5.1596,5.1426,5.1426,5.2678,5.4174,5.4589,5.5727,5.6765,5.663,5.6562,5.6664,5.695,5.696,5.6944,5.6968,5.7787,5.8534,5.8741,5.9864,6.0776,6.097,6.0847,6.0385,5.9363,5.9759,5.9652,5.8281,5.8044,5.7935,5.773,5.6638,5.6109,5.659,5.73,5.8564,6.0501,6.0586,6.114,6.2361,6.24,6.24,6.24,6.2854,6.3429,6.4174,6.4478,6.5222,6.6373,6.6656,6.6791,6.6791,6.6791,6.6643,6.6406,6.6677,6.6643,6.6406,6.669,6.6791,6.6791,6.6791,6.6791,6.6893,5.9099,6.0019,6.0841,6.0841,6.134,6.1777,6.1839,6.1328,6.0715,6.0146,6.0054,5.9488,5.8145,5.7483,5.6825,5.6162,5.5564,5.5179,5.5179,5.6262,5.7457,5.8683,5.9242,6.01,6.1292,6.053,5.9404,5.8001,5.7273,5.619,5.4769,5.3957,5.3653,5.3687,5.3619,5.3585,5.3585,5.3585,5.3551,5.3518,5.3518,5.3518,5.3518,5.3518,5.3518,5.3518,5.3518,5.3518,5.3518,5.3518,5.2834,5.1973,5.1828,5.2392,5.3111,5.3203,5.4454,5.58,5.58,5.6341,5.707,5.7712,5.79,5.8103,5.8761,5.8077,5.7447,5.8011,5.7979,5.8116,5.9182,6.0645,6.1857,6.2353,6.2004,6.1442,6.0656,6.0014,5.9407,5.8728,5.8248,5.8191,5.8741,5.7807,5.7668,5.888,5.8969,5.9511,6.0769,6.0865,6.1375,6.2463,6.2502,6.2468,6.24,6.24,6.2787,6.3612,6.4275,6.5019,6.5797,6.6508,6.6825,6.6893,6.6825,6.6474,6.5933,6.6542,6.6406,6.5865,6.6542,6.6791,6.6791,6.6791,6.6791,6.6893,5.9009,5.9312,5.9496,5.9496,5.9617,5.9918,6.0431,5.9948,5.9668,6.0054,5.9638,5.88,5.7453,5.7184,5.6645,5.5534,5.5269,5.5179,5.5179,5.5962,5.6901,5.811,5.9165,6.0314,6.152,6.0581,5.9674,5.8743,5.8017,5.7205,5.6292,5.4972,5.4668,5.5192,5.4634,5.4363,5.4363,5.4363,5.4025,5.3518,5.3518,5.3518,5.3518,5.3518,5.3518,5.3518,5.3518,5.3518,5.3518,5.3518,5.3168,5.2887,5.3679,5.3914,5.4051,5.4866,5.5794,5.6562,5.6562,5.7103,5.7697,5.7866,5.79,5.7934,5.8084,5.8097,5.7855,5.7066,5.778,5.8501,5.8357,6.0186,6.1912,6.2512,6.2108,6.1294,6.0208,5.9103,5.8151,5.748,5.7755,5.8191,5.8741,5.8564,5.8925,6.014,6.0225,6.0976,6.2771,6.2865,6.2986,6.324,6.324,6.299,6.24,6.24,6.3057,6.4377,6.4512,6.529,6.6576,6.6745,6.7117,6.7624,6.7028,6.7049,6.7387,6.696,6.669,6.6576,6.6724,6.6791,6.6791,6.6791,6.6791,6.6893,5.8534,5.889,5.9099,5.9099,5.9368,5.9787,6.0475,6.0296,6.0176,6.0535,5.9997,5.9069,5.7723,5.7304,5.6585,5.5299,5.5179,5.5354,5.5653,5.6013,5.6869,5.8356,5.9006,5.9954,6.1134,6.0672,6.0289,6.0114,5.9336,5.8558,5.7814,5.6325,5.5852,5.6172,5.5446,5.5108,5.5108,5.4735,5.4363,5.3991,5.3653,5.3179,5.2748,5.2748,5.2451,5.208,5.2557,5.3277,5.4093,5.4431,5.4439,5.4439,5.5373,5.5515,5.5494,5.6082,5.6494,5.6799,5.6799,5.707,5.7442,5.7832,5.79,5.7983,5.8355,5.8364,5.8253,5.7975,5.7956,5.8203,5.9088,5.9635,6.0367,6.1512,6.0724,5.964,5.8654,5.8206,5.7773,5.7077,5.8106,5.9202,6.0117,6.0695,6.1447,6.242,6.2194,6.2587,6.3964,6.4018,6.4018,6.4018,6.368,6.3308,6.2922,6.2584,6.3125,6.4613,6.4613,6.5189,6.6305,6.6622,6.7015,6.7354,6.696,6.6812,6.6846,6.6812,6.6588,6.6305,6.6677,6.6791,6.6791,6.6791,6.6791,6.6859,5.7905,5.8381,5.88,5.8919,5.9398,5.9967,6.0655,6.0775,6.0775,6.0775,6.0266,5.9428,5.8082,5.7244,5.6346,5.5269,5.5299,5.5623,5.6162,5.6402,5.7195,5.8687,5.8968,5.9523,6.0527,6.0635,6.0757,6.0831,6.0161,5.952,5.8852,5.737,5.6923,5.734,5.6443,5.6071,5.6037,5.5203,5.4728,5.4441,5.3628,5.2748,5.1958,5.1958,5.1568,5.1114,5.1972,5.3359,5.4871,5.5496,5.5767,5.6003,5.6596,5.69,5.7002,5.7002,5.7002,5.7002,5.7002,5.7002,5.7137,5.7764,5.79,5.8051,5.8693,5.8464,5.835,5.9116,5.8131,5.7797,6.0044,5.9498,5.9226,6.0694,5.9707,5.8483,5.7895,5.8003,5.8026,5.766,5.9284,6.0857,6.1907,6.3038,6.3917,6.4546,6.4038,6.3984,6.4749,6.4783,6.4783,6.4783,6.4208,6.3815,6.368,6.3091,6.3429,6.4783,6.4783,6.5155,6.5899,6.6542,6.6859,6.696,6.6859,6.6542,6.6102,6.6609,6.644,6.5933,6.6576,6.6791,6.6791,6.6791,6.6791,6.6791,5.7124,5.7304,5.7543,5.8115,5.8294,5.8593,5.9279,5.9368,5.9368,5.9368,5.9308,5.871,5.7393,5.6166,5.5388,5.5209,5.5743,5.6102,5.6192,5.7244,5.7955,5.82,5.9226,5.9848,6.0023,6.044,6.0115,5.8966,5.8848,5.8657,5.8355,5.6882,5.7439,5.9607,5.822,5.7577,5.7523,5.6435,5.5241,5.3973,5.2909,5.2375,5.2256,5.2256,5.2767,5.3508,5.3672,5.4507,5.5564,5.5665,5.6105,5.6664,5.6765,5.7239,5.7764,5.7764,5.7764,5.7764,5.7764,5.7764,5.7798,5.79,5.79,5.7934,5.8035,5.7697,5.7553,5.8317,5.8001,5.809,5.962,6.0605,6.148,6.2289,6.1742,6.1197,6.1099,5.9687,5.9043,6.0011,6.1825,6.306,6.3222,6.3971,6.4478,6.458,6.4512,6.4783,6.5493,6.5547,6.5547,6.5547,6.5425,6.5087,6.4478,6.4343,6.4715,6.5547,6.5547,6.5933,6.6656,6.6757,6.7151,6.7726,6.7083,6.7117,6.7557,6.6994,6.6724,6.6677,6.6757,6.6791,6.6791,6.6791,6.6791,6.6791,5.6551,5.6881,5.7184,5.7483,5.7846,5.8324,5.9009,5.9099,5.9249,5.9608,5.9338,5.874,5.7782,5.6526,5.5773,5.5773,5.6042,5.6492,5.7214,5.7786,5.8264,5.865,5.918,5.9466,5.9466,5.9701,5.912,5.7758,5.8788,5.9379,5.9577,5.8502,5.8986,6.0723,5.9607,5.9133,5.9043,5.744,5.6165,5.51,5.3516,5.2288,5.1476,5.1476,5.2049,5.3169,5.5228,5.6363,5.7002,5.739,5.7509,5.7408,5.7408,5.7645,5.79,5.79,5.8186,5.8423,5.8035,5.8186,5.8524,5.8524,5.8524,5.8524,5.8524,5.8354,5.8413,5.9134,5.8992,5.9228,6.0946,6.0619,6.0413,6.138,6.0707,6.0064,6.0064,5.9913,6.0268,6.146,6.3081,6.4086,6.4086,6.4783,6.5392,6.5797,6.5459,6.5527,6.6271,6.6305,6.6305,6.6305,6.5899,6.5547,6.5222,6.4816,6.4952,6.5717,6.5717,6.6102,6.6791,6.6791,6.696,6.7286,6.6927,6.696,6.7252,6.6927,6.6791,6.6791,6.6791,6.6791,6.6791,6.6791,6.6791,6.6791]}]]